[[[{"header":{"parameterUnit":"kt","parameterCategory":2,"dx":1,"dy":1,"la1":29.587661999999998,"la2":31.0,"lo1":-88.76705300000003,"lo2":-86.6583820000003,"nx":115,"ny":88,"refTime":"2022-09-26T18:00:00:Z","depth":0,"parameterNumber":1,"parameterNumberName":"U-component_of_WINDS"},"data":[24.7292,24.7292,24.7292,24.6932,24.6444,24.6354,24.5459,24.4161,24.403,24.3277,24.2595,24.2385,24.2385,24.2385,24.2385,24.2385,24.2385,24.2385,24.2385,24.2385,24.2648,24.2517,24.2648,24.3043,24.2517,24.2385,24.2517,24.3155,24.3569,24.4095,24.5016,24.6331,24.6482,24.7139,24.8435,24.883,24.9093,24.9619,24.9882,24.975,24.9224,24.8698,24.7758,24.8153,24.881,24.9731,25.052,25.0914,25.1066,25.1066,25.1066,25.1066,25.1066,25.1066,25.1066,25.1066,25.1066,25.1066,25.1066,25.1066,25.1066,25.1066,25.1066,25.1066,25.1066,25.1066,25.1197,25.1197,25.1197,25.1197,25.1329,25.1329,25.1592,25.3433,25.488,25.6063,25.751,25.8542,25.9462,25.9857,25.9857,25.9331,25.841,25.8016,25.8147,25.8279,25.7884,25.7095,25.6964,25.6964,25.7095,25.749,25.8016,25.7773,25.751,25.841,25.9331,25.9462,25.9594,25.9725,25.9857,25.9857,26.0272,26.095,26.2002,26.3034,26.4086,26.5248,26.619,26.6605,26.619,26.5927,26.5927,26.5927,26.5927,24.7292,24.7292,24.7292,24.722,24.7148,24.7112,24.6227,24.4961,24.4757,24.3917,24.2519,24.2385,24.2385,24.2385,24.2385,24.2385,24.2385,24.2385,24.2385,24.2385,24.2385,24.2385,24.2385,24.2385,24.2385,24.2385,24.2385,24.2648,24.3043,24.3043,24.3701,24.4753,24.5279,24.5673,24.6745,24.712,24.7403,24.7929,24.806,24.7646,24.7271,24.7008,24.6876,24.7383,24.8304,24.9054,24.9599,25.0257,25.1046,25.1046,25.0934,25.1066,25.1066,25.1066,25.1066,25.1066,25.1066,25.1066,25.1066,25.1066,25.1066,25.1066,25.1066,25.1066,25.1066,25.1066,25.1066,25.1066,25.1066,25.1197,25.1197,25.1197,25.1197,25.1855,25.319,25.4505,25.6063,25.7621,25.8694,25.9746,25.9746,25.9746,25.8936,25.8167,25.8299,25.8673,25.8279,25.749,25.6701,25.6326,25.6175,25.6569,25.7358,25.6832,25.6175,25.7095,25.8279,25.8542,25.922,25.9594,25.9857,25.9857,26.014,26.0535,26.1081,26.2002,26.3054,26.3954,26.4328,26.4854,26.4591,26.448,26.448,26.448,26.4459,24.7292,24.7292,24.7292,24.7292,24.7202,24.6806,24.6263,24.5532,24.4664,24.3617,24.2481,24.2385,24.2385,24.2385,24.2385,24.2385,24.2385,24.2385,24.2385,24.2385,24.2385,24.2385,24.2385,24.2385,24.2385,24.2385,24.2385,24.2385,24.2517,24.2517,24.2517,24.3306,24.3569,24.4095,24.541,24.5805,24.6087,24.6764,24.7008,24.5936,24.4358,24.4509,24.464,24.5542,24.6331,24.6969,24.789,24.9073,24.9356,24.9093,25.0408,25.0802,25.0934,25.0934,25.1066,25.1066,25.1066,25.1066,25.1066,25.1066,25.1066,25.1066,25.1066,25.1066,25.1066,25.1066,25.1066,25.1066,25.1066,25.1066,25.1066,25.1066,25.1066,25.1066,25.2138,25.319,25.4505,25.5932,25.7247,25.8167,25.8147,25.8279,25.8936,25.8036,25.7904,25.8299,25.8167,25.7358,25.5932,25.5011,25.5385,25.5912,25.6984,25.6852,25.6175,25.6701,25.7621,25.8167,25.8694,25.922,25.9857,25.9857,25.9857,26.014,26.0535,26.1213,26.176,26.2528,26.3034,26.3407,26.3276,26.3034,26.3034,26.3034,26.2507,24.7292,24.7292,24.7292,24.7292,24.7202,24.6644,24.6245,24.5734,24.4534,24.3484,24.2579,24.2463,24.2385,24.2385,24.2385,24.2385,24.2385,24.2385,24.2385,24.2385,24.2385,24.2385,24.2385,24.2385,24.2385,24.2385,24.2385,24.2385,24.2385,24.2385,24.2385,24.2517,24.2648,24.3043,24.4076,24.4227,24.449,24.5167,24.5167,24.4227,24.3043,24.278,24.278,24.3832,24.4884,24.5654,24.6331,24.7646,24.7646,24.7271,24.9244,24.9882,25.0165,25.0408,25.0539,25.0671,25.0914,25.1066,25.1066,25.1066,25.1066,25.1066,25.1066,25.1066,25.1066,25.1066,25.1066,25.1066,25.1066,25.1066,25.1066,25.1066,25.1066,25.1066,25.1329,25.2006,25.2664,25.409,25.5537,25.578,25.5912,25.6701,25.8016,25.8016,25.7773,25.7641,25.7641,25.7247,25.5932,25.5537,25.6195,25.5912,25.6832,25.7115,25.6832,25.7095,25.7621,25.8167,25.8694,25.9199,25.9725,25.9857,25.9857,25.9857,25.9988,26.0403,26.1081,26.1476,26.1871,26.2113,26.2092,26.1587,26.1455,26.1587,26.0798,24.7292,24.7292,24.7292,24.7292,24.7292,24.7184,24.639,24.509,24.4828,24.396,24.272,24.2372,24.2311,24.2122,24.2385,24.2385,24.2385,24.2385,24.2385,24.2385,24.2385,24.2385,24.2385,24.2385,24.2385,24.2385,24.2385,24.2385,24.2385,24.2385,24.2385,24.2385,24.2385,24.2517,24.2892,24.2911,24.3175,24.372,24.3438,24.3306,24.2517,24.2385,24.2517,24.2892,24.3813,24.4733,24.5128,24.6068,24.7008,24.6876,24.7271,24.7403,24.7929,24.8435,24.9093,24.9468,25.0257,25.0539,25.0802,25.1066,25.1066,25.1066,25.1066,25.1066,25.1066,25.1066,25.1066,25.1066,25.1066,25.1066,25.1066,25.1066,25.1066,25.1066,25.1066,25.146,25.1986,25.2775,25.3827,25.4333,25.4596,25.5254,25.6306,25.6589,25.6195,25.7247,25.7641,25.7641,25.7115,25.7247,25.6964,25.6306,25.6832,25.7227,25.7095,25.749,25.7904,25.8279,25.8936,25.9462,25.9725,25.9857,25.9857,25.9857,25.9857,26.014,26.0272,26.0403,26.0666,26.104,26.0909,26.0403,26.014,26.0251,25.9988,24.7292,24.7292,24.7292,24.7292,24.7292,24.7274,24.6698,24.554,24.4576,24.3289,24.1928,24.1768,24.1506,24.139,24.1972,24.2385,24.2385,24.2385,24.2385,24.2385,24.2385,24.2385,24.2385,24.2385,24.2385,24.2385,24.2385,24.2385,24.2385,24.2385,24.2385,24.2385,24.2385,24.2385,24.2385,24.2385,24.2385,24.2385,24.2385,24.2385,24.2385,24.2385,24.2385,24.2517,24.278,24.3175,24.3569,24.4884,24.4884,24.4246,24.6501,24.6482,24.5805,24.6876,24.7666,24.8041,24.9093,24.9731,24.9994,25.052,25.0934,25.1066,25.1066,25.1066,25.1066,25.1066,25.1066,25.1066,25.1066,25.1066,25.1066,25.1066,25.1066,25.1066,25.1066,25.1066,25.146,25.1723,25.2229,25.2755,25.3413,25.3939,25.4485,25.4616,25.5294,25.6458,25.7247,25.7378,25.7641,25.7904,25.749,25.7358,25.7621,25.7621,25.7884,25.8147,25.8562,25.8957,25.9331,25.9331,25.9725,25.9857,25.9725,25.9725,25.9725,25.9988,26.012,25.9988,25.9857,25.9988,26.012,26.0009,26.0009,25.9857,25.9857,24.7292,24.7292,24.7292,24.7292,24.7292,24.7292,24.67,24.5776,24.4934,24.299,24.1118,24.1293,24.1091,24.0432,24.1295,24.1991,24.2254,24.2385,24.2385,24.2385,24.2385,24.2385,24.2385,24.2385,24.2385,24.2385,24.2385,24.2385,24.2385,24.2385,24.2385,24.2385,24.2385,24.2385,24.2385,24.2385,24.2385,24.2385,24.2385,24.2385,24.2385,24.2385,24.2385,24.2385,24.2517,24.2648,24.2648,24.3569,24.3569,24.278,24.464,24.5167,24.4095,24.5016,24.6087,24.635,24.7515,24.8416,24.8659,24.9731,25.0388,25.0388,25.0388,25.0539,25.0671,25.0783,25.1066,25.1066,25.1066,25.1066,25.1066,25.1066,25.1066,25.1066,25.1066,25.1066,25.1197,25.146,25.146,25.1835,25.1855,25.2512,25.3301,25.3564,25.4373,25.582,25.6873,25.7378,25.7773,25.8167,25.8147,25.8936,25.9068,25.8936,25.9068,25.8805,25.922,25.9483,25.922,25.9199,25.9462,25.9614,25.9614,25.9351,25.8936,25.9199,25.9594,25.9857,25.9857,25.9857,25.9857,25.9857,25.9857,25.9857,25.9857,24.7292,24.7292,24.7292,24.7292,24.7292,24.7292,24.6451,24.5138,24.5661,24.3814,24.0697,24.1439,24.1052,24.0451,24.0394,24.107,24.1991,24.2122,24.2254,24.2385,24.2385,24.2385,24.2385,24.2385,24.2385,24.2385,24.2385,24.2385,24.2385,24.2385,24.2385,24.2385,24.2385,24.2385,24.2385,24.2385,24.2385,24.2385,24.2385,24.2385,24.2385,24.2385,24.2385,24.2385,24.2385,24.2385,24.2517,24.2648,24.2517,24.2648,24.2648,24.2629,24.2629,24.2517,24.3569,24.4621,24.6068,24.6594,24.712,24.8284,24.8942,24.8679,24.8942,24.9073,24.9336,25.0125,25.0388,25.0671,25.1066,25.1066,25.1066,25.1066,25.1066,25.1066,25.1066,25.1066,25.1066,25.1066,25.1066,25.1066,25.1066,25.1329,25.2118,25.2644,25.3301,25.4637,25.5557,25.6195,25.6984,25.751,25.8147,25.8936,25.9725,25.9725,25.9857,25.9594,25.9746,25.9746,25.9331,25.922,25.9088,25.922,25.9088,25.8825,25.8299,25.841,25.9088,25.9483,25.9725,25.9857,25.9857,25.9857,25.9857,25.9857,25.9857,24.7292,24.7292,24.7292,24.7292,24.7292,24.7292,24.7005,24.6415,24.5495,24.444,24.2845,24.2194,24.1402,24.0167,24.0038,24.0788,24.092,24.1051,24.1183,24.2385,24.2385,24.2385,24.2385,24.2385,24.2385,24.2385,24.2385,24.2385,24.2385,24.2385,24.2385,24.2385,24.2385,24.2385,24.2385,24.2385,24.2385,24.2385,24.2385,24.2385,24.2385,24.2385,24.2385,24.2385,24.2385,24.2385,24.2385,24.2385,24.2385,24.2385,24.2385,24.2385,24.2385,24.2517,24.2629,24.3043,24.3832,24.447,24.5542,24.6706,24.6838,24.6575,24.7252,24.7515,24.7909,24.8942,24.9468,24.9994,25.0651,25.0914,25.1066,25.1066,25.1066,25.1066,25.1066,25.1066,25.1066,25.1066,25.1066,25.1066,25.1066,25.1066,25.146,25.1855,25.2381,25.3321,25.411,25.5011,25.5932,25.6326,25.6832,25.8147,25.9199,25.9199,25.9462,25.9462,25.9594,25.9857,25.9725,25.9725,25.9483,25.8957,25.8694,25.843,25.8036,25.8036,25.8562,25.9088,25.9483,25.9725,25.9857,25.9857,25.9857,25.9857,25.9857,24.7292,24.7292,24.7292,24.7292,24.7292,24.7292,24.7292,24.7005,24.6147,24.5102,24.3982,24.3359,24.1892,24.0706,24.0526,24.0546,24.0451,24.0243,24.0506,24.1577,24.1596,24.1859,24.2385,24.2385,24.2385,24.2385,24.2385,24.2385,24.2385,24.2385,24.2385,24.2385,24.2385,24.2385,24.2385,24.2385,24.2385,24.2385,24.2385,24.2385,24.2385,24.2385,24.2385,24.2385,24.2385,24.2385,24.2385,24.2385,24.2385,24.2385,24.2385,24.2385,24.2385,24.2385,24.2385,24.2517,24.2517,24.2892,24.3813,24.4621,24.4884,24.4884,24.5279,24.6068,24.635,24.7515,24.8021,24.8547,24.9468,25.0125,25.0388,25.0388,25.0802,25.0802,25.052,25.0651,25.0934,25.0934,25.0934,25.0934,25.1066,25.1066,25.1066,25.1592,25.1723,25.2381,25.2644,25.3433,25.4485,25.5011,25.5648,25.7247,25.8279,25.8542,25.8825,25.8694,25.8694,25.9462,25.9857,25.9857,25.9483,25.9088,25.8825,25.8825,25.8167,25.7641,25.8299,25.8957,25.9351,25.9614,25.9877,25.9877,25.9331,25.9199,25.9594,24.7292,24.7292,24.7292,24.7292,24.7292,24.7292,24.7292,24.7292,24.7005,24.5959,24.4447,24.4079,24.3092,24.1796,24.1181,24.0997,24.0527,24.0187,24.0243,24.0394,24.0394,24.1202,24.1728,24.2122,24.1972,24.2254,24.2385,24.2385,24.2385,24.2385,24.2385,24.2385,24.2385,24.2385,24.2385,24.2385,24.2385,24.2385,24.2385,24.2385,24.2385,24.2385,24.2385,24.2385,24.2385,24.2385,24.2385,24.2385,24.2385,24.2385,24.2385,24.2385,24.2385,24.2385,24.2385,24.2385,24.2385,24.2385,24.2517,24.2517,24.278,24.3043,24.3832,24.4621,24.4884,24.5936,24.6857,24.6989,24.8172,24.881,24.9073,24.9054,24.9731,24.9994,24.958,24.9448,24.9994,25.0276,25.0388,25.0388,25.0802,25.1066,25.1066,25.1066,25.1197,25.1177,25.1177,25.1855,25.2907,25.3696,25.4485,25.58,25.6832,25.7358,25.8299,25.8036,25.8299,25.9351,25.9857,25.9857,25.9594,25.9351,25.922,25.9351,25.8562,25.7378,25.7904,25.8542,25.8147,25.7753,25.8694,25.8957,25.8542,25.841,25.9068,24.7292,24.7292,24.7292,24.7292,24.7292,24.7292,24.7292,24.7292,24.7309,24.671,24.6245,24.5686,24.4589,24.3188,24.2132,24.1315,24.0808,23.9793,23.9718,23.9624,23.9642,23.9755,24.0394,24.1051,24.1577,24.2254,24.2385,24.2385,24.2385,24.2385,24.2385,24.2385,24.2385,24.2385,24.2385,24.2385,24.2385,24.2385,24.2385,24.2385,24.2385,24.2385,24.2385,24.2385,24.2385,24.2385,24.2385,24.2385,24.2385,24.2385,24.2385,24.2385,24.2385,24.2385,24.2385,24.2385,24.2385,24.2385,24.2385,24.2385,24.2385,24.2385,24.3043,24.3175,24.3438,24.449,24.5279,24.5542,24.6594,24.7515,24.7534,24.8153,24.8791,24.8679,24.8284,24.8284,24.883,24.9356,24.9468,24.9731,25.052,25.0934,25.0934,25.0934,25.0934,25.0934,25.0934,25.146,25.2118,25.2644,25.3564,25.4485,25.5254,25.6458,25.7904,25.8036,25.8299,25.9199,25.9725,25.9725,25.9857,25.9746,25.9746,25.922,25.843,25.7247,25.6852,25.6721,25.6438,25.6175,25.6286,25.6569,25.6549,25.7621,25.841,24.7809,24.7211,24.7244,24.7943,24.8855,24.8259,24.8146,24.8075,24.7524,24.7292,24.7238,24.6788,24.5892,24.4753,24.3518,24.2924,24.1703,24.0072,24.0206,24.0038,23.9624,23.9624,24.0131,24.092,24.1183,24.1446,24.2122,24.2385,24.2385,24.2385,24.2385,24.2385,24.2385,24.2385,24.2385,24.2385,24.2385,24.2385,24.2385,24.2385,24.2385,24.2385,24.2385,24.2385,24.2385,24.2385,24.2385,24.2385,24.2385,24.2385,24.2385,24.2385,24.2385,24.2385,24.2385,24.2385,24.2385,24.2385,24.2385,24.2385,24.2385,24.2385,24.2385,24.2517,24.2648,24.3306,24.3701,24.4358,24.5147,24.5917,24.6068,24.6706,24.7495,24.712,24.7008,24.712,24.7383,24.7909,24.8172,24.8435,24.9224,25.0276,25.0539,25.0671,25.0539,25.0408,25.0802,25.1197,25.1329,25.1723,25.2664,25.3696,25.3433,25.4222,25.6306,25.7358,25.8279,25.8805,25.9462,25.9594,25.9857,25.9725,25.922,25.8805,25.8147,25.7378,25.6458,25.5406,25.4748,25.4465,25.4333,25.4445,25.5628,25.6832,25.6964,24.8235,24.7299,24.7477,24.905,25.1033,25.0067,24.9498,24.9412,24.8129,24.7596,24.7649,24.7256,24.6806,24.6184,24.5589,24.4618,24.3005,24.1854,24.1313,24.0958,24.0564,24.0056,24.0243,24.0788,24.1183,24.0769,24.1314,24.1991,24.2122,24.2122,24.2385,24.2385,24.2385,24.2385,24.2385,24.2385,24.2385,24.2385,24.2385,24.2385,24.2385,24.2385,24.2385,24.2385,24.2385,24.2385,24.2385,24.2385,24.2385,24.2385,24.2385,24.2385,24.2385,24.2385,24.2385,24.2385,24.2385,24.2385,24.2385,24.2385,24.2385,24.2385,24.2385,24.2385,24.2385,24.2517,24.2517,24.278,24.3832,24.447,24.4602,24.4733,24.5654,24.5542,24.5693,24.5542,24.5673,24.6199,24.6725,24.6989,24.7646,24.8567,24.8961,24.9224,24.9224,24.883,24.9224,24.9356,24.9619,25.1066,25.1986,25.2249,25.1855,25.2775,25.4859,25.5912,25.6832,25.749,25.7884,25.841,25.9199,25.9068,25.843,25.8167,25.8036,25.751,25.6852,25.5163,25.3847,25.317,25.2907,25.3433,25.4353,25.4748,25.4728,24.5393,24.7248,24.9409,25.012,24.9852,25.0626,25.1036,25.085,24.9464,24.8803,24.8675,24.7809,24.7238,24.6914,24.6444,24.5832,24.5086,24.2625,24.1708,24.0788,23.9811,23.9549,24.0075,23.9624,23.9868,24.0243,24.092,24.092,24.1183,24.1709,24.2254,24.2385,24.2385,24.2385,24.2385,24.2385,24.2385,24.2385,24.2385,24.2385,24.2385,24.2385,24.2385,24.2385,24.2385,24.2385,24.2385,24.2385,24.2385,24.2385,24.2385,24.2385,24.2385,24.2385,24.2385,24.2385,24.2385,24.2385,24.2385,24.2385,24.2385,24.2385,24.2385,24.2385,24.2385,24.2385,24.2385,24.2385,24.3043,24.3043,24.3175,24.4076,24.4207,24.4227,24.4227,24.3964,24.3832,24.4753,24.5279,24.5673,24.6331,24.712,24.7252,24.7666,24.7797,24.7403,24.7383,24.7364,24.8679,25.0388,25.1066,25.1329,25.144,25.2512,25.3807,25.4596,25.5385,25.6043,25.6175,25.6569,25.7621,25.7621,25.7378,25.751,25.7641,25.6721,25.49,25.411,25.321,25.2664,25.2249,25.2644,25.2644,25.2249,25.2512,24.443,24.7006,24.8647,24.9647,25.0127,25.0216,25.0826,25.1078,24.9998,24.9627,24.9897,24.8785,24.8252,24.804,24.7076,24.6644,24.6014,24.4086,24.3097,24.3016,24.1392,24.0357,24.047,24.032,23.9248,24.0018,24.0394,24.0544,23.9999,24.0657,24.1859,24.2254,24.2385,24.2385,24.2385,24.2385,24.2385,24.2385,24.2385,24.2385,24.2385,24.2385,24.2385,24.2385,24.2385,24.2385,24.2385,24.2385,24.2385,24.2385,24.2385,24.2385,24.2385,24.2385,24.2404,24.2404,24.2404,24.2385,24.2385,24.2385,24.2385,24.2385,24.2385,24.2385,24.2385,24.2385,24.2385,24.2385,24.2385,24.2385,24.2648,24.3306,24.3024,24.2892,24.3175,24.3043,24.3043,24.3569,24.3964,24.4358,24.4865,24.4753,24.4884,24.5542,24.6068,24.6068,24.6199,24.6594,24.7778,24.9093,24.9468,25.0125,25.1177,25.1855,25.2512,25.3038,25.3807,25.3939,25.407,25.5385,25.6175,25.6326,25.6063,25.6063,25.58,25.4616,25.2927,25.2269,25.2269,25.1986,25.1723,25.1855,25.1855,25.146,25.1592,24.4552,24.6891,24.7044,24.8525,25.0494,24.9795,25.015,25.1093,24.9785,25.0015,25.1161,25.0068,24.9348,24.9273,24.8135,24.7506,24.6744,24.554,24.4876,24.4857,24.3388,24.2203,24.1731,24.2182,24.0564,23.8985,24.0563,24.03,23.9755,24.0243,24.1295,24.2254,24.2385,24.2385,24.2385,24.2385,24.2385,24.2385,24.2385,24.2385,24.2404,24.2538,24.269,24.2804,24.2975,24.3202,24.3541,24.3597,24.3202,24.3013,24.2785,24.2614,24.2385,24.2385,24.2424,24.2595,24.2462,24.2385,24.2385,24.2385,24.2385,24.2385,24.2385,24.2385,24.2385,24.2385,24.2385,24.2385,24.2385,24.2385,24.2385,24.2517,24.2385,24.2517,24.2648,24.2517,24.2517,24.3043,24.2911,24.3306,24.3681,24.3418,24.2911,24.3701,24.449,24.4753,24.5279,24.5936,24.6613,24.6857,24.712,24.9073,25.0388,25.052,25.1066,25.144,25.1835,25.1855,25.2887,25.4465,25.4748,25.4748,25.4616,25.409,25.317,25.2138,25.1723,25.1592,25.1197,25.1197,25.1329,25.1329,25.1177,25.1197,25.1197,24.6188,24.6846,24.8093,24.8953,24.9536,25.0247,25.0832,25.0863,24.9658,24.9909,25.1121,25.0015,24.986,25.0459,24.9637,24.8376,24.7202,24.6426,24.5734,24.5385,24.4457,24.356,24.2485,24.1581,24.0583,23.8703,23.9436,23.9248,23.9755,24.092,24.1972,24.2385,24.2385,24.2385,24.2424,24.2481,24.2385,24.2385,24.2385,24.2385,24.2576,24.3032,24.3635,24.4234,24.4939,24.5302,24.5869,24.5887,24.5357,24.4935,24.4324,24.3879,24.2728,24.2424,24.3013,24.3841,24.3013,24.2538,24.2462,24.2557,24.2444,24.2385,24.2385,24.2385,24.2385,24.2385,24.2385,24.2385,24.2385,24.2385,24.2385,24.2385,24.2385,24.2385,24.2385,24.2385,24.2385,24.2385,24.2385,24.2517,24.2629,24.2366,24.184,24.2366,24.2629,24.2892,24.3024,24.3832,24.447,24.4621,24.5805,24.7758,24.881,24.8942,24.9073,24.9468,25.0388,25.0408,25.146,25.2624,25.2907,25.2907,25.3058,25.2795,25.1743,25.0934,25.1197,25.1197,25.1066,25.1066,25.1066,25.1066,25.1197,25.1066,25.1066,24.7026,24.7514,24.7755,24.8152,24.8693,24.905,24.9442,24.9891,24.9448,24.9799,25.0497,24.9925,24.9949,25.0684,24.998,24.8925,24.823,24.7426,24.6672,24.5971,24.5293,24.4404,24.3709,24.288,24.1279,23.9793,23.9473,24.0188,24.0281,24.1164,24.1577,24.2122,24.2385,24.2385,24.2443,24.2709,24.2994,24.3013,24.3051,24.3183,24.3635,24.3051,24.3766,24.4494,24.5197,24.6484,24.7743,24.8218,24.8165,24.8315,24.7767,24.688,24.663,24.6773,24.7289,24.7094,24.5735,24.4607,24.4466,24.3085,24.2485,24.2463,24.2385,24.2385,24.2385,24.2385,24.2385,24.2385,24.2385,24.2385,24.2385,24.2385,24.2385,24.2385,24.2385,24.2385,24.2385,24.2385,24.2385,24.2385,24.2498,24.2103,24.1314,24.092,24.092,24.092,24.1051,24.1577,24.2347,24.3155,24.4227,24.5654,24.6462,24.6594,24.6725,24.8021,24.9599,24.9224,24.9619,25.0388,25.0651,24.9882,25.0033,25.0691,25.0539,24.9731,24.9994,25.0671,25.0934,25.1066,25.1066,25.1066,25.1066,25.1066,25.1066,24.7785,24.8637,24.7389,24.758,24.845,24.7558,24.8038,24.9071,24.8982,24.979,25.0689,24.9614,24.9831,25.0584,24.9763,24.9227,24.905,24.8462,24.7773,24.6567,24.651,24.5367,24.4924,24.4231,24.271,24.1317,24.1261,24.1336,24.094,24.0638,24.1577,24.2254,24.2385,24.2385,24.2576,24.2975,24.3164,24.322,24.3522,24.418,24.4494,24.4345,24.4606,24.6412,24.7299,24.876,25.0442,25.0796,25.1227,25.2891,25.1774,25.1104,25.0832,25.095,25.0542,24.9549,24.7777,24.653,24.6093,24.4176,24.2816,24.2354,24.2012,24.201,24.1991,24.2254,24.2385,24.2385,24.2385,24.2385,24.2385,24.2385,24.2385,24.2385,24.2385,24.2385,24.2385,24.2385,24.2385,24.2385,24.2385,24.2235,24.1577,24.1183,24.092,24.0788,24.0788,24.0901,24.1032,24.1709,24.278,24.3569,24.4227,24.4358,24.4753,24.712,24.8284,24.7646,24.8041,24.881,24.8416,24.7383,24.6857,24.7515,24.7646,24.8021,24.8942,24.9862,25.0125,25.0388,25.0802,25.1066,25.1066,25.1066,25.1066,24.9766,24.9836,24.8651,24.8851,24.9654,24.8679,24.8805,24.9753,24.8888,24.9544,25.0383,24.959,24.9815,25.0694,24.9694,24.9165,24.9022,24.8877,24.7673,24.6665,24.7263,24.6567,24.5073,24.4793,24.3967,24.1691,24.2406,24.2523,24.207,24.2122,24.1975,24.2292,24.2424,24.2519,24.2443,24.2576,24.3013,24.3428,24.4067,24.4868,24.5802,24.6329,24.7416,24.9435,25.0965,25.2834,25.403,25.5067,25.5486,25.4728,25.4416,25.4477,25.4109,25.3065,25.1124,25.0431,24.8915,24.7939,24.737,24.4868,24.2693,24.2504,24.158,24.0808,24.0996,24.1691,24.2141,24.2254,24.2385,24.2385,24.2385,24.2385,24.2385,24.2385,24.2385,24.2385,24.2385,24.2385,24.2385,24.2385,24.2385,24.2103,24.1596,24.1183,24.092,24.0657,24.0375,24.0243,23.9999,24.0281,24.1333,24.2254,24.2517,24.2648,24.4358,24.6462,24.6462,24.635,24.6857,24.7252,24.7139,24.635,24.5673,24.5542,24.5542,24.6199,24.712,24.8304,24.9073,24.9468,24.9862,25.0408,25.0802,25.1066,25.1066,24.8579,24.9716,24.8598,24.9199,25.0684,24.9919,24.9696,25.0016,24.9585,24.9809,25.0201,24.9942,25.0088,25.082,25.0221,25.0047,25.0013,24.9407,24.7777,24.6403,24.7013,24.6317,24.4039,24.4317,24.4218,24.2028,24.2322,24.2147,24.1875,24.1954,24.2183,24.1864,24.2787,24.2919,24.3182,24.3541,24.4234,24.5045,24.5984,24.7104,24.8353,24.8528,24.9277,25.0883,25.2736,25.4988,25.6799,25.7902,25.8084,25.7856,25.7208,25.6654,25.5955,25.5245,25.4222,25.2941,25.1088,24.9892,24.8682,24.6125,24.3706,24.3678,24.2317,24.1285,24.0917,24.16,24.1954,24.1577,24.1991,24.2385,24.2385,24.2385,24.2385,24.2385,24.2385,24.2385,24.2385,24.2385,24.2385,24.2385,24.2385,24.1991,24.1446,24.1032,24.0769,24.0657,24.0506,24.0243,23.9868,24.015,24.0939,24.1202,24.1202,24.1991,24.3832,24.449,24.464,24.4621,24.5147,24.5298,24.5167,24.4772,24.4358,24.449,24.447,24.5016,24.5561,24.6857,24.7909,24.8304,24.881,24.9599,25.0125,25.0276,25.0539,24.7509,24.9347,24.819,24.9096,25.0854,25.0093,24.9601,24.9858,25.0024,24.9875,25.0075,25.0124,25.0132,25.0181,25.0451,25.0492,25.0206,24.9218,24.8086,24.6157,24.7052,24.5233,24.2957,24.4388,24.3859,24.2235,24.1891,24.1534,24.0915,24.148,24.1767,24.1497,24.2537,24.3482,24.3517,24.4145,24.5776,24.7155,24.7913,24.8925,25.0254,25.0374,25.1018,25.2344,25.3292,25.5253,25.7499,25.8731,25.93,25.9215,25.8335,25.674,25.6051,25.5974,25.5658,25.4409,25.2786,25.191,25.1036,24.7983,24.5207,24.5059,24.3484,24.2147,24.099,24.1944,24.1732,24.128,24.1748,24.2385,24.2385,24.2385,24.2385,24.2385,24.2385,24.2385,24.2385,24.2385,24.2385,24.2385,24.2385,24.2385,24.2254,24.1446,24.1032,24.0788,24.0506,24.0375,24.0375,24.0525,24.092,24.1051,24.1183,24.1446,24.278,24.278,24.2517,24.2385,24.2892,24.3306,24.2668,24.2273,24.2385,24.2761,24.3287,24.3701,24.4095,24.5279,24.6594,24.6989,24.7515,24.8172,24.8698,24.9356,24.975,24.8771,24.8913,24.7799,24.8121,24.9128,24.8134,24.8379,24.9173,24.9605,24.9626,24.9737,24.9997,24.9624,24.8816,24.964,24.9655,24.8653,24.8203,24.8687,24.9069,24.8134,24.6265,24.2934,24.5058,24.4263,24.2202,24.2915,24.2171,24.1215,24.0879,24.0801,24.1199,24.2171,24.2743,24.3165,24.4126,24.4727,24.5859,24.7401,24.904,25.0594,25.1856,25.3314,25.5023,25.5119,25.5462,25.6792,25.7871,25.7597,25.6595,25.6309,25.5209,25.4172,25.3954,25.3877,25.3494,25.2857,25.2492,25.2238,24.9244,24.6988,24.6672,24.4263,24.2307,24.2352,24.2506,24.2533,24.202,24.2297,24.2465,24.2463,24.2404,24.2404,24.2385,24.2385,24.2385,24.2385,24.2385,24.2385,24.2385,24.2385,24.2385,24.2385,24.2235,24.2103,24.1577,24.1183,24.092,24.092,24.092,24.092,24.1183,24.1314,24.1314,24.1183,24.1183,24.092,24.0657,24.1446,24.1202,24.0563,24.0939,24.0807,24.1051,24.2366,24.3043,24.3306,24.3964,24.4884,24.5805,24.7364,24.7515,24.7515,24.8698,24.9224,24.689,24.7555,24.7096,24.7741,24.8802,24.8546,24.8596,24.9025,24.9245,24.9211,24.9252,24.9386,24.8862,24.7887,24.8264,24.7874,24.6777,24.6063,24.7002,24.8331,24.6461,24.4748,24.412,24.4648,24.4388,24.2293,24.2704,24.2526,24.1918,24.2525,24.2191,24.1536,24.2496,24.3183,24.3388,24.3941,24.5055,24.7042,24.8069,24.9705,25.154,25.2094,25.3751,25.5123,25.477,25.4836,25.6527,25.7687,25.6154,25.2884,25.1898,25.1755,25.1029,25.1016,25.1029,25.0979,25.0521,25.088,25.087,24.9273,24.8113,24.8313,24.6836,24.5101,24.4116,24.3863,24.313,24.2697,24.256,24.2572,24.2445,24.2504,24.2462,24.233,24.2385,24.2385,24.2385,24.2385,24.2385,24.2385,24.2385,24.2385,24.2385,24.2385,24.2385,24.2254,24.1728,24.1577,24.1314,24.1051,24.107,24.1709,24.1972,24.1446,24.1183,24.0788,24.0506,24.0131,24.0413,23.9361,23.9511,24.0544,24.0939,24.1709,24.2122,24.2648,24.3701,24.449,24.4753,24.541,24.7232,24.8021,24.8284,24.9073,24.9073,24.3751,24.488,24.4868,24.5451,24.645,24.7021,24.7163,24.7176,24.7865,24.8374,24.8566,24.8758,24.8424,24.7438,24.7593,24.7036,24.6188,24.5282,24.594,24.6934,24.4063,24.3414,24.4692,24.4889,24.4029,24.2785,24.2849,24.2795,24.2701,24.3403,24.3171,24.1835,24.3288,24.3963,24.41,24.4456,24.6025,24.8065,24.8917,25.0459,25.1991,25.2158,25.3225,25.4883,25.4068,25.4431,25.6199,25.6574,25.3858,24.9459,24.9031,24.9031,24.9174,24.9174,24.9316,24.9267,24.8893,24.9119,24.9732,24.8786,24.852,24.9365,24.7671,24.6758,24.5816,24.5385,24.4407,24.3473,24.3024,24.2939,24.2687,24.2553,24.2391,24.2485,24.1977,24.1769,24.1729,24.1859,24.1972,24.2366,24.2385,24.2385,24.2385,24.2385,24.2385,24.2385,24.2254,24.2254,24.2122,24.1859,24.1728,24.2254,24.2103,24.1577,24.092,24.0506,23.998,23.9736,23.9097,23.8196,23.8571,23.9361,24.0413,24.184,24.1709,24.2254,24.3438,24.4227,24.4621,24.4621,24.5673,24.5786,24.6706,24.7627,24.7364,24.0016,24.0016,24.0159,24.0444,24.0873,24.2169,24.2752,24.3025,24.5308,24.6438,24.6878,24.7604,24.7876,24.7398,24.7256,24.7235,24.7102,24.6248,24.6274,24.595,24.4503,24.4161,24.614,24.5559,24.4241,24.2879,24.3517,24.3355,24.2785,24.3333,24.2604,24.2918,24.4147,24.4706,24.5129,24.5997,24.6912,24.7679,24.9582,25.0647,25.1068,25.2951,25.4882,25.5792,25.4564,25.4155,25.4851,25.3174,25.1004,24.9316,24.8472,24.8175,24.8603,24.8901,24.8317,24.8317,24.8876,24.8659,24.8845,24.836,24.8185,24.8444,24.7738,24.7045,24.7171,24.6465,24.5607,24.499,24.4364,24.3817,24.2912,24.2633,24.251,24.2441,24.1452,24.0851,24.047,24.0545,24.094,24.1804,24.2254,24.2385,24.2122,24.2254,24.2254,24.2385,24.2385,24.2385,24.2385,24.2385,24.2385,24.2254,24.1972,24.1314,24.0525,23.9999,23.9342,23.8966,23.844,23.7651,23.7388,23.7519,23.8045,23.9868,24.092,24.1859,24.2648,24.2911,24.3325,24.4377,24.4358,24.2911,24.3306,24.4358,24.4753,23.9588,23.9588,23.9588,23.9588,23.9731,24.0314,24.0587,24.073,24.1871,24.2299,24.2442,24.2882,24.2925,24.2706,24.2962,24.3341,24.3957,24.3103,24.3333,24.3679,24.2799,24.362,24.5401,24.5347,24.4384,24.3612,24.4463,24.4428,24.3438,24.4906,24.5367,24.4839,24.6135,24.6768,24.6889,24.7323,24.813,24.9014,24.989,25.0735,25.1402,25.1756,25.2367,25.299,25.198,25.153,25.1487,24.9577,24.815,24.7306,24.5594,24.4167,24.3168,24.3298,24.3596,24.4321,24.475,24.5606,24.7294,24.7239,24.7568,24.8416,24.807,24.7782,24.7696,24.6133,24.5711,24.5692,24.4378,24.3327,24.3508,24.3158,24.2534,24.2305,24.1029,24.0894,24.1386,24.0912,24.0462,23.9944,23.9981,24.015,24.0807,24.1051,24.1314,24.2254,24.2385,24.2385,24.2385,24.2254,24.1728,24.1314,24.1446,24.1051,24.015,23.9492,23.8966,23.844,23.8045,23.7519,23.7125,23.7125,23.7256,23.9229,23.9999,24.0807,24.1596,24.1859,24.2273,24.4509,24.5693,24.4358,24.3325,24.3457,24.3062,23.8304,23.8316,23.8161,23.8161,23.8316,23.8744,23.8887,23.9017,23.9446,23.9731,23.9588,23.9588,23.9588,23.9719,23.9588,24.0302,24.111,24.0066,24.0041,24.1193,24.1277,24.2018,24.3108,24.3427,24.3326,24.3431,24.4617,24.4878,24.4731,24.6142,24.6701,24.6022,24.6652,24.7255,24.7142,24.7269,24.7592,24.862,24.9129,24.9669,25.0308,25.0069,25.0029,25.0469,24.9872,24.8231,24.6246,24.5023,24.444,24.444,24.2442,24.073,24.0016,23.9588,24.0159,24.117,24.1313,24.2454,24.4155,24.444,24.4856,24.5769,24.5932,24.6302,24.6628,24.5496,24.5292,24.5868,24.4363,24.298,24.3397,24.2551,24.1479,24.0917,24.0003,23.9519,23.9322,23.9515,23.9399,23.8879,23.8923,23.904,23.9511,23.9605,23.9868,24.0676,24.1314,24.1314,24.1333,24.1596,24.184,24.0657,24.092,24.1051,24.107,24.0939,23.9755,23.8703,23.844,23.8064,23.8045,23.8177,23.8177,23.8834,23.9097,23.9624,24.0413,24.0939,24.1221,24.2668,24.3194,24.3588,24.4002,24.3457,24.2668,23.5176,23.5319,23.5045,23.5319,23.5604,23.677,23.7329,23.7614,23.8887,23.916,23.9017,23.9446,23.916,23.9446,23.916,23.9446,23.9303,23.8067,23.8233,23.9588,23.9731,23.9814,24.0253,24.0563,24.1136,24.2051,24.3797,24.4881,24.4872,24.5316,24.5678,24.5604,24.5953,24.6289,24.5704,24.6107,24.5912,24.639,24.7341,24.7656,24.7489,24.8579,24.9093,24.8851,24.8516,24.5781,24.0432,24.0159,24.0302,24.0159,23.9874,23.9731,23.9588,23.9303,23.96,23.9588,23.9731,23.9731,24.0016,24.0302,24.0587,24.0801,24.0985,24.2502,24.3993,24.4286,24.4522,24.4947,24.4212,24.3596,24.2131,24.0781,23.9516,23.8165,23.8144,23.7229,23.5933,23.6632,23.8618,23.9548,23.9242,23.9545,23.8587,23.7989,23.8196,23.8722,23.9492,23.9868,23.9248,24.0544,24.1333,24.0788,24.0525,24.0676,24.1465,24.1991,24.0281,23.8966,23.859,23.8064,23.7782,23.7256,23.7275,23.7782,23.7895,23.844,23.9361,23.9511,23.9905,24.0281,23.9248,23.9511,24.0169,24.0826,24.0676,23.3892,23.4891,23.5034,23.5034,23.5045,23.5604,23.5759,23.5759,23.6318,23.6461,23.6461,23.6461,23.6461,23.6461,23.6449,23.6461,23.6461,23.6044,23.6615,23.8042,23.8042,23.8613,23.9529,23.9799,24.012,24.0383,24.0383,24.0842,24.1964,24.3762,24.5252,24.6234,24.7396,24.7835,24.7835,24.7835,24.7835,24.786,24.8177,24.8341,24.8533,24.887,24.8044,24.5891,24.3739,24.1586,23.9874,23.9588,23.9588,23.9588,23.8601,23.8042,23.7899,23.7043,23.6889,23.7899,23.8042,23.847,23.9446,23.9588,23.9588,23.9707,23.9992,24.0241,24.0943,24.0932,24.142,24.1821,24.129,24.1076,24.1068,23.9308,23.7493,23.7611,23.7849,23.7489,23.672,23.7319,23.7622,23.7398,23.6154,23.5626,23.6162,23.5702,23.6277,23.7933,23.8459,23.8703,23.8196,23.8985,23.9248,23.8966,23.9379,23.9642,23.9642,23.9755,23.844,23.8177,23.7933,23.7125,23.6467,23.5697,23.5697,23.6467,23.6993,23.7519,23.7914,23.8045,23.8703,23.9605,23.8703,23.7782,23.8064,23.8064,23.8853,23.2322,23.3178,23.3178,23.3178,23.3321,23.3321,23.3618,23.4035,23.4035,23.4474,23.4891,23.5034,23.5034,23.4903,23.3749,23.3607,23.4035,23.4046,23.4903,23.633,23.6472,23.7043,23.8019,23.8601,23.8887,23.8792,23.8643,23.9012,24.0235,24.1688,24.318,24.4155,24.5166,24.5594,24.5594,24.5594,24.5594,24.5594,24.5594,24.5606,24.5427,24.5594,24.4179,24.1194,23.96,23.8316,23.7174,23.7733,23.803,23.8019,23.7043,23.6484,23.6472,23.5616,23.5473,23.633,23.6484,23.6889,23.7888,23.8019,23.8019,23.8019,23.8019,23.8161,23.8685,23.8577,23.8858,23.9821,23.9145,23.8828,23.9505,23.7839,23.6428,23.6909,23.7173,23.6991,23.6443,23.6382,23.6197,23.5488,23.3874,23.3145,23.4621,23.3897,23.3809,23.5416,23.5766,23.5489,23.5284,23.6599,23.7143,23.6899,23.7425,23.7933,23.7519,23.7256,23.7388,23.7388,23.7256,23.6599,23.673,23.6486,23.5434,23.6204,23.6204,23.6599,23.5978,23.611,23.6599,23.7519,23.7782,23.7256,23.7914,23.8064,23.8064,23.0182,23.0182,23.017,23.0324,23.0182,23.0324,23.1049,23.2345,23.2345,23.319,23.4463,23.4605,23.4748,23.432,23.1609,23.1038,23.2203,23.2476,23.319,23.4605,23.4748,23.476,23.5045,23.6472,23.7198,23.7317,23.8328,23.9053,23.9231,23.9588,23.9588,23.9874,24.0159,24.0016,24.0159,24.0302,23.9874,24.0302,24.0302,24.0016,23.9874,23.9588,23.7876,23.5473,23.6187,23.5473,23.3344,23.4177,23.4891,23.4891,23.4891,23.4748,23.476,23.4748,23.4605,23.476,23.4748,23.476,23.4748,23.4748,23.4748,23.4748,23.4748,23.5462,23.677,23.6865,23.7354,23.8618,23.8058,23.7428,23.6515,23.591,23.5823,23.6081,23.6194,23.5508,23.3884,23.436,23.4388,23.4645,23.3699,23.3021,23.3161,23.2284,23.1418,23.1768,23.1798,23.1347,23.0916,23.3194,23.451,23.4474,23.5584,23.7143,23.581,23.4626,23.5547,23.581,23.5415,23.6617,23.7406,23.7538,23.6617,23.596,23.5697,23.5171,23.4268,23.4531,23.5565,23.5678,23.6073,23.6073,23.6617,23.7538,23.767,23.0182,23.0182,23.0182,23.0182,23.0182,23.0182,23.0313,23.0752,23.0752,23.1038,23.1466,23.1466,23.1455,23.1312,23.061,23.0313,23.0752,23.0764,23.1049,23.1466,23.1455,23.218,23.3202,23.363,23.4474,23.5473,23.6175,23.6306,23.6461,23.7329,23.8601,23.9588,23.9588,23.9588,23.9588,23.9588,23.9588,23.9588,23.9588,23.9588,23.9017,23.5165,23.2311,23.1609,23.1894,23.2322,23.2488,23.2916,23.319,23.3202,23.3202,23.2619,23.1609,23.1466,23.1455,23.1455,23.1466,23.1466,23.1466,23.1466,23.1466,23.1466,23.1466,23.218,23.3487,23.3772,23.4547,23.5536,23.3956,23.3089,23.3266,23.3551,23.3935,23.4791,23.5742,23.5638,23.4047,23.4613,23.455,23.3801,23.2506,23.0634,22.893,22.7924,22.7916,22.9468,22.9717,22.9313,22.8597,22.9603,23.1173,23.088,23.2164,23.2313,23.0154,22.9664,23.0436,23.1225,23.1075,23.0943,23.1733,23.0794,23.0005,23.2653,23.3874,23.4005,23.3461,23.5321,23.688,23.5941,23.4363,23.3461,23.5302,23.4118,23.4644,22.4462,22.4474,22.4462,22.4462,22.4462,22.4474,22.5187,22.634,22.6329,22.747,22.8743,22.5747,22.4462,22.4451,22.5187,22.5747,22.6329,22.7042,22.7613,22.8184,22.8327,22.904,23.0467,23.061,23.1751,23.3761,23.4035,23.4332,23.5034,23.5902,23.6472,23.6746,23.6746,23.6461,23.5878,23.5735,23.5747,23.5724,23.5735,23.6449,23.7174,23.4023,23.1894,23.1181,23.1192,23.1335,23.1477,23.0907,23.0907,23.1323,23.0336,22.9194,22.8338,22.8184,22.7898,22.7316,22.7898,22.8184,22.8195,22.8195,22.8184,22.8195,22.8886,22.9599,23.0467,23.1181,23.1323,23.1049,22.9337,22.8897,23.0313,23.061,23.1077,23.239,23.3305,23.3554,23.295,23.3031,23.3194,23.3133,23.1681,23.0294,22.9052,22.7549,22.6615,22.6253,22.6387,22.5739,22.4718,22.572,22.6528,22.6741,22.6399,22.5756,22.4947,22.4202,22.457,22.5402,22.5665,22.5683,22.6717,22.6323,22.6849,22.8576,22.9365,23.0286,23.1733,23.2522,23.3592,23.2821,23.1093,23.2408,23.4381,23.3968,23.2653,21.589,21.5747,21.6033,21.5747,21.6043,21.6186,21.7766,22.0072,22.0357,22.2618,22.4748,21.8601,21.5758,21.6186,21.7624,21.9204,22.0631,22.1905,22.3189,22.4342,22.477,22.5615,22.702,22.7305,22.9029,23.1763,23.1906,23.2762,23.4177,23.4474,23.3904,23.2631,23.2631,23.2334,23.1038,23.0895,23.0752,23.0598,23.0039,23.1181,23.3904,23.4177,23.3464,23.1917,23.1774,23.1192,22.9754,22.8315,22.8161,22.9171,22.6625,22.5055,22.477,22.4627,22.3903,22.275,22.3771,22.4627,22.4627,22.4627,22.4627,22.4913,22.6032,22.6877,22.7448,22.8172,22.7613,22.5472,22.477,22.5472,22.6877,22.7305,22.8007,22.94,22.9696,23.0152,23.0983,23.0338,23.0306,23.2003,23.0899,23.1007,23.0575,22.9129,22.6839,22.4382,22.3895,22.291,22.1623,22.229,22.2913,22.1948,22.0468,21.9638,22.03,21.944,22.0425,22.1115,22.2,22.2658,22.3184,22.3824,22.4595,22.5025,22.5271,22.5551,22.5797,22.606,22.7393,22.82,22.9778,23.1751,23.395,23.4081,23.2109,21.2476,21.2486,21.2486,21.2629,21.2629,21.3781,21.4791,21.5505,21.6625,21.5779,21.3374,21.1662,21.209,21.4209,21.4638,21.5779,21.7042,21.7602,21.7898,21.8326,21.9479,22.0917,22.2344,22.3606,22.5889,22.8601,22.8886,22.9731,23.1026,23.1169,23.1609,23.2619,23.3761,23.432,23.3892,23.388,23.3904,23.3607,22.9051,22.6911,22.7624,22.7624,22.7482,22.7053,22.7053,22.6911,22.6471,22.6197,22.5615,22.4748,22.2915,22.1367,22.0203,21.8908,21.8041,21.7898,21.8041,21.8326,21.8184,21.8337,21.8765,21.9918,22.0346,22.1619,22.3606,22.1323,21.8886,21.8612,21.9468,22.0785,22.2201,22.3332,22.4759,22.634,22.6471,22.6986,22.8396,22.8043,22.8225,22.9526,22.8266,22.7276,22.7289,22.6642,22.5881,22.5052,22.4499,22.2816,22.075,22.0443,21.979,21.8406,21.7985,21.8432,21.884,21.942,22.004,22.0658,22.0194,22.0176,22.0685,22.0439,22.0571,22.1737,22.2526,22.3052,22.3465,22.4499,22.5139,22.5271,22.6472,22.7787,22.7769,22.7769,22.6586,20.7074,20.7074,20.7064,20.7217,20.7217,20.8073,20.8786,20.949,20.8908,20.7206,20.4943,20.5524,20.6799,20.8358,20.9215,20.9907,21.0753,21.1487,21.2211,21.3068,21.3792,21.579,21.8633,21.9611,22.1883,22.545,22.5735,22.6877,22.8875,22.9029,22.9885,23.1323,23.1597,23.1323,23.0752,23.061,23.0621,23.0621,22.7898,22.6614,22.6471,22.5912,22.5484,22.5484,22.477,22.4331,22.4474,22.2333,22.1191,22.1049,21.8216,21.6207,21.534,21.4484,21.376,21.3057,21.3628,21.4045,21.4045,21.4056,21.4342,21.5208,21.5922,21.6504,21.6778,21.4352,21.3343,21.4045,21.477,21.5922,21.7503,21.8348,21.9479,22.106,22.1916,22.2915,22.4297,22.4929,22.5808,22.6824,22.6652,22.633,22.6209,22.5351,22.499,22.5537,22.4092,22.2311,22.0158,21.9354,21.8536,21.7888,21.7414,21.764,21.8214,21.8226,21.773,21.7775,21.7216,21.7185,21.7512,21.8055,21.8072,21.8861,21.9387,22.0045,22.0045,22.0703,22.108,22.1325,22.1851,22.1983,22.1606,22.1737,22.1343,20.0642,20.0652,20.0642,20.0652,20.0652,20.0642,20.1498,20.2762,19.9909,19.8624,19.8777,20.0071,20.0795,20.108,20.2334,20.318,20.3751,20.5066,20.6656,20.8093,20.8675,21.0927,21.4759,21.5319,21.7745,22.1619,22.2037,22.3749,22.6306,22.6746,22.7602,22.8897,22.8018,22.7031,22.5912,22.6054,22.5769,22.4924,22.6186,22.6877,22.6888,22.5472,22.4627,22.4199,22.3046,22.2179,22.1477,21.7613,21.6054,21.6921,21.2914,21.0489,21.0489,21.0214,20.951,20.8379,20.9368,21.0203,21.0193,21.0214,21.0203,21.0193,21.1641,21.1223,20.8379,20.8093,20.8664,20.9918,21.0335,21.107,21.2211,21.2782,21.3496,21.5055,21.635,21.792,21.9643,22.0884,22.2002,22.3188,22.4771,22.5347,22.4916,22.4143,22.3946,22.4738,22.3478,22.1382,22.0272,21.877,21.8523,21.899,21.7851,21.7155,21.7669,21.6186,21.5393,21.4496,21.475,21.4695,21.4958,21.5398,21.5836,21.5985,21.6099,21.6231,21.6494,21.6231,21.6757,21.7283,21.766,21.7546,21.7283,21.7134,21.6757,19.4344,19.4353,19.4344,19.4353,19.4344,19.4201,19.5209,19.6504,19.4629,0.0,0.0,19.4201,19.4924,19.6228,19.6504,19.8063,20.0347,20.0775,20.1794,20.3373,20.5953,20.7655,20.8644,21.1059,21.3353,21.5494,21.6767,21.8337,22.0192,22.1499,22.2915,22.4331,22.5472,22.6471,22.7459,22.8601,22.6768,22.1927,22.1927,22.207,22.207,22.1784,22.0489,21.7898,21.8765,21.7481,21.376,21.2772,21.1926,21.0805,20.7481,20.5616,20.5463,20.4352,20.3506,20.3231,20.3506,20.3649,20.3639,20.3649,20.3649,20.3649,20.5066,20.5198,20.3363,20.3221,20.3363,20.3659,20.4913,20.5759,20.5902,20.7206,20.8654,21.0234,21.0673,21.1937,21.4648,21.5362,21.6164,21.7461,21.8711,21.9855,22.0846,22.1538,22.2532,22.3676,22.3099,22.242,22.1492,22.0538,21.9822,21.9105,21.8647,21.844,21.7976,21.7189,21.7065,21.5644,21.4726,21.4299,21.4086,21.3594,21.306,21.2959,21.2959,21.3469,21.4504,21.4618,21.5161,21.6345,21.7431,21.794,21.6625,21.3978,21.1988,19.2631,19.2631,19.2631,19.2631,0.0,19.2631,19.2213,19.1366,19.0643,19.0643,19.1509,19.2346,19.3059,19.3792,19.3783,19.4639,19.6056,19.6922,19.8083,19.9663,20.2079,20.4057,20.5626,20.7186,20.9072,21.1366,21.2211,21.3781,21.6075,21.6932,21.8502,22.0763,22.1619,22.2761,22.4188,22.5067,22.3058,21.848,21.7645,21.7228,21.7217,21.6504,21.4934,21.2782,21.4056,0.0,0.0,0.0,0.0,0.0,0.0,0.0,0.0,20.0509,0.0,19.735,19.6504,19.5667,19.4934,19.5657,19.6799,19.8368,19.9899,19.8757,19.4058,19.8063,20.0071,19.8644,20.1355,20.3201,20.3058,20.3792,20.4658,20.5372,20.6218,20.7206,20.8776,21.0367,21.1508,21.1752,21.3985,21.5709,21.5676,21.7251,21.896,22.0488,22.1066,22.0869,22.0235,21.8978,21.7841,21.7007,21.756,21.8027,21.7518,21.7109,21.6253,21.4883,21.3269,21.2112,21.1936,21.0853,21.0065,21.0065,20.9934,21.0443,21.1725,21.1479,21.1496,21.2777,21.3205,21.2811,21.2153,21.0427,20.9112,19.1775,19.1785,19.1775,19.1775,19.1642,19.1062,18.9359,18.7085,18.7094,18.7799,18.9102,19.0653,19.1499,19.1775,19.1775,19.1927,19.2213,19.3507,19.4943,19.6523,19.8359,20.0632,20.2905,20.3629,20.5066,20.7227,20.7951,20.9368,21.1508,21.2507,21.422,21.6636,21.7349,21.8205,21.9369,0.0,0.0,0.0,21.4067,21.3364,21.3353,21.1794,21.0214,20.8369,20.9215,0.0,20.5647,20.5219,20.4505,20.3476,20.1926,0.0,0.0,0.0,0.0,0.0,0.0,0.0,0.0,0.0,0.0,0.0,19.2498,19.1204,18.564,19.2213,19.5638,19.2365,19.6941,19.9938,19.9367,20.0081,20.0795,20.109,20.2487,20.3608,20.3904,20.6228,20.738,20.6075,20.95,21.1641,21.0885,21.2432,21.4462,21.6159,21.6875,21.6991,21.62,21.4446,21.3466,21.381,21.4867,21.5921,21.632,21.5068,21.3853,21.2734,21.0629,20.9136,20.8765,20.7684,20.6893,20.6903,20.6986,20.7349,20.8849,20.8175,20.806,20.9227,20.8717,20.755,20.6761,20.7007,20.7402,18.8503,18.8512,18.8512,18.8512,18.8369,18.5658,18.424,18.3955,18.3955,18.3955,18.4249,18.5782,18.7361,18.8512,18.8503,18.9368,19.0672,19.0824,19.1804,19.3354,19.6238,19.7807,19.8236,20.0947,20.1784,20.106,20.3629,20.4352,20.3649,20.7665,20.9959,21.052,21.3089,21.4506,21.4516,21.0652,20.9785,21.2058,21.1926,21.1773,21.1783,21.0234,20.794,20.5056,20.3781,20.2354,20.0632,19.9225,19.9072,20.0061,19.8806,19.7807,19.7522,19.6095,19.266,0.0,18.5106,0.0,0.0,0.0,0.0,0.0,0.0,0.0,0.0,18.5069,18.5497,18.0967,18.8645,19.2774,18.9949,19.3507,19.6371,19.7665,19.9215,20.0775,20.2079,20.265,20.2803,20.265,20.4342,20.6054,20.7217,20.7603,20.9111,21.1615,21.0936,20.9335,20.8155,20.8624,20.9435,21.0424,21.1842,21.2638,21.2562,21.1535,21.0127,20.9175,20.7521,20.6404,20.5367,20.4169,20.339,20.3641,20.3628,20.4181,20.5854,20.5988,20.6399,20.7435,20.7336,20.6069,20.3421,20.3915,20.5808,18.5391,18.5382,18.5382,18.4374,18.267,18.2233,18.1957,18.1948,18.1948,18.1948,18.2081,18.2795,18.3936,18.5382,18.6229,18.7076,18.7789,18.953,19.0662,19.1509,19.3649,19.5219,19.6085,19.737,19.8654,19.9633,20.105,20.1774,20.2069,20.4087,20.5657,20.6493,20.7767,20.6778,20.3506,20.2232,20.266,20.4913,20.4077,20.4077,20.4913,20.422,20.3211,20.1764,20.1926,20.0795,19.8368,19.8501,19.8501,19.8368,19.7675,19.6105,19.3535,19.0243,18.639,0.0,0.0,0.0,0.0,0.0,0.0,0.0,0.0,0.0,0.0,0.0,17.6516,17.9664,18.7647,18.992,18.3393,18.697,19.0101,19.0833,18.9949,19.1652,19.7502,19.736,19.7502,19.9235,20.1508,20.2925,20.2925,20.3639,20.4933,20.7186,20.4444,20.2326,20.2611,20.3883,20.5153,20.6265,20.7753,20.8618,20.8162,20.6836,20.5132,20.3668,20.2226,20.0938,19.9978,19.8731,19.825,19.9062,19.9211,19.9743,20.1525,20.2404,20.2786,20.2891,20.161,20.0081,19.8922,19.9864,20.1221,18.2108,18.1966,17.9682,17.7675,17.582,17.7105,17.8095,17.8657,17.8666,17.8942,17.937,17.9656,17.9798,17.9959,18.0797,18.1787,18.2919,18.5658,18.7389,18.8245,19.051,19.2213,19.3364,19.4078,19.5495,19.735,19.7778,19.8492,19.9796,20.0509,20.107,20.1478,20.0765,19.8206,19.4087,19.4658,19.6371,19.9062,19.7512,19.7655,19.95,19.9633,19.9633,19.9633,20.0071,19.9235,19.6799,19.7217,19.6941,19.5667,19.4535,19.1956,18.7674,18.2679,0.0,0.0,0.0,0.0,0.0,0.0,0.0,0.0,0.0,16.5378,15.5968,0.0,16.7963,0.0,18.3642,18.5497,17.9254,18.1832,0.0,0.0,18.1529,18.2804,19.0225,19.1081,19.207,19.481,19.8093,19.9938,19.9205,20.0081,20.1223,20.1906,19.8644,19.6941,19.8787,19.9796,20.0797,20.2489,20.382,20.4382,20.4009,20.2944,20.1612,19.9398,19.8131,19.7101,19.6209,19.4982,19.4609,19.5571,19.5751,19.6117,19.7538,19.8453,19.8573,19.7114,19.5543,19.4443,19.5188,19.5684,19.6421,17.8986,17.8273,16.9532,16.6687,16.7694,16.7837,16.9541,17.2101,17.2244,17.3083,17.4492,17.5794,17.4224,17.0229,16.8819,0.0,17.4778,17.6507,17.8799,18.1939,18.6229,18.836,18.8645,19.1499,19.2213,19.109,19.2498,19.3202,19.3488,19.6238,19.6228,19.3497,19.0643,18.9796,19.0529,18.9368,19.1661,19.7379,19.5942,19.6646,19.948,19.9633,19.9633,19.9643,19.6932,19.5362,19.5086,19.2527,19.0966,19.0814,18.6675,18.2965,17.9691,0.0,0.0,0.0,0.0,0.0,0.0,0.0,0.0,0.0,0.0,0.0,0.0,0.0,0.0,16.3364,17.064,0.0,17.8407,17.8826,0.0,0.0,0.0,17.7372,17.9691,18.3651,18.6781,18.8512,0.0,0.0,19.7379,19.7522,19.7237,19.5933,19.4211,19.4068,19.7094,19.638,19.6627,19.9431,20.0134,20.0544,20.1265,20.1189,20.0278,19.864,19.8037,19.7165,19.6141,19.5114,19.4823,19.5145,19.4451,19.3937,19.4341,19.4447,19.3678,19.1211,19.227,19.3247,19.2493,19.2548,19.3169,16.8122,16.2548,15.7815,15.6824,15.8417,15.9274,16.2556,16.7249,16.7241,16.6527,16.5394,16.5965,16.3095,15.7791,15.8116,0.0,0.0,0.0,17.1245,17.5383,17.9085,18.2376,18.5239,18.7352,18.8503,18.895,19.0519,19.0795,18.993,19.2926,18.8664,17.7533,0.0,18.0235,17.9102,18.3089,18.68,19.0082,19.0653,19.1804,19.3944,19.4924,19.5923,19.6646,19.3802,19.2099,19.2089,19.0957,18.8959,18.6247,18.3384,17.8817,0.0,0.0,0.0,0.0,0.0,0.0,0.0,0.0,0.0,0.0,0.0,14.7984,14.142,0.0,0.0,0.0,15.4684,15.7109,16.1097,16.6678,0.0,0.0,0.0,0.0,0.0,0.0,0.0,17.8924,18.4374,18.8797,19.1376,19.2527,19.2527,19.0938,19.1785,19.2793,19.3088,0.0,19.4068,19.52,19.6208,19.6917,19.707,19.6279,19.6027,19.6442,19.57,19.4667,19.3685,19.2678,19.2415,19.3081,19.2754,19.2208,19.24,19.124,19.0222,19.0175,19.0566,19.0737,19.039,19.0565,19.0946,15.527,0.0,0.0,0.0,0.0,14.9997,15.3407,15.8402,15.8402,15.7403,15.5698,15.5682,0.0,0.0,0.0,0.0,0.0,0.0,16.4118,16.8248,17.3671,17.7943,18.1243,18.2795,18.4365,18.5934,18.7094,18.6818,18.523,18.4365,17.7221,16.4554,0.0,0.0,0.0,0.0,18.2519,18.4926,18.6933,18.8797,19.0253,19.1366,19.2784,19.4211,19.1661,19.0091,18.9673,18.7826,18.482,18.0093,17.6231,0.0,0.0,0.0,0.0,0.0,0.0,0.0,0.0,0.0,0.0,0.0,0.0,0.0,0.0,0.0,0.0,0.0,0.0,0.0,14.8668,15.581,15.9519,0.0,0.0,0.0,0.0,0.0,0.0,0.0,0.0,0.0,18.2519,18.5096,18.6961,0.0,0.0,19.0082,19.0243,19.05,19.0776,19.1204,19.1927,0.0,19.1249,19.1068,19.1394,19.2775,19.2984,19.2215,19.0541,18.9983,19.0013,19.066,19.0283,18.9842,18.9741,18.8083,18.6916,18.7434,18.728,18.705,18.7326,18.8011,18.8531,0.0,0.0,0.0,0.0,13.8973,0.0,0.0,0.0,14.4145,14.4852,0.0,14.5965,0.0,0.0,0.0,0.0,14.2126,15.1003,0.0,0.0,17.0808,17.6079,17.6231,17.7809,17.9522,18.1082,18.1091,18.0244,17.8121,16.824,0.0,0.0,0.0,0.0,0.0,0.0,17.8657,18.3241,18.6362,18.8655,19.0243,19.0386,19.109,19.2489,19.1081,18.952,18.7799,18.2108,17.6837,17.1967,16.3253,0.0,0.0,0.0,0.0,0.0,0.0,0.0,0.0,0.0,0.0,0.0,0.0,0.0,0.0,0.0,0.0,0.0,0.0,0.0,0.0,14.8661,0.0,0.0,0.0,0.0,0.0,0.0,0.0,0.0,0.0,17.4652,17.0372,17.5089,18.0521,18.4926,0.0,0.0,0.0,0.0,18.6344,18.7941,18.6933,18.5488,18.4079,18.621,18.7906,18.7583,0.0,0.0,18.7402,18.7781,18.8254,18.7233,18.7225,18.6786,18.5865,18.411,18.2606,18.154,18.1597,18.2149,18.3185,18.4069,18.5588,0.0,0.0,0.0,0.0,0.0,0.0,0.0,0.0,0.0,13.6276,13.4991,13.4998,0.0,0.0,0.0,0.0,0.0,0.0,0.0,0.0,15.7268,16.1826,16.1256,16.7686,16.9549,16.7257,16.7115,16.4261,0.0,0.0,0.0,0.0,0.0,0.0,0.0,0.0,17.4947,17.8666,18.3794,18.7218,18.8655,18.8797,18.8503,18.8065,18.8503,18.5096,17.7381,17.3117,16.9255,0.0,0.0,0.0,0.0,0.0,0.0,0.0,0.0,0.0,0.0,0.0,0.0,0.0,0.0,0.0,0.0,0.0,0.0,0.0,0.0,0.0,0.0,0.0,14.6828,0.0,0.0,0.0,0.0,0.0,0.0,0.0,0.0,0.0,16.0415,16.7249,17.3368,17.6088,17.9513,18.2376,18.3955,0.0,0.0,0.0,0.0,0.0,0.0,0.0,18.3932,18.5374,18.4161,18.3015,18.342,18.4856,18.5756,18.5333,0.0,0.0,17.84,17.529,17.4179,17.5709,17.5501,17.5678,17.7088,17.8297,17.9428,0.0,0.0,0.0,0.0,0.0,0.0,0.0,0.0,0.0,12.643,12.4568,0.0,0.0,0.0,0.0,0.0,0.0,0.0,0.0,0.0,0.0,0.0,15.0695,15.6824,0.0,0.0,0.0,0.0,0.0,0.0,0.0,0.0,0.0,0.0,0.0,0.0,17.0959,17.4661,18.1359,18.5363,18.6372,18.5934,18.5078,18.407,18.5078,18.1234,17.1664,0.0,0.0,0.0,0.0,0.0,0.0,0.0,0.0,0.0,0.0,0.0,0.0,0.0,0.0,0.0,0.0,0.0,0.0,0.0,0.0,0.0,0.0,0.0,0.0,0.0,14.0128,0.0,0.0,0.0,0.0,0.0,0.0,0.0,0.0,0.0,0.0,15.8402,16.4958,16.8668,17.3662,17.7506,17.9076,17.8933,17.8933,0.0,0.0,0.0,0.0,0.0,0.0,0.0,0.0,0.0,0.0,0.0,0.0,0.0,0.0,17.7448,17.0295,16.7132,16.6032,16.7616,0.0,0.0,0.0,0.0,0.0,0.0,0.0,0.0,0.0,0.0,0.0,0.0,0.0,0.0,0.0,11.4997,0.0,0.0,11.7333,0.0,0.0,0.0,0.0,0.0,0.0,0.0,0.0,0.0,0.0,0.0,0.0,0.0,0.0,0.0,0.0,0.0,0.0,0.0,0.0,0.0,0.0,16.667,17.1388,17.9102,18.3089,18.325,18.1805,18.094,18.094,18.094,17.7952,17.1388,0.0,0.0,0.0,0.0,0.0,0.0,0.0,0.0,0.0,0.0,0.0,0.0,0.0,0.0,0.0,0.0,0.0,0.0,0.0,0.0,0.0,0.0,0.0,0.0,0.0,0.0,13.0289,13.372,13.7574,0.0,0.0,0.0,0.0,0.0,0.0,0.0,0.0,0.0,16.3245,16.709,17.08,17.5366,17.4778,17.3922,17.3922,17.2512,17.0959,16.9658,17.179,17.3217,0.0,0.0,0.0,0.0,0.0,0.0,0.0,0.0,0.0,0.0,0.0,0.0,0.0,0.0,0.0,0.0,0.0,0.0,0.0,0.0,0.0,0.0,0.0,0.0,0.0,0.0,0.0,0.0,0.0,0.0,0.0,0.0,0.0,0.0,0.0,0.0,0.0,0.0,0.0,0.0,0.0,0.0,0.0,0.0,0.0,0.0,0.0,0.0,0.0,0.0,0.0,0.0,0.0,0.0,16.2397,16.8105,17.4812,17.8817,17.9825,17.9388,17.8657,17.7649,17.8666,17.5677,0.0,0.0,0.0,0.0,0.0,0.0,0.0,0.0,0.0,0.0,0.0,0.0,0.0,0.0,0.0,0.0,0.0,0.0,0.0,0.0,0.0,0.0,0.0,0.0,0.0,0.0,0.0,0.0,13.6412,13.7838,13.7716,0.0,0.0,0.0,0.0,0.0,0.0,0.0,0.0,0.0,0.0,16.8391,17.0791,17.1799,17.2227,17.2093,17.08,16.9658,16.923,16.9935,17.0363,16.9944,0.0,0.0,0.0,0.0,0.0,0.0,0.0,0.0,0.0,0.0,0.0,0.0,0.0,0.0,0.0,0.0,0.0,0.0,0.0,0.0,0.0,0.0,0.0,0.0,0.0,0.0,0.0,0.0,0.0,0.0,0.0,0.0,0.0,0.0,0.0,0.0,0.0,0.0,0.0,0.0,0.0,0.0,0.0,0.0,0.0,0.0,0.0,0.0,0.0,0.0,0.0,0.0,0.0,15.8687,16.4958,17.2235,17.6507,17.7524,17.6944,17.566,17.3511,17.4947,17.1253,0.0,0.0,0.0,0.0,0.0,0.0,0.0,0.0,0.0,0.0,0.0,0.0,0.0,0.0,0.0,0.0,0.0,0.0,0.0,0.0,0.0,0.0,0.0,0.0,0.0,0.0,0.0,0.0,13.1139,13.3272,13.3571,0.0,0.0,0.0,0.0,0.0,0.0,0.0,0.0,0.0,0.0,16.3119,16.5251,16.7963,0.0,0.0,16.8391,16.7375,16.7375,16.7812,16.7677,16.5814,16.4958,0.0,0.0,0.0,0.0,0.0,0.0,0.0,0.0,0.0,0.0,0.0,0.0,0.0,0.0,0.0,0.0,0.0,0.0,0.0,0.0,0.0,0.0,0.0,0.0,0.0,0.0,0.0,0.0,0.0,0.0,0.0,0.0,0.0,0.0,0.0,0.0,0.0,0.0,0.0,0.0,0.0,0.0,0.0,0.0,0.0,0.0,0.0,0.0,0.0,0.0,0.0,0.0,15.5547,16.166,17.0942,17.5509,17.5651,17.4216,17.2067,16.9222,17.038,16.5394,0.0,0.0,0.0,0.0,0.0,0.0,0.0,0.0,0.0,0.0,0.0,0.0,0.0,0.0,0.0,0.0,0.0,0.0,0.0,0.0,0.0,0.0,0.0,0.0,0.0,0.0,0.0,0.0,0.0,0.0,0.0,0.0,0.0,0.0,0.0,0.0,0.0,0.0,0.0,0.0,0.0,15.6149,15.9559,16.3555,16.6267,0.0,16.4966,16.3967,16.3824,16.5117,16.4705,16.0265,0.0,0.0,0.0,0.0,0.0,0.0,0.0,0.0,0.0,0.0,0.0,0.0,0.0,0.0,0.0,0.0,0.0,0.0,0.0,0.0,0.0,0.0,0.0,0.0,0.0,0.0,0.0,0.0,0.0,0.0,0.0,0.0,0.0,0.0,0.0,0.0,0.0,0.0,0.0,0.0,0.0,0.0,0.0,0.0,0.0,0.0,0.0,0.0,0.0,0.0,0.0,0.0,0.0,0.0,15.6998,16.6108,17.0942,17.0791,17.0506,16.9927,16.9079,16.8399,0.0,0.0,0.0,0.0,0.0,0.0,0.0,0.0,0.0,0.0,0.0,0.0,0.0,0.0,0.0,0.0,0.0,0.0,0.0,0.0,0.0,0.0,0.0,0.0,0.0,0.0,0.0,11.132,0.0,0.0,0.0,0.0,0.0,0.0,0.0,0.0,0.0,0.0,0.0,0.0,0.0,0.0,15.5412,16.082,16.1541,16.1557,0.0,0.0,15.883,15.7711,15.8695,15.8964,0.0,0.0,0.0,0.0,0.0,0.0,0.0,0.0,0.0,0.0,0.0,0.0,0.0,0.0,0.0,0.0,0.0,0.0,0.0,0.0,0.0,0.0,0.0,0.0,0.0,0.0,0.0,0.0,0.0,0.0,0.0,0.0,0.0,0.0,0.0,0.0,0.0,0.0,0.0,0.0,0.0,0.0,0.0,0.0,0.0,0.0,0.0,0.0,0.0,0.0,0.0,0.0,0.0,0.0,14.8339,15.4311,16.1367,16.6385,16.8936,16.9079,16.8517,16.709,16.7526,16.2833,0.0,0.0,0.0,0.0,0.0,0.0,0.0,0.0,0.0,0.0,0.0,0.0,0.0,0.0,0.0,0.0,0.0,0.0,0.0,0.0,0.0,0.0,0.0,0.0,0.0,0.0,0.0,0.0,0.0,0.0,0.0,0.0,0.0,0.0,0.0,0.0,0.0,0.0,0.0,0.0,0.0,0.0,15.6507,15.7403,0.0,0.0,0.0,15.4255,15.4128,0.0,0.0,0.0,0.0,0.0,0.0,0.0,0.0,0.0,0.0,0.0,0.0,0.0,0.0,0.0,0.0,0.0,0.0,0.0,0.0,0.0,0.0,0.0,0.0,0.0,0.0,0.0,0.0,0.0,0.0,0.0,0.0,0.0,0.0,0.0,0.0,0.0,0.0,0.0,0.0,0.0,0.0,0.0,0.0,0.0,0.0,0.0,0.0,0.0,0.0,0.0,0.0,0.0,0.0,0.0,0.0,0.0,15.2375,15.7643,16.296,16.8223,16.8651,16.7384,16.4815,16.709,16.1945,0.0,0.0,0.0,0.0,0.0,0.0,0.0,0.0,0.0,0.0,0.0,0.0,0.0,0.0,0.0,0.0,0.0,0.0,0.0,0.0,0.0,0.0,0.0,0.0,0.0,0.0,0.0,0.0,0.0,0.0,0.0,0.0,0.0,0.0,0.0,0.0,0.0,0.0,0.0,0.0,0.0,14.9374,14.9952,15.2123,15.2708,0.0,0.0,14.981,15.1417,15.1552,0.0,0.0,0.0,0.0,0.0,0.0,0.0,0.0,0.0,0.0,0.0,0.0,0.0,0.0,0.0,0.0,0.0,0.0,0.0,0.0,0.0,0.0,0.0,0.0,0.0,0.0,0.0,0.0,0.0,0.0,0.0,0.0,0.0,0.0,0.0,0.0,0.0,0.0,0.0,0.0,0.0,0.0,0.0,0.0,0.0,0.0,0.0,0.0,0.0,0.0,0.0,0.0,0.0,0.0,0.0,0.0,14.774,15.8122,16.4102,16.5251,16.5378,16.5679,16.6258,16.4521,15.9226,0.0,0.0,0.0,0.0,0.0,0.0,0.0,0.0,0.0,0.0,0.0,0.0,0.0,0.0,0.0,0.0,0.0,0.0,0.0,0.0,0.0,0.0,0.0,0.0,0.0,0.0,0.0,0.0,0.0,0.0,0.0,0.0,0.0,0.0,0.0,0.0,0.0,0.0,0.0,0.0,0.0,14.411,14.7841,14.6857,0.0,0.0,0.0,0.0,14.4995,14.4138,0.0,0.0,0.0,0.0,0.0,0.0,0.0,0.0,0.0,0.0,0.0,0.0,0.0,0.0,0.0,0.0,0.0,0.0,0.0,0.0,0.0,0.0,0.0,0.0,0.0,0.0,0.0,0.0,0.0,0.0,0.0,0.0,0.0,0.0,0.0,0.0,0.0,0.0,0.0,0.0,0.0,0.0,0.0,0.0,0.0,0.0,0.0,0.0,0.0,0.0,0.0,0.0,0.0,0.0,0.0,0.0,14.8412,15.5319,16.0685,16.4252,16.4395,16.4538,16.4538,16.3673,15.8386,0.0,0.0,0.0,0.0,0.0,0.0,0.0,0.0,0.0,0.0,0.0,0.0,0.0,0.0,0.0,0.0,0.0,0.0,0.0,0.0,0.0,0.0,0.0,0.0,0.0,0.0,0.0,0.0,0.0,0.0,0.0,0.0,0.0,0.0,0.0,0.0,0.0,0.0,0.0,0.0,13.7995,14.0978,14.4124,0.0,0.0,0.0,0.0,0.0,0.0,13.8994,13.8002,0.0,0.0,0.0,0.0,0.0,0.0,0.0,0.0,0.0,0.0,0.0,0.0,0.0,0.0,0.0,0.0,0.0,0.0,0.0,0.0,0.0,0.0,0.0,0.0,0.0,0.0,0.0,0.0,0.0,0.0,0.0,0.0,0.0,0.0,0.0,0.0,0.0,0.0,0.0,0.0,0.0,0.0,0.0,0.0,0.0,0.0,0.0,0.0,0.0,0.0,0.0,0.0,0.0,0.0,0.0,14.8961,15.1117,15.5813,16.3111,16.3245,16.2952,16.223,16.3103,15.768,14.5251,0.0,0.0,0.0,0.0,0.0,0.0,0.0,0.0,0.0,0.0,0.0,0.0,0.0,0.0,0.0,0.0,0.0,0.0,0.0,0.0,0.0,0.0,0.0,0.0,0.0,0.0,0.0,0.0,0.0,0.0,0.0,0.0,0.0,0.0,0.0,0.0,0.0,0.0,0.0,13.4725,13.7546,0.0,0.0,0.0,0.0,0.0,0.0,0.0,0.0,13.4454,0.0,0.0,0.0,0.0,0.0,0.0,0.0,0.0,0.0,0.0,0.0,0.0,0.0,0.0,0.0,0.0,0.0,0.0,0.0,0.0,0.0,0.0,0.0,0.0,0.0,0.0,0.0,0.0,0.0,0.0,0.0,0.0,0.0,0.0,0.0,0.0,0.0,0.0,0.0,0.0,0.0,0.0,0.0,0.0,0.0,0.0,0.0,0.0,0.0,0.0,0.0,0.0,0.0,0.0,0.0,0.0,14.6858,15.2353,15.8282,15.8536,15.967,16.2088,16.1105,15.397,14.0257,0.0,0.0,0.0,0.0,0.0,0.0,0.0,0.0,0.0,0.0,0.0,0.0,0.0,0.0,0.0,0.0,0.0,0.0,0.0,0.0,0.0,0.0,0.0,0.0,0.0,0.0,0.0,0.0,0.0,0.0,0.0,0.0,0.0,0.0,0.0,0.0,0.0,0.0,11.8278,12.5608,0.0,0.0,0.0,0.0,0.0,0.0,0.0,0.0,13.3571,0.0,0.0,0.0,0.0,0.0,0.0,0.0,0.0,0.0,0.0,0.0,0.0,0.0,0.0,0.0,0.0,0.0,0.0,0.0,0.0,0.0,0.0,0.0,0.0,0.0,0.0,0.0,0.0,0.0,0.0,0.0,0.0,0.0,0.0,0.0,0.0,0.0,0.0,0.0,0.0,0.0,0.0,0.0,0.0,0.0,0.0,0.0,0.0,0.0,0.0,0.0,0.0,0.0,0.0,0.0,0.0,0.0,0.0,15.2039,15.8433,15.8679,15.8972,15.9393,15.5094,14.8254,0.0,0.0,0.0,0.0,0.0,0.0,0.0,0.0,0.0,0.0,0.0,0.0,0.0,0.0,0.0,0.0,0.0,0.0,0.0,0.0,0.0,0.0,0.0,0.0,0.0,0.0,0.0,0.0,0.0,0.0,0.0,0.0,0.0,0.0,0.0,0.0,0.0,0.0,0.0,0.0,0.0,0.0,0.0,0.0,0.0,0.0,0.0,0.0,0.0,0.0,0.0,0.0,0.0,0.0,0.0,0.0,0.0,0.0,0.0,0.0,0.0,0.0,0.0,0.0,0.0,0.0,0.0,0.0,0.0,0.0,0.0,0.0,0.0,0.0,0.0,0.0,0.0,0.0,0.0,0.0,0.0,0.0,0.0,0.0,0.0,0.0,0.0,0.0,0.0,0.0,0.0,0.0,0.0,0.0,0.0,0.0,0.0,0.0,0.0,0.0,0.0,0.0,0.0,0.0,0.0,0.0,0.0,0.0,15.0523,15.7021,15.7275,15.6832,15.596,14.8935,14.281,0.0,0.0,0.0,0.0,0.0,0.0,0.0,0.0,0.0,0.0,0.0,0.0,0.0,0.0,0.0,0.0,0.0,0.0,0.0,0.0,0.0,0.0,0.0,0.0,0.0,0.0,0.0,0.0,0.0,0.0,0.0,0.0,0.0,0.0,0.0,0.0,0.0,0.0,0.0,0.0,0.0,0.0,0.0,0.0,0.0,0.0,0.0,0.0,12.7286,0.0,0.0,0.0,0.0,0.0,0.0,0.0,0.0,0.0,0.0,0.0,0.0,0.0,0.0,0.0,0.0,0.0,0.0,0.0,0.0,0.0,0.0,0.0,0.0,0.0,0.0,0.0,0.0,0.0,0.0,0.0,0.0,0.0,0.0,0.0,0.0,0.0,0.0,0.0,0.0,0.0,0.0,0.0,0.0,0.0,0.0,0.0,0.0,0.0,0.0,0.0,0.0,0.0,0.0,0.0,0.0,0.0,0.0,0.0,14.4112,14.902,14.9126,14.9689,15.0801,14.4873,13.9314,0.0,0.0,0.0,0.0,0.0,0.0,0.0,0.0,0.0,0.0,0.0,0.0,0.0,0.0,0.0,0.0,0.0,0.0,0.0,0.0,0.0,0.0,0.0,0.0,0.0,0.0,0.0,0.0,0.0,0.0,0.0,0.0,0.0,0.0,0.0,0.0,0.0,0.0,0.0,0.0,0.0,0.0,0.0,0.0,0.0,0.0,0.0,0.0,0.0,0.0,0.0,0.0,0.0,0.0,0.0,0.0,0.0,0.0,0.0,0.0,0.0,0.0,0.0,0.0,0.0,0.0,0.0,0.0,0.0,0.0,0.0,0.0,0.0,0.0,0.0,0.0,0.0,0.0,0.0,0.0,0.0,0.0,0.0,0.0,0.0,0.0,0.0,0.0,0.0,0.0,0.0,0.0,0.0,0.0,0.0,0.0,0.0,0.0,0.0,0.0,0.0,0.0,0.0,0.0,0.0,0.0,0.0,0.0,13.9934,14.6881,14.7559,14.6274,14.3014,13.7695,13.3556,0.0,0.0,0.0,0.0,0.0,0.0,0.0,0.0,0.0,0.0,0.0,0.0,0.0,0.0,0.0,0.0,0.0,0.0,0.0,0.0,0.0,0.0,0.0,0.0,0.0,0.0,0.0,0.0,0.0,0.0,0.0,0.0,0.0,0.0,0.0,0.0,0.0,0.0,0.0,0.0,0.0,0.0,0.0,0.0,0.0,0.0,0.0,0.0,0.0,0.0,0.0,0.0,0.0,0.0,0.0,0.0,0.0,0.0,0.0,0.0,0.0,0.0,0.0,0.0,0.0,0.0,0.0,0.0,0.0,0.0,0.0,0.0,0.0,0.0,0.0,0.0,0.0,0.0,0.0,0.0,0.0,0.0,0.0,0.0,0.0,0.0,0.0,0.0,0.0,0.0,0.0,0.0,0.0,0.0,0.0,0.0,0.0,0.0,0.0,0.0,0.0,0.0,0.0,0.0,0.0,0.0,0.0,0.0,0.0,14.2593,14.4339,14.2423,13.7002,13.1822,12.8295,0.0,0.0,0.0,0.0,0.0,0.0,0.0,0.0,0.0,0.0,0.0,0.0,0.0,0.0,0.0,0.0,0.0,0.0,0.0,0.0,0.0,0.0,0.0,0.0,0.0,0.0,0.0,0.0,0.0,0.0,0.0,0.0,0.0,0.0,0.0,0.0,0.0,0.0,0.0,0.0,0.0,0.0,0.0,0.0,0.0,0.0,0.0,0.0,0.0,0.0,0.0,0.0,0.0,0.0,0.0,0.0,0.0,0.0,0.0,0.0,0.0,0.0,0.0,0.0,0.0,0.0,0.0,0.0,0.0,0.0,0.0,0.0,0.0,0.0,0.0,0.0,0.0,0.0,0.0,0.0,0.0,0.0,0.0,0.0,0.0,0.0,0.0,0.0,0.0,0.0,0.0,0.0,0.0,0.0,0.0,0.0,0.0,0.0,0.0,0.0,0.0,0.0,0.0,0.0,0.0,0.0,0.0,0.0,0.0,13.3831,13.6388,13.6658,13.4524,12.8619,12.4171,0.0,0.0,0.0,0.0,0.0,0.0,0.0,0.0,0.0,0.0,0.0,0.0,0.0,0.0,0.0,0.0,0.0,0.0,0.0,0.0,0.0,0.0,0.0,0.0,0.0,0.0,0.0,0.0,0.0,0.0,0.0,0.0,0.0,0.0,0.0,0.0,0.0,0.0,0.0,0.0,0.0,0.0,0.0,0.0,0.0,0.0,0.0,0.0,0.0,0.0,0.0,0.0,0.0,0.0,0.0,0.0,0.0,0.0,0.0,0.0,0.0,0.0,0.0,0.0,0.0,0.0,0.0,0.0,0.0,0.0,0.0,0.0,0.0,0.0,0.0,0.0,0.0,0.0,0.0,0.0,0.0,0.0,0.0,0.0,0.0,0.0,0.0,0.0,0.0,0.0,0.0,0.0,0.0,0.0,0.0,0.0,0.0,0.0,0.0,0.0,0.0,0.0,0.0,0.0,0.0,0.0,0.0,0.0,0.0,12.1498,12.4453,12.6462,12.7263,12.185,11.9552,12.0379,0.0,0.0,0.0,0.0,0.0,0.0,0.0,0.0,0.0,0.0,0.0,0.0,0.0,0.0,0.0,0.0,0.0,0.0,0.0,0.0,0.0,0.0,0.0,0.0,0.0,0.0,0.0,0.0,0.0,0.0,0.0,0.0,0.0,0.0,0.0,0.0,0.0,0.0,0.0,0.0,0.0,0.0,0.0,0.0,0.0,0.0,0.0,0.0,0.0,0.0,0.0,0.0,0.0,0.0,0.0,0.0,0.0,0.0,0.0,0.0,0.0,0.0,0.0,0.0,0.0,0.0,0.0,0.0,0.0,0.0,0.0,0.0,0.0,0.0,0.0,0.0,0.0,0.0,0.0,0.0,0.0,0.0,0.0,0.0,0.0,0.0,0.0,0.0,0.0,0.0,0.0,0.0,0.0,0.0,0.0,0.0,0.0,0.0,0.0,0.0,0.0,0.0,0.0,0.0,0.0,0.0,0.0,0.0,11.5508,11.9212,12.1412,12.1905,11.8098,11.6167,0.0,0.0,0.0,0.0,0.0,0.0,0.0,0.0,0.0,0.0,0.0,0.0,0.0,0.0,0.0,0.0,0.0,0.0,0.0,0.0,0.0,0.0,0.0,0.0,0.0,0.0,0.0,0.0,0.0,0.0,0.0,0.0,0.0,0.0,0.0,0.0,0.0,0.0,0.0,0.0,0.0,0.0,0.0,0.0,0.0,0.0,0.0,0.0,0.0,0.0,0.0,0.0,0.0,0.0,0.0,0.0,0.0,0.0,0.0,0.0,0.0,0.0,0.0,0.0,0.0,0.0,0.0,0.0,0.0,0.0,0.0,0.0,0.0,0.0,0.0,0.0,0.0,0.0,0.0,0.0,0.0,0.0,0.0,0.0,0.0,0.0,0.0,0.0,0.0,0.0,0.0,0.0,0.0,0.0,0.0,0.0,0.0,0.0,0.0,0.0,0.0,0.0,0.0,0.0,0.0,0.0,0.0,0.0,11.1386,11.781,12.2096,12.274,12.0056,11.8352,11.4785,0.0,0.0,0.0,0.0,0.0,0.0,0.0,0.0,0.0,0.0,0.0,0.0,0.0,0.0,0.0,0.0,0.0,0.0,0.0,0.0,0.0,0.0,0.0,0.0,0.0,0.0,0.0,0.0,0.0,0.0,0.0,0.0,0.0,0.0,0.0,0.0,0.0,0.0,0.0,0.0,0.0,0.0,0.0,0.0,0.0,0.0,0.0,0.0,0.0,0.0,0.0,0.0,0.0,0.0,0.0,0.0,0.0,0.0,0.0,0.0,0.0,0.0,0.0,0.0,0.0,0.0,0.0,0.0,0.0,0.0,0.0,0.0,0.0,0.0,0.0,0.0,0.0,0.0,0.0,0.0,0.0,0.0,0.0,0.0,0.0,0.0,0.0,0.0,0.0,0.0,0.0,0.0,0.0,0.0,0.0,0.0,0.0,0.0,0.0,0.0,0.0,0.0,0.0,0.0,0.0,0.0,0.0,0.0,0.0,11.0861,0.0,11.7695,0.0,11.6152,11.3578,0.0,0.0,0.0,0.0,0.0,0.0,0.0,0.0,0.0,0.0,0.0,0.0,0.0,0.0,0.0,0.0,0.0,0.0,0.0,0.0,0.0,0.0,0.0,0.0,0.0,0.0,0.0,0.0,0.0,0.0,0.0,0.0,0.0,0.0,0.0,0.0,0.0,0.0,0.0,0.0,0.0,0.0,0.0,0.0,0.0,0.0,0.0,0.0,0.0,0.0,0.0,0.0,0.0,0.0,0.0,0.0,0.0,0.0,0.0,0.0,0.0,0.0,0.0,0.0,0.0,0.0,0.0,0.0,0.0,0.0,0.0,0.0,0.0,0.0,0.0,0.0,0.0,0.0,0.0,0.0,0.0,0.0,0.0,0.0,0.0,0.0,0.0,0.0,0.0,0.0,0.0,0.0,0.0,0.0,0.0,0.0,0.0,0.0,0.0,0.0,0.0,0.0,0.0,0.0,0.0,0.0,0.0,0.0,0.0,10.897,11.0434,11.3803,11.9228,11.5675,11.348,0.0,0.0,0.0,0.0,0.0,0.0,0.0,0.0,0.0,0.0,0.0,0.0,0.0,0.0,0.0,0.0,0.0,0.0,0.0,0.0,0.0,0.0,0.0,0.0,0.0,0.0,0.0,0.0,0.0,0.0,0.0,0.0,0.0,0.0,0.0,0.0,0.0,0.0,0.0,0.0,0.0,0.0,0.0,0.0,0.0,0.0,0.0,0.0,0.0,0.0,0.0,0.0,0.0,0.0,0.0,0.0,0.0,0.0,0.0,0.0,0.0,0.0,0.0,0.0,0.0,0.0,0.0,0.0,0.0,0.0,0.0,0.0,0.0,0.0,0.0,0.0,0.0,0.0,0.0,0.0,0.0,0.0,0.0,0.0,0.0,0.0,0.0,0.0,0.0,0.0,0.0,0.0,0.0,0.0,0.0,0.0,0.0,0.0,0.0,0.0,0.0,0.0,0.0,0.0,0.0,0.0,0.0,0.0,0.0,0.0,11.029,11.1703,11.6113,11.6408,11.4121,0.0,0.0,0.0,0.0,0.0,0.0,0.0,0.0,0.0,0.0,0.0,0.0,0.0,0.0,0.0,0.0,0.0,0.0,0.0,0.0,0.0,0.0,0.0,0.0,0.0,0.0,0.0,0.0,0.0,0.0,0.0,0.0,0.0,0.0,0.0,0.0,0.0,0.0,0.0,0.0,0.0,0.0,0.0,0.0,0.0,0.0,0.0,0.0,0.0,0.0,0.0,0.0,0.0,0.0,0.0,0.0,0.0,0.0,0.0,0.0,0.0,0.0,0.0,0.0,0.0,0.0,0.0,0.0,0.0,0.0,0.0,0.0,0.0,0.0,0.0,0.0,0.0,0.0,0.0,0.0,0.0,0.0,0.0,0.0,0.0,0.0,0.0,0.0,0.0,0.0,0.0,0.0,0.0,0.0,0.0,0.0,0.0,0.0,0.0,0.0,0.0,0.0,0.0,0.0,0.0,0.0,0.0,0.0,0.0,0.0,10.7039,0.0,10.946,10.9471,10.855,10.6982,0.0,0.0,0.0,0.0,0.0,0.0,0.0,0.0,0.0,0.0,0.0,0.0,0.0,0.0,0.0,0.0,0.0,0.0,0.0,0.0,0.0,0.0,0.0,0.0,0.0,0.0,0.0,0.0,0.0,0.0,0.0,0.0,0.0,0.0,0.0,0.0,0.0,0.0,0.0,0.0,0.0,0.0,0.0,0.0,0.0,0.0,0.0,0.0,0.0,0.0,0.0,0.0,0.0,0.0,0.0,0.0,0.0,0.0,0.0,0.0,0.0,0.0,0.0,0.0,0.0,0.0,0.0,0.0,0.0,0.0,0.0,0.0,0.0,0.0,0.0,0.0,0.0,0.0,0.0,0.0,0.0,0.0,0.0,0.0,0.0,0.0,0.0,0.0,0.0,0.0,0.0,0.0,0.0,0.0,0.0,0.0,0.0,0.0,0.0,0.0,0.0,0.0,0.0,0.0,0.0,0.0,0.0,0.0,0.0,0.0,0.0,10.7025,10.7079,10.651,0.0,0.0,0.0,0.0,0.0,0.0,0.0,0.0,0.0,0.0,0.0,0.0,0.0,0.0,0.0,0.0,0.0,0.0,0.0,0.0,0.0,0.0,0.0,0.0,0.0,0.0,0.0,0.0,0.0,0.0,0.0,0.0,0.0,0.0,0.0,0.0,0.0,0.0,0.0,0.0,0.0,0.0,0.0,0.0,0.0,0.0,0.0,0.0,0.0,0.0,0.0,0.0,0.0,0.0,0.0,0.0,0.0,0.0,0.0,0.0,0.0,0.0,0.0,0.0,0.0,0.0,0.0,0.0,0.0,0.0,0.0,0.0,0.0,0.0,0.0,0.0,0.0,0.0,0.0,0.0,0.0,0.0,0.0,0.0,0.0,0.0,0.0,0.0,0.0,0.0,0.0,0.0,0.0,0.0,0.0,0.0,0.0,0.0,0.0,0.0,0.0,0.0,0.0,0.0,0.0,0.0,0.0,0.0,0.0,0.0,0.0,10.2489,10.6466,10.7186,0.0,10.4672,0.0,0.0,0.0,0.0,0.0,0.0,0.0,0.0,0.0,0.0,0.0,0.0,0.0,0.0,0.0,0.0,0.0,0.0,0.0,0.0,0.0,0.0,0.0,0.0,0.0,0.0,0.0,0.0,0.0,0.0,0.0,0.0,0.0,0.0,0.0,0.0,0.0,0.0,0.0,0.0,0.0,0.0,0.0,0.0,0.0,0.0,0.0,0.0,0.0,0.0,0.0,0.0,0.0,0.0,0.0,0.0,0.0,0.0,0.0,0.0,0.0,0.0,0.0,0.0,0.0,0.0,0.0,0.0,0.0,0.0,0.0,0.0,0.0,0.0,0.0,0.0,0.0,0.0,0.0,0.0,0.0,0.0,0.0,0.0,0.0,0.0,0.0,0.0,0.0,0.0,0.0,0.0,0.0,0.0,0.0,0.0,0.0,0.0,0.0,0.0,0.0,0.0,0.0,0.0,0.0,0.0,0.0,0.0,0.0,0.0,0.0,0.0,10.3885,10.403,9.7888,0.0,0.0,0.0,0.0,0.0,0.0,0.0,0.0,0.0,0.0,0.0,0.0,0.0,0.0,0.0,0.0,0.0,0.0,0.0,0.0,0.0,0.0,0.0,0.0,0.0,0.0,0.0,0.0,0.0,0.0,0.0,0.0,0.0,0.0,0.0,0.0,0.0,0.0,0.0,0.0,0.0,0.0,0.0,0.0,0.0,0.0,0.0,0.0,0.0,0.0,0.0,0.0,0.0,0.0,0.0,0.0,0.0,0.0,0.0,0.0,0.0,0.0,0.0,0.0,0.0,0.0,0.0,0.0,0.0,0.0,0.0,0.0,0.0,0.0,0.0,0.0,0.0,0.0,0.0,0.0,0.0,0.0,0.0,0.0,0.0,0.0,0.0,0.0,0.0,0.0,0.0,0.0,0.0,0.0,0.0,0.0,0.0,0.0,0.0,0.0,0.0,0.0,0.0,0.0,0.0,0.0,0.0,0.0,0.0,0.0,10.0206,9.5449,10.1407,10.2125,9.6564,0.0,0.0,0.0,0.0,0.0,0.0,0.0,0.0,0.0,0.0,0.0,0.0,0.0,0.0,0.0,0.0,0.0,0.0,0.0,0.0,0.0,0.0,0.0,0.0,0.0,0.0,0.0,0.0,0.0,0.0,0.0,0.0,0.0,0.0,0.0,0.0,0.0,0.0,0.0,0.0,0.0,0.0,0.0,0.0,0.0,0.0,0.0,0.0,0.0,0.0,0.0,0.0,0.0,0.0,0.0,0.0,0.0,0.0,0.0,0.0,0.0,0.0,0.0,0.0,0.0,0.0,0.0,0.0,0.0,0.0,0.0,0.0,0.0,0.0,0.0,0.0,0.0,0.0,0.0,0.0,0.0,0.0,0.0,0.0,0.0,0.0,0.0,0.0,0.0,0.0,0.0,0.0,0.0,0.0,0.0,0.0,0.0,0.0,0.0,0.0,0.0,0.0,0.0,0.0,0.0,0.0,0.0,0.0,0.0,0.0,0.0,0.0,0.0,0.0,9.7417,0.0,0.0,0.0,0.0,0.0,0.0,0.0,0.0,0.0,0.0,0.0,0.0,0.0,0.0,0.0,0.0,0.0,0.0,0.0,0.0,0.0,0.0,0.0,0.0,0.0,0.0,0.0,0.0,0.0,0.0,0.0,0.0,0.0,0.0,0.0,0.0,0.0,0.0,0.0,0.0,0.0,0.0,0.0,0.0,0.0,0.0,0.0,0.0,0.0,0.0,0.0,0.0,0.0,0.0,0.0,0.0,0.0,0.0,0.0,0.0,0.0,0.0,0.0,0.0,0.0,0.0,0.0,0.0,0.0,0.0,0.0,0.0,0.0,0.0,0.0,0.0,0.0,0.0,0.0,0.0,0.0,0.0,0.0,0.0,0.0,0.0,0.0,0.0,0.0,0.0,0.0,0.0,0.0,0.0,0.0,0.0,0.0,0.0,0.0,0.0,0.0,0.0,0.0,0.0,0.0,0.0,0.0,0.0,0.0,0.0,0.0,0.0,0.0,0.0,0.0,0.0,0.0,0.0,0.0,0.0,0.0,0.0,0.0,0.0,0.0,0.0,0.0,0.0,0.0,0.0,0.0,0.0,0.0,0.0,0.0,0.0,0.0,0.0,0.0,0.0,0.0,0.0,0.0,0.0,0.0,0.0,0.0,0.0,0.0,0.0,0.0,0.0,0.0,0.0,0.0,0.0,0.0,0.0,0.0,0.0,0.0,0.0,0.0,0.0,0.0,0.0,0.0,0.0,0.0,0.0,0.0,0.0,0.0,0.0,0.0,0.0,0.0,0.0,0.0,0.0,0.0,0.0,0.0,0.0,0.0,0.0,0.0,0.0,0.0,0.0,0.0,0.0,0.0,0.0,0.0,0.0,0.0,0.0,0.0,0.0,0.0,0.0,0.0,0.0,0.0,0.0,0.0,0.0,0.0,0.0,0.0,0.0,0.0,0.0,0.0,0.0,0.0,0.0,0.0,0.0,0.0,0.0,0.0,0.0,0.0,0.0,0.0,0.0,0.0,0.0,0.0,0.0,0.0,0.0,0.0,0.0,0.0,0.0,0.0,0.0,0.0,0.0,0.0,0.0,0.0,0.0,0.0,0.0,0.0,0.0,0.0,0.0,0.0,0.0,0.0,0.0,0.0,0.0,0.0,0.0,0.0,0.0,0.0,0.0,0.0,0.0,0.0,0.0,0.0,0.0,0.0,0.0,0.0,0.0,0.0,0.0,0.0,0.0,0.0,0.0,0.0,0.0,0.0,0.0,0.0,0.0,0.0,0.0,0.0,0.0,0.0,0.0,0.0,0.0,0.0,0.0,0.0,0.0,0.0,0.0,0.0,0.0,0.0,0.0,0.0,0.0,0.0,0.0,0.0,0.0,0.0,0.0,0.0,0.0,0.0,0.0,0.0,0.0,0.0,0.0,0.0,0.0,0.0,0.0,0.0,0.0,0.0,0.0,0.0,0.0,0.0,0.0,0.0,0.0,0.0,0.0,0.0,0.0,0.0,0.0,0.0,0.0,0.0,0.0,0.0,0.0,0.0,0.0,0.0,0.0,0.0,0.0,0.0,0.0,0.0,0.0,0.0,0.0,0.0,0.0,0.0,0.0,0.0,0.0,0.0,0.0,0.0,0.0,0.0,0.0,0.0,0.0,0.0,0.0,0.0,0.0,0.0,0.0,0.0,0.0,0.0,0.0,0.0,0.0,0.0,0.0,0.0,0.0,0.0,0.0,0.0,0.0,0.0,0.0,0.0,0.0,0.0,0.0,0.0,0.0,0.0,0.0,0.0,0.0,0.0,0.0,0.0,0.0,0.0,0.0,0.0,0.0,0.0,0.0,0.0,0.0,0.0,0.0,0.0,0.0,0.0,0.0,0.0,0.0,0.0,0.0,0.0,0.0,0.0,0.0,0.0,0.0,0.0,0.0,0.0,0.0,0.0,0.0,0.0,0.0,0.0,0.0,0.0,0.0,0.0,0.0,0.0,0.0,0.0,0.0,0.0,0.0,0.0,0.0,0.0,0.0,0.0,0.0,0.0,0.0,0.0,0.0,0.0,0.0,0.0,0.0,0.0,0.0,0.0,0.0,0.0,0.0,0.0,0.0,0.0,0.0,0.0,0.0,0.0,0.0,0.0,0.0,0.0,0.0,0.0,0.0,0.0,0.0,0.0,0.0,0.0,0.0,0.0,0.0,0.0,0.0,0.0,0.0,0.0,0.0,0.0,0.0,0.0,0.0,0.0,0.0,0.0,0.0,0.0,0.0,0.0,0.0,0.0,0.0,0.0,0.0,0.0,0.0,0.0,0.0,0.0,0.0,0.0,0.0,0.0,0.0,0.0,0.0,0.0,0.0,0.0,0.0,0.0,0.0,0.0,0.0,0.0,0.0,0.0,0.0,0.0,0.0,0.0,0.0,0.0,0.0,0.0,0.0,0.0,0.0,0.0,0.0,0.0,0.0,0.0,0.0,0.0,0.0,0.0,0.0,0.0,0.0,0.0,0.0,0.0,0.0,0.0,0.0,0.0,0.0,0.0,0.0,0.0,0.0,0.0,0.0,0.0,0.0,0.0,0.0,0.0,0.0,0.0,0.0,0.0,0.0,0.0,0.0,0.0,0.0,0.0,0.0,0.0,0.0,0.0,0.0,0.0,0.0,0.0,0.0,0.0,0.0,0.0,0.0,0.0,0.0,0.0,0.0,0.0,0.0,0.0,0.0,0.0,0.0,0.0,0.0,0.0,0.0,0.0,0.0,0.0,0.0,0.0,0.0,0.0,0.0,0.0,0.0,0.0,0.0,0.0,0.0,0.0,0.0,0.0,0.0,0.0,0.0,0.0,0.0,0.0,0.0,0.0,0.0,0.0,0.0,0.0,0.0,0.0,0.0,0.0,0.0,0.0,0.0,0.0,0.0,0.0,0.0,0.0,0.0,0.0,0.0,0.0,0.0,0.0,0.0,0.0,0.0,0.0,0.0,0.0,0.0,0.0,0.0,0.0,0.0,0.0,0.0,0.0,0.0,0.0,0.0,0.0,0.0,0.0,0.0,0.0,0.0,0.0,0.0,0.0,0.0,0.0,0.0,0.0,0.0,0.0,0.0,0.0,0.0,0.0,0.0,0.0,0.0,0.0,0.0,0.0,0.0,0.0,0.0,0.0,0.0,0.0,0.0,0.0,0.0,0.0,0.0,0.0,0.0,0.0,0.0,0.0,0.0,0.0,0.0,0.0,0.0,0.0,0.0,0.0,0.0,0.0,0.0,0.0,0.0,0.0,0.0,0.0,0.0,0.0,0.0,0.0,0.0,0.0,0.0,0.0,0.0,0.0,0.0,0.0,0.0,0.0,0.0,0.0,0.0,0.0,0.0,0.0,0.0,0.0,0.0,0.0,0.0,0.0,0.0,0.0,0.0,0.0,0.0,0.0,0.0,0.0,0.0,0.0,0.0,0.0,0.0,0.0,0.0,0.0,0.0,0.0,0.0,0.0,0.0,0.0,0.0,0.0,0.0,0.0,0.0,0.0,0.0,0.0,0.0,0.0,0.0,0.0,0.0,0.0,0.0,0.0,0.0,0.0,0.0,0.0,0.0,0.0,0.0,0.0,0.0,0.0,0.0,0.0,0.0,0.0,0.0,0.0,0.0,0.0,0.0,0.0,0.0,0.0,0.0,0.0,0.0,0.0,0.0,0.0,0.0,0.0,0.0,0.0,0.0,0.0,0.0,0.0,0.0,0.0,0.0,0.0,0.0,0.0,0.0,0.0,0.0,0.0,0.0,0.0,0.0,0.0,0.0,0.0,0.0,0.0,0.0,0.0,0.0,0.0,0.0,0.0,0.0,0.0,0.0,0.0,0.0,0.0,0.0,0.0,0.0,0.0,0.0,0.0,0.0,0.0,0.0,0.0,0.0,0.0,0.0,0.0,0.0,0.0,0.0,0.0,0.0,0.0,0.0,0.0,0.0,0.0,0.0,0.0,0.0,0.0,0.0,0.0,0.0,0.0,0.0,0.0,0.0,0.0,0.0,0.0,0.0,0.0,0.0,0.0,0.0,0.0,0.0,0.0,0.0,0.0,0.0,0.0,0.0,0.0,0.0,0.0,0.0,0.0,0.0,0.0,0.0,0.0,0.0,0.0,0.0,0.0,0.0,0.0,0.0,0.0,0.0,0.0,0.0,0.0,0.0,0.0,0.0,0.0,0.0,0.0,0.0,0.0,0.0,0.0,0.0,0.0,0.0,0.0,0.0,0.0,0.0,0.0,0.0,0.0,0.0,0.0,0.0,0.0,0.0,0.0,0.0,0.0,0.0,0.0,0.0,0.0,0.0,0.0,0.0,0.0,0.0,0.0,0.0,0.0,0.0,0.0,0.0,0.0,0.0,0.0,0.0]}],[{"header":{"parameterUnit":"kt","parameterCategory":2,"dx":1,"dy":1,"la1":29.587661999999998,"la2":31.0,"lo1":-88.76705300000003,"lo2":-86.6583820000003,"nx":115,"ny":88,"refTime":"2022-09-26T18:00:00:Z","depth":0,"parameterNumber":2,"parameterNumberName":"V-component_of_WINDS"},"data":[13.1401,13.1401,13.1401,13.2075,13.2983,13.3151,13.4794,13.7131,13.7364,13.8385,13.9578,13.9941,13.9941,13.9941,13.9941,13.9941,13.9941,13.9941,13.9941,13.9941,14.0093,14.0017,14.0093,14.0321,14.0017,13.9941,14.0017,14.043,14.0625,14.0928,14.146,14.2219,14.2262,14.2641,14.3434,14.3662,14.3814,14.4118,14.4269,14.4193,14.389,14.3586,14.3088,14.3316,14.3696,14.4227,14.4683,14.4911,14.4953,14.4953,14.4953,14.4953,14.4953,14.4953,14.4953,14.4953,14.4953,14.4953,14.4953,14.4953,14.4953,14.4953,14.4953,14.4953,14.4953,14.4953,14.5029,14.5029,14.5029,14.5029,14.5105,14.5105,14.5256,14.632,14.7155,14.7838,14.8673,14.9316,14.9848,15.0076,15.0076,14.9772,14.924,14.9012,14.9088,14.9164,14.8936,14.8481,14.8405,14.8405,14.8481,14.8709,14.9012,14.8825,14.8673,14.924,14.9772,14.9848,14.9924,15.0,15.0076,15.0076,15.0268,15.0612,15.1219,15.1862,15.247,15.3189,15.3685,15.3876,15.3685,15.3533,15.3533,15.3533,15.3533,13.1401,13.1401,13.1401,13.1536,13.167,13.1738,13.3386,13.5697,13.6064,13.7563,13.971,13.9941,13.9941,13.9941,13.9941,13.9941,13.9941,13.9941,13.9941,13.9941,13.9941,13.9941,13.9941,13.9941,13.9941,13.9941,13.9941,14.0093,14.0321,14.0321,14.0701,14.1308,14.1612,14.184,14.2413,14.2675,14.2793,14.3097,14.3173,14.2979,14.2717,14.2565,14.2489,14.2827,14.3358,14.3882,14.4152,14.4531,14.4987,14.4987,14.4877,14.4953,14.4953,14.4953,14.4953,14.4953,14.4953,14.4953,14.4953,14.4953,14.4953,14.4953,14.4953,14.4953,14.4953,14.4953,14.4953,14.4953,14.4953,14.5029,14.5029,14.5029,14.5029,14.5408,14.6133,14.6892,14.7838,14.8784,14.9357,14.9964,14.9964,14.9964,14.9544,14.9053,14.9129,14.9392,14.9164,14.8709,14.8253,14.799,14.7949,14.8177,14.8633,14.8329,14.7949,14.8481,14.9164,14.9316,14.966,14.9924,15.0076,15.0076,15.0192,15.042,15.0688,15.1219,15.1827,15.2394,15.2658,15.2962,15.281,15.2698,15.2698,15.2698,15.2734,13.1401,13.1401,13.1401,13.1401,13.1569,13.231,13.3319,13.466,13.6231,13.8095,13.9776,13.9941,13.9941,13.9941,13.9941,13.9941,13.9941,13.9941,13.9941,13.9941,13.9941,13.9941,13.9941,13.9941,13.9941,13.9941,13.9941,13.9941,14.0017,14.0017,14.0017,14.0473,14.0625,14.0928,14.1688,14.1916,14.2034,14.238,14.2565,14.1991,14.108,14.1123,14.1199,14.1764,14.2219,14.2633,14.3164,14.3848,14.3966,14.3814,14.4573,14.4801,14.4877,14.4877,14.4953,14.4953,14.4953,14.4953,14.4953,14.4953,14.4953,14.4953,14.4953,14.4953,14.4953,14.4953,14.4953,14.4953,14.4953,14.4953,14.4953,14.4953,14.4953,14.4953,14.5526,14.6133,14.6892,14.7762,14.8522,14.9053,14.9088,14.9164,14.9544,14.8977,14.8901,14.9129,14.9053,14.8633,14.7762,14.7231,14.7493,14.7797,14.837,14.8294,14.7949,14.8253,14.8784,14.9053,14.9357,14.966,15.0076,15.0076,15.0076,15.0192,15.042,15.0764,15.1032,15.1523,15.1862,15.2126,15.205,15.1862,15.1862,15.1862,15.1559,13.1401,13.1401,13.1401,13.1401,13.1569,13.2613,13.3352,13.4292,13.6464,13.7713,13.8689,13.9502,13.9941,13.9941,13.9941,13.9941,13.9941,13.9941,13.9941,13.9941,13.9941,13.9941,13.9941,13.9941,13.9941,13.9941,13.9941,13.9941,13.9941,13.9941,13.9941,14.0017,14.0093,14.0321,14.0962,14.1004,14.1156,14.1502,14.1502,14.1004,14.0321,14.0169,14.0169,14.0777,14.1384,14.1873,14.2219,14.2979,14.2979,14.2717,14.3856,14.4269,14.4387,14.4573,14.4649,14.4725,14.4911,14.4953,14.4953,14.4953,14.4953,14.4953,14.4953,14.4953,14.4953,14.4953,14.4953,14.4953,14.4953,14.4953,14.4953,14.4953,14.4953,14.4953,14.5105,14.545,14.5829,14.6699,14.7534,14.7721,14.7797,14.8253,14.9012,14.9012,14.8825,14.8749,14.8749,14.8522,14.7762,14.7534,14.7914,14.7797,14.8329,14.8446,14.8329,14.8481,14.8784,14.9053,14.9357,14.9696,15.0,15.0076,15.0076,15.0076,15.0152,15.0344,15.0688,15.0916,15.1143,15.1331,15.1367,15.1027,15.0951,15.1027,15.0572,13.1401,13.1401,13.1401,13.1401,13.1401,13.1603,13.3084,13.5463,13.5623,13.5621,13.5973,13.8439,13.9766,13.9789,13.9941,13.9941,13.9941,13.9941,13.9941,13.9941,13.9941,13.9941,13.9941,13.9941,13.9941,13.9941,13.9941,13.9941,13.9941,13.9941,13.9941,13.9941,13.9941,14.0017,14.0278,14.0245,14.0397,14.0667,14.0549,14.0473,14.0017,13.9941,14.0017,14.0278,14.081,14.1341,14.1569,14.2067,14.2565,14.2489,14.2717,14.2793,14.3097,14.3434,14.3814,14.4076,14.4531,14.4649,14.4801,14.4953,14.4953,14.4953,14.4953,14.4953,14.4953,14.4953,14.4953,14.4953,14.4953,14.4953,14.4953,14.4953,14.4953,14.4953,14.4953,14.5181,14.5484,14.594,14.6547,14.6886,14.7038,14.7417,14.8025,14.8142,14.7914,14.8522,14.8749,14.8749,14.8446,14.8522,14.8405,14.8025,14.8329,14.8557,14.8481,14.8709,14.8901,14.9164,14.9544,14.9848,15.0,15.0076,15.0076,15.0076,15.0076,15.0192,15.0268,15.0344,15.0496,15.0759,15.0683,15.0344,15.0192,15.0303,15.0152,13.1401,13.1401,13.1401,13.1401,13.1401,13.1434,13.2512,13.4012,13.3876,13.464,13.5833,13.7352,13.8425,13.9235,13.9746,13.9941,13.9941,13.9941,13.9941,13.9941,13.9941,13.9941,13.9941,13.9941,13.9941,13.9941,13.9941,13.9941,13.9941,13.9941,13.9941,13.9941,13.9941,13.9941,13.9941,13.9941,13.9941,13.9941,13.9941,13.9941,13.9941,13.9941,13.9941,14.0017,14.0169,14.0397,14.0625,14.1384,14.1384,14.0971,14.2228,14.2262,14.1916,14.2489,14.2945,14.3206,14.3814,14.4227,14.4379,14.4683,14.4877,14.4953,14.4953,14.4953,14.4953,14.4953,14.4953,14.4953,14.4953,14.4953,14.4953,14.4953,14.4953,14.4953,14.4953,14.4953,14.5181,14.5332,14.5671,14.5974,14.6354,14.6658,14.6927,14.7003,14.7348,14.8066,14.8522,14.8597,14.8749,14.8901,14.8709,14.8633,14.8784,14.8784,14.8936,14.9088,14.9281,14.9509,14.9772,14.9772,15.0,15.0076,15.0,15.0,15.0,15.0152,15.0227,15.0152,15.0076,15.0152,15.0227,15.0116,15.0116,15.0076,15.0076,13.1401,13.1401,13.1401,13.1401,13.1401,13.1401,13.1864,13.2622,13.2902,13.3611,13.5725,13.6343,13.7621,13.877,13.94,13.9713,13.9865,13.9941,13.9941,13.9941,13.9941,13.9941,13.9941,13.9941,13.9941,13.9941,13.9941,13.9941,13.9941,13.9941,13.9941,13.9941,13.9941,13.9941,13.9941,13.9941,13.9941,13.9941,13.9941,13.9941,13.9941,13.9941,13.9941,13.9941,14.0017,14.0093,14.0093,14.0625,14.0625,14.0169,14.1199,14.1502,14.0928,14.146,14.2034,14.2186,14.2903,14.3468,14.3654,14.4227,14.4607,14.4607,14.4607,14.4649,14.4725,14.4835,14.4953,14.4953,14.4953,14.4953,14.4953,14.4953,14.4953,14.4953,14.4953,14.4953,14.5029,14.5181,14.5181,14.5443,14.5408,14.5788,14.6244,14.6395,14.6816,14.7651,14.8259,14.8597,14.8825,14.9053,14.9088,14.9544,14.962,14.9544,14.962,14.9468,14.966,14.9812,14.966,14.9696,14.9848,14.9888,14.9888,14.9736,14.9544,14.9696,14.9924,15.0076,15.0076,15.0076,15.0076,15.0076,15.0076,15.0076,15.0076,13.1401,13.1401,13.1401,13.1401,13.1401,13.1401,13.104,13.0599,13.2517,13.3372,13.3678,13.5775,13.7076,13.8431,13.8835,13.9182,13.9713,13.9789,13.9865,13.9941,13.9941,13.9941,13.9941,13.9941,13.9941,13.9941,13.9941,13.9941,13.9941,13.9941,13.9941,13.9941,13.9941,13.9941,13.9941,13.9941,13.9941,13.9941,13.9941,13.9941,13.9941,13.9941,13.9941,13.9941,13.9941,13.9941,14.0017,14.0093,14.0017,14.0093,14.0093,14.0126,14.0126,14.0017,14.0625,14.1232,14.2067,14.2371,14.2675,14.3392,14.3772,14.362,14.3772,14.3848,14.4,14.4455,14.4607,14.4725,14.4953,14.4953,14.4953,14.4953,14.4953,14.4953,14.4953,14.4953,14.4953,14.4953,14.4953,14.4953,14.4953,14.5105,14.556,14.5864,14.6244,14.6968,14.75,14.7914,14.837,14.8673,14.9088,14.9544,15.0,15.0,15.0076,14.9924,14.9964,14.9964,14.9772,14.966,14.9585,14.966,14.9585,14.9433,14.9129,14.924,14.9585,14.9812,15.0,15.0076,15.0076,15.0076,15.0076,15.0076,15.0076,13.1401,13.1401,13.1401,13.1401,13.1401,13.1401,13.1292,13.1108,13.122,13.1901,13.2928,13.4423,13.5841,13.6789,13.7932,13.9063,13.9139,13.9215,13.9291,13.9941,13.9941,13.9941,13.9941,13.9941,13.9941,13.9941,13.9941,13.9941,13.9941,13.9941,13.9941,13.9941,13.9941,13.9941,13.9941,13.9941,13.9941,13.9941,13.9941,13.9941,13.9941,13.9941,13.9941,13.9941,13.9941,13.9941,13.9941,13.9941,13.9941,13.9941,13.9941,13.9941,13.9941,14.0017,14.0126,14.0321,14.0777,14.119,14.1764,14.2481,14.2557,14.2405,14.2751,14.2903,14.313,14.3772,14.4076,14.4379,14.4759,14.4911,14.4953,14.4953,14.4953,14.4953,14.4953,14.4953,14.4953,14.4953,14.4953,14.4953,14.4953,14.4953,14.5181,14.5408,14.5712,14.6209,14.6665,14.7231,14.7762,14.799,14.8329,14.9088,14.9696,14.9696,14.9848,14.9848,14.9924,15.0076,15.0,15.0,14.9812,14.9509,14.9357,14.9205,14.8977,14.8977,14.9281,14.9585,14.9812,15.0,15.0076,15.0076,15.0076,15.0076,15.0076,13.1401,13.1401,13.1401,13.1401,13.1401,13.1401,13.1401,13.1292,13.0965,13.1311,13.2428,13.3253,13.4342,13.5838,13.7385,13.8267,13.8737,13.8792,13.8944,13.9519,13.9486,13.9638,13.9941,13.9941,13.9941,13.9941,13.9941,13.9941,13.9941,13.9941,13.9941,13.9941,13.9941,13.9941,13.9941,13.9941,13.9941,13.9941,13.9941,13.9941,13.9941,13.9941,13.9941,13.9941,13.9941,13.9941,13.9941,13.9941,13.9941,13.9941,13.9941,13.9941,13.9941,13.9941,13.9941,14.0017,14.0017,14.0278,14.081,14.1232,14.1384,14.1384,14.1612,14.2067,14.2186,14.2903,14.324,14.3544,14.4076,14.4455,14.4607,14.4607,14.4801,14.4801,14.4683,14.4759,14.4877,14.4877,14.4877,14.4877,14.4953,14.4953,14.4953,14.5256,14.5332,14.5712,14.5864,14.632,14.6927,14.7231,14.7645,14.8522,14.9164,14.9316,14.9433,14.9357,14.9357,14.9848,15.0076,15.0076,14.9812,14.9585,14.9433,14.9433,14.9053,14.8749,14.9129,14.9509,14.9736,14.9888,15.004,15.004,14.9772,14.9696,14.9924,13.1401,13.1401,13.1401,13.1401,13.1401,13.1401,13.1401,13.1401,13.1292,13.164,13.2207,13.2567,13.4055,13.5759,13.654,13.748,13.83,13.8585,13.8792,13.8835,13.8835,13.9258,13.9562,13.9789,13.9746,13.9865,13.9941,13.9941,13.9941,13.9941,13.9941,13.9941,13.9941,13.9941,13.9941,13.9941,13.9941,13.9941,13.9941,13.9941,13.9941,13.9941,13.9941,13.9941,13.9941,13.9941,13.9941,13.9941,13.9941,13.9941,13.9941,13.9941,13.9941,13.9941,13.9941,13.9941,13.9941,13.9941,14.0017,14.0017,14.0169,14.0321,14.0777,14.1232,14.1384,14.1991,14.2523,14.2599,14.3282,14.3696,14.3848,14.3882,14.4227,14.4379,14.4186,14.411,14.4379,14.4497,14.4607,14.4607,14.4801,14.4953,14.4953,14.4953,14.5029,14.5063,14.5063,14.5408,14.6016,14.6471,14.6927,14.7686,14.8329,14.8633,14.9129,14.8977,14.9129,14.9736,15.0076,15.0076,14.9924,14.9736,14.966,14.9736,14.9281,14.8597,14.8901,14.9316,14.9088,14.886,14.9357,14.9509,14.9316,14.924,14.962,13.1401,13.1401,13.1401,13.1401,13.1401,13.1401,13.1401,13.1401,13.1367,13.1524,13.175,13.279,13.3536,13.4195,13.547,13.6921,13.7198,13.7748,13.8183,13.8347,13.8314,13.8423,13.8835,13.9215,13.9519,13.9865,13.9941,13.9941,13.9941,13.9941,13.9941,13.9941,13.9941,13.9941,13.9941,13.9941,13.9941,13.9941,13.9941,13.9941,13.9941,13.9941,13.9941,13.9941,13.9941,13.9941,13.9941,13.9941,13.9941,13.9941,13.9941,13.9941,13.9941,13.9941,13.9941,13.9941,13.9941,13.9941,13.9941,13.9941,13.9941,13.9941,14.0321,14.0397,14.0549,14.1156,14.1612,14.1764,14.2371,14.2903,14.2869,14.3316,14.373,14.362,14.3392,14.3392,14.3662,14.3966,14.4076,14.4227,14.4683,14.4877,14.4877,14.4877,14.4877,14.4877,14.4877,14.5181,14.556,14.5864,14.6395,14.6927,14.7417,14.8066,14.8901,14.8977,14.9129,14.9696,15.0,15.0,15.0076,14.9964,14.9964,14.966,14.9205,14.8522,14.8294,14.8218,14.8101,14.7949,14.806,14.8177,14.8212,14.8784,14.924,13.0422,13.1228,12.9866,12.8856,12.8083,12.9235,12.9779,12.9915,13.0962,13.1401,13.1502,13.2344,13.2728,13.3236,13.4854,13.5609,13.5924,13.6648,13.7333,13.7627,13.8042,13.8347,13.8683,13.9139,13.9291,13.9443,13.9789,13.9941,13.9941,13.9941,13.9941,13.9941,13.9941,13.9941,13.9941,13.9941,13.9941,13.9941,13.9941,13.9941,13.9941,13.9941,13.9941,13.9941,13.9941,13.9941,13.9941,13.9941,13.9941,13.9941,13.9941,13.9941,13.9941,13.9941,13.9941,13.9941,13.9941,13.9941,13.9941,13.9941,13.9941,13.9941,13.9941,14.0017,14.0093,14.0473,14.0701,14.108,14.1536,14.2025,14.2067,14.2481,14.2936,14.2675,14.2565,14.2675,14.2827,14.313,14.3282,14.3434,14.389,14.4497,14.4649,14.4725,14.4649,14.4573,14.4801,14.5029,14.5105,14.5332,14.5829,14.6471,14.632,14.6775,14.8025,14.8633,14.9164,14.9468,14.9848,14.9924,15.0076,15.0,14.966,14.9468,14.9088,14.8597,14.8066,14.7458,14.7079,14.6962,14.6886,14.6996,14.768,14.8329,14.8405,12.8622,13.0412,12.6777,12.4341,12.3073,12.5702,12.6826,12.6996,12.9813,13.0827,13.0726,13.1468,13.231,13.3146,13.3604,13.4115,13.4527,13.5965,13.6615,13.724,13.7929,13.8509,13.8792,13.9063,13.9291,13.9096,13.9367,13.9713,13.9789,13.9789,13.9941,13.9941,13.9941,13.9941,13.9941,13.9941,13.9941,13.9941,13.9941,13.9941,13.9941,13.9941,13.9941,13.9941,13.9941,13.9941,13.9941,13.9941,13.9941,13.9941,13.9941,13.9941,13.9941,13.9941,13.9941,13.9941,13.9941,13.9941,13.9941,13.9941,13.9941,13.9941,13.9941,13.9941,13.9941,14.0017,14.0017,14.0169,14.0777,14.119,14.1265,14.1341,14.1873,14.1764,14.1806,14.1764,14.184,14.2143,14.2447,14.2599,14.2979,14.351,14.3738,14.389,14.389,14.3662,14.389,14.3966,14.4118,14.4953,14.5484,14.5636,14.5408,14.594,14.719,14.7797,14.8329,14.8709,14.8936,14.924,14.9696,14.962,14.9205,14.9053,14.8977,14.8673,14.8294,14.7272,14.6513,14.6168,14.6016,14.632,14.6851,14.7079,14.7114,12.6513,12.3189,12.051,12.0434,12.203,12.3213,12.3755,12.4131,12.6894,12.8185,12.8763,13.0422,13.1502,13.2108,13.2983,13.3476,13.3894,13.5833,13.6534,13.6926,13.7411,13.8173,13.8476,13.8347,13.8531,13.8792,13.9139,13.9139,13.9291,13.9595,13.9865,13.9941,13.9941,13.9941,13.9941,13.9941,13.9941,13.9941,13.9941,13.9941,13.9941,13.9941,13.9941,13.9941,13.9941,13.9941,13.9941,13.9941,13.9941,13.9941,13.9941,13.9941,13.9941,13.9941,13.9941,13.9941,13.9941,13.9941,13.9941,13.9941,13.9941,13.9941,13.9941,13.9941,13.9941,13.9941,13.9941,13.9941,14.0321,14.0321,14.0397,14.0962,14.1038,14.1004,14.1004,14.0852,14.0777,14.1308,14.1612,14.184,14.2219,14.2675,14.2751,14.2945,14.3021,14.2793,14.2827,14.286,14.362,14.4607,14.4953,14.5105,14.5215,14.5788,14.6582,14.7038,14.7493,14.7873,14.7949,14.8177,14.8784,14.8784,14.8597,14.8673,14.8749,14.8218,14.712,14.6665,14.6099,14.5829,14.5636,14.5864,14.5864,14.5636,14.5788,12.2035,11.8147,11.6814,11.6827,11.7592,11.9179,12.0016,12.0895,12.3455,12.4885,12.5702,12.8219,12.9576,12.9982,13.1805,13.2613,13.3141,13.5082,13.5923,13.5444,13.74,13.829,13.8093,13.8356,13.8086,13.8575,13.8835,13.8878,13.8607,13.8987,13.9638,13.9865,13.9941,13.9941,13.9941,13.9941,13.9941,13.9941,13.9941,13.9941,13.9941,13.9941,13.9941,13.9941,13.9941,13.9941,13.9941,13.9941,13.9941,13.9941,13.9941,13.9941,13.9941,13.9941,13.9908,13.9908,13.9908,13.9941,13.9941,13.9941,13.9941,13.9941,13.9941,13.9941,13.9941,13.9941,13.9941,13.9941,13.9941,13.9941,14.0093,14.0473,14.0354,14.0278,14.0397,14.0321,14.0321,14.0625,14.0852,14.108,14.1417,14.1308,14.1384,14.1764,14.2067,14.2067,14.2143,14.2371,14.3054,14.3814,14.4076,14.4455,14.5063,14.5408,14.5788,14.6092,14.6582,14.6658,14.6734,14.7493,14.7949,14.799,14.7838,14.7838,14.7686,14.7003,14.5981,14.5602,14.5602,14.5484,14.5332,14.5408,14.5408,14.5181,14.5256,11.6236,11.4472,11.4502,11.3464,11.2429,11.4703,11.6107,11.6961,11.9727,12.135,12.2118,12.502,12.645,12.7268,12.9472,13.0996,13.2104,13.4012,13.4909,13.4942,13.7265,13.8124,13.7724,13.9077,13.8235,13.7935,13.8845,13.8694,13.8423,13.8792,13.94,13.9865,13.9941,13.9941,13.9941,13.9941,13.9941,13.9941,13.9941,13.9941,13.9908,13.9677,13.9412,13.9214,13.8915,13.8518,13.792,13.7821,13.8518,13.8849,13.9247,13.9545,13.9941,13.9941,13.9875,13.9578,13.9809,13.9941,13.9941,13.9941,13.9941,13.9941,13.9941,13.9941,13.9941,13.9941,13.9941,13.9941,13.9941,13.9941,13.9941,14.0017,13.9941,14.0017,14.0093,14.0017,14.0017,14.0321,14.0245,14.0473,14.0734,14.0582,14.0245,14.0701,14.1156,14.1308,14.1612,14.1991,14.2337,14.2523,14.2675,14.3848,14.4607,14.4683,14.4953,14.5215,14.5443,14.5408,14.605,14.6962,14.7079,14.7079,14.7003,14.6699,14.6168,14.5526,14.5332,14.5256,14.5029,14.5029,14.5105,14.5105,14.5063,14.5029,14.5029,11.1263,11.0913,11.1473,11.1411,11.1223,11.2236,11.2786,11.3458,11.6086,11.7698,11.8688,12.135,12.3048,12.4235,12.6554,12.9339,13.1569,13.3016,13.4292,13.4928,13.629,13.7887,13.8241,13.8294,13.7592,13.7512,13.8064,13.8086,13.8423,13.9139,13.9746,13.9941,13.9941,13.9941,13.9875,13.9776,13.9941,13.9941,13.9941,13.9941,13.9611,13.8816,13.7754,13.669,13.5423,13.4447,13.3409,13.3375,13.4347,13.5115,13.6216,13.7322,13.9346,13.9875,13.8849,13.7389,13.8849,13.9677,13.9809,13.9644,13.9535,13.9941,13.9941,13.9941,13.9941,13.9941,13.9941,13.9941,13.9941,13.9941,13.9941,13.9941,13.9941,13.9941,13.9941,13.9941,13.9941,13.9941,13.9941,14.0017,14.0126,13.9974,13.9671,13.9974,14.0126,14.0278,14.0354,14.0777,14.119,14.1232,14.1916,14.3088,14.3696,14.3772,14.3848,14.4076,14.4607,14.4573,14.5181,14.5898,14.6016,14.6016,14.6057,14.5905,14.5298,14.4877,14.5029,14.5029,14.4953,14.4953,14.4953,14.4953,14.5029,14.4953,14.4953,10.9016,10.7903,10.962,10.9472,10.8619,11.0071,11.1059,11.1545,11.29,11.3963,11.5356,11.7664,11.9387,12.0663,12.3149,12.6278,12.8962,13.0824,13.2239,13.3856,13.5095,13.6697,13.7314,13.7546,13.7597,13.7748,13.739,13.767,13.8726,13.9324,13.9519,13.9789,13.9941,13.9941,13.9842,13.9379,13.8882,13.8849,13.8783,13.8551,13.7754,13.8783,13.7522,13.6223,13.4955,13.2268,12.9568,12.8655,12.8757,12.7805,12.9194,13.088,13.1351,13.1082,13.0105,13.0476,13.1736,13.3503,13.5336,13.6875,13.8241,13.9502,13.9941,13.9941,13.9941,13.9941,13.9941,13.9941,13.9941,13.9941,13.9941,13.9941,13.9941,13.9941,13.9941,13.9941,13.9941,13.9941,13.9941,13.9941,14.005,13.9822,13.9367,13.9139,13.9139,13.9139,13.9215,13.9519,14.0007,14.043,14.1004,14.1873,14.2295,14.2371,14.2447,14.324,14.4152,14.389,14.4118,14.4607,14.4759,14.4269,14.4311,14.4691,14.4649,14.4227,14.4379,14.4725,14.4877,14.4953,14.4953,14.4953,14.4953,14.4953,14.4953,10.6897,10.49,10.7809,10.737,10.5341,10.7802,10.8978,10.927,10.9473,11.0276,11.1246,11.4003,11.5711,11.6974,11.9423,12.2272,12.4681,12.6854,12.8854,13.1145,13.2541,13.4961,13.5763,13.6383,13.7231,13.7837,13.763,13.7804,13.88,13.902,13.9519,13.9865,13.9941,13.9941,13.9611,13.8915,13.8584,13.8792,13.8261,13.7097,13.6223,13.649,13.6023,13.2402,13.0412,12.7605,12.3929,12.3211,12.1981,11.8135,12.0849,12.154,12.0355,11.9403,12.0258,12.2304,12.4847,12.7951,13.042,13.2706,13.6114,13.8166,13.9374,13.9681,13.9713,13.9865,13.9941,13.9941,13.9941,13.9941,13.9941,13.9941,13.9941,13.9941,13.9941,13.9941,13.9941,13.9941,13.9941,13.9941,13.9941,13.9898,13.9519,13.9291,13.9139,13.9063,13.9063,13.9172,13.9248,13.9595,14.0169,14.0625,14.1004,14.108,14.1308,14.2675,14.3392,14.2979,14.3206,14.3696,14.3468,14.2827,14.2523,14.2903,14.2979,14.324,14.3772,14.4303,14.4455,14.4607,14.4801,14.4953,14.4953,14.4953,14.4953,10.2182,10.2012,10.4866,10.4392,10.2454,10.4799,10.4892,10.3411,10.5086,10.6649,10.7775,11.0351,11.1715,11.3094,11.5647,11.714,11.8861,12.1259,12.5389,12.8021,12.8846,13.1145,13.4234,13.4428,13.4669,13.6873,13.6842,13.7868,13.8968,13.9789,13.9133,13.9799,13.9875,13.971,13.9842,13.9611,13.8849,13.812,13.7297,13.5864,13.385,13.2877,13.0517,12.628,12.321,11.9329,11.6396,11.4106,11.2791,11.412,11.4815,11.1311,10.7945,10.8072,11.2136,11.3675,11.9435,12.248,12.4642,12.9813,13.3835,13.5115,13.7376,13.8724,13.9007,13.9321,13.9756,13.9865,13.9941,13.9941,13.9941,13.9941,13.9941,13.9941,13.9941,13.9941,13.9941,13.9941,13.9941,13.9941,13.9941,13.9822,13.9486,13.9291,13.9139,13.8987,13.8868,13.8792,13.8607,13.8726,13.9334,13.9865,14.0017,14.0093,14.108,14.2295,14.2295,14.2186,14.2523,14.2751,14.2641,14.2186,14.184,14.1764,14.1764,14.2143,14.2675,14.3358,14.3848,14.4076,14.4303,14.4573,14.4801,14.4953,14.4953,9.9448,9.8641,10.1427,10.1158,9.9498,10.1807,10.2352,10.1569,10.2625,10.3275,10.3916,10.493,10.6922,10.906,11.0426,11.231,11.4226,11.7337,12.1435,12.4872,12.4674,12.7372,13.1685,13.0847,13.0709,13.3469,13.4192,13.5132,13.6238,13.6717,13.7544,13.8105,13.8632,13.8708,13.8858,13.792,13.669,13.4915,13.3515,13.1431,12.8725,12.8386,12.6927,12.3722,11.9535,11.4654,11.0537,10.794,10.5914,10.4058,10.3226,10.1746,10.0622,10.159,10.3722,10.6026,11.1095,11.3759,11.7452,12.2378,12.7457,12.914,13.3887,13.5429,13.6391,13.8567,13.9473,13.9519,13.9713,13.9941,13.9941,13.9941,13.9941,13.9941,13.9941,13.9941,13.9941,13.9941,13.9941,13.9941,13.9941,13.9713,13.9443,13.9248,13.9096,13.8987,13.8944,13.8792,13.8531,13.865,13.9106,13.9258,13.9258,13.9713,14.0777,14.1156,14.1199,14.1232,14.1536,14.1578,14.1502,14.1275,14.108,14.1156,14.119,14.146,14.173,14.2523,14.313,14.3358,14.3696,14.4152,14.4455,14.4497,14.4649,9.6368,9.4975,9.796,9.7729,9.6137,9.8514,9.9344,9.8697,9.9513,9.9888,10.0205,10.0898,10.3289,10.6316,10.6068,10.7135,11.046,11.2673,11.622,12.0599,11.9454,12.3482,12.6265,12.448,12.5512,12.9265,13.0228,13.1526,13.3284,13.4458,13.4877,13.5981,13.661,13.7099,13.6725,13.5288,13.2622,13.0035,12.8583,12.6278,12.3624,12.4066,12.3448,12.0362,11.7272,11.2189,10.6536,10.3509,9.9982,9.5911,9.4785,9.6031,9.657,9.6342,9.7179,9.9574,10.2012,10.4949,10.8178,11.4281,11.943,12.2474,12.7553,13.1988,13.1571,13.5495,13.803,13.8208,13.9222,13.9941,13.9941,13.9941,13.9941,13.9941,13.9941,13.9941,13.9941,13.9941,13.9941,13.9941,13.9941,13.9941,13.9865,13.9443,13.9248,13.9063,13.8944,13.8868,13.8868,13.8911,13.9139,13.9215,13.9291,13.9443,14.0169,14.0169,14.0017,13.9941,14.0278,14.0473,14.006,13.9832,13.9941,14.0202,14.0506,14.0701,14.0928,14.1612,14.2371,14.2599,14.2903,14.3282,14.3586,14.3966,14.4193,9.1314,9.1366,9.4347,9.3927,9.2101,9.4319,9.4529,9.2852,9.5151,9.6369,9.6922,9.9581,10.1727,10.5256,10.2488,10.3251,10.6028,10.7078,10.8253,11.0404,11.4679,11.7586,11.9925,11.7996,12.0664,12.5412,12.7002,12.9061,13.0841,13.2407,13.3178,13.3398,13.4151,13.4685,13.3923,13.2162,13.0724,12.8583,12.559,12.2307,11.9444,11.8909,11.6863,11.3086,11.0598,10.7083,10.1396,9.7337,9.5032,9.3353,9.3249,9.3164,9.2904,9.3059,9.3267,9.4305,9.7696,10.0295,10.2151,10.8495,11.3537,11.4943,12.0664,12.4546,12.5783,13.0687,13.4438,13.4111,13.7959,13.9195,13.9502,13.9908,13.9908,13.9941,13.9941,13.9941,13.9941,13.9941,13.9941,13.9941,13.9941,13.9941,13.9941,13.9898,13.9822,13.9519,13.9291,13.9139,13.9139,13.9139,13.9139,13.9291,13.9367,13.9367,13.9291,13.9291,13.9139,13.8987,13.9443,13.9258,13.8845,13.9106,13.903,13.9215,13.9974,14.0321,14.0473,14.0852,14.1384,14.1916,14.286,14.2903,14.2903,14.3586,14.389,8.9823,9.0217,9.1465,9.1473,9.0787,9.1924,9.1789,9.1061,9.2222,9.275,9.3075,9.4445,9.666,9.9132,9.8185,9.9166,10.1864,10.3577,10.3695,10.4452,11.0659,11.3316,11.3228,11.461,11.6935,12.1216,12.1752,12.3115,12.4638,12.5118,12.6749,12.8639,12.9744,13.0069,13.0008,12.8641,12.6507,12.2582,12.0489,11.7062,11.3063,11.3684,11.1076,10.7105,10.7161,10.5028,9.9154,9.5665,9.3232,9.2003,9.1605,9.1554,9.1328,9.1363,9.1328,9.1465,9.4017,9.6068,9.7361,10.1782,10.5358,10.7206,11.314,11.6497,11.8199,12.4171,12.8552,12.9044,13.3762,13.6238,13.7082,13.8822,13.9809,13.9733,13.9941,13.9941,13.9941,13.9941,13.9941,13.9941,13.9941,13.9941,13.9941,13.9941,13.9941,13.9865,13.9562,13.9519,13.9367,13.9215,13.9182,13.9595,13.9746,13.9443,13.9291,13.9063,13.8944,13.8683,13.8802,13.8195,13.8238,13.8878,13.9106,13.9595,13.9789,14.0093,14.0701,14.1156,14.1308,14.1688,14.2784,14.324,14.3392,14.3848,14.3848,8.868,8.9129,8.9162,8.9337,8.97,8.9908,8.996,8.9926,9.0254,9.0631,9.0547,9.0464,9.2689,9.4866,9.4461,9.5486,9.8063,10.0308,10.0304,10.0278,10.6319,10.7422,10.6395,10.8592,11.2338,11.6413,11.628,11.6743,11.8332,11.9662,12.1158,12.3803,12.4631,12.4977,12.4711,12.4011,12.0868,11.6623,11.4794,11.1389,10.8264,10.9029,10.6918,10.2495,10.3699,10.1991,9.7465,9.4735,9.2436,9.0757,9.0601,9.0601,9.0653,9.0653,9.0705,9.0841,9.186,9.2562,9.3526,9.6435,9.8364,9.9526,10.6008,10.9622,10.9123,11.6961,12.14,12.3262,12.7776,13.212,13.353,13.6271,13.81,13.8548,13.7907,13.827,13.9255,13.9638,13.9746,13.9974,13.9941,13.9941,13.9941,13.9941,13.9941,13.9941,13.9865,13.9865,13.9789,13.9638,13.9562,13.9865,13.9822,13.9519,13.9139,13.8944,13.864,13.8455,13.8043,13.7479,13.7739,13.8195,13.8802,13.9671,13.9595,13.9865,14.0549,14.1004,14.1232,14.1232,14.184,14.1949,14.2481,14.3012,14.286,8.7396,8.7396,8.7448,8.7552,8.7708,8.8142,8.8317,8.8454,8.9285,8.9734,8.9856,9.0082,9.1984,9.3692,9.1908,9.2399,9.4892,9.5838,9.5771,9.6186,9.7779,9.9035,9.7772,10.0031,10.5527,11.1567,11.0536,11.2349,11.6413,11.6676,11.8531,11.8233,11.8831,11.9764,11.8896,11.7088,11.5506,11.3486,10.9616,10.716,10.6168,10.4816,10.2091,9.895,9.8755,9.7283,9.4138,9.2539,9.1397,9.0705,9.036,9.029,9.0446,9.0516,9.0342,9.0342,9.0583,9.0735,9.1111,9.2858,9.3758,9.4359,9.9504,10.2408,10.25,10.9532,11.5427,11.6731,12.2168,12.6585,12.9286,13.2683,13.4166,13.4603,13.3882,13.5271,13.8093,13.8573,13.88,13.943,13.9865,13.9941,13.9789,13.9865,13.9865,13.9941,13.9941,13.9941,13.9941,13.9941,13.9941,13.9865,13.9746,13.9367,13.8911,13.8607,13.8228,13.7967,13.7663,13.7208,13.7056,13.7132,13.7436,13.8531,13.9139,13.9638,14.0093,14.0245,14.044,14.1047,14.108,14.0245,14.0473,14.108,14.1308,8.724,8.724,8.724,8.724,8.7292,8.7467,8.7604,8.7656,8.8071,8.8227,8.8279,8.8402,8.9169,8.9765,8.9069,8.9359,9.0757,9.2597,9.2418,9.107,9.1685,9.2946,9.4662,9.5641,10.0097,10.5452,10.4241,10.5093,10.8863,10.7801,10.7884,10.945,11.0271,11.0716,11.0447,10.947,10.8011,10.6342,10.4267,10.2219,10.0975,10.1317,9.937,9.5219,9.5742,9.4787,9.1845,9.0877,9.0358,9.0012,8.9389,8.8869,8.8506,8.8591,8.8662,8.8888,8.9044,8.9355,9.0046,9.0637,9.1064,9.1838,9.4488,9.6085,9.7141,10.1833,10.6719,10.9028,11.5541,12.1525,12.353,12.7847,12.8703,12.5213,12.7652,13.0795,13.2429,13.4228,13.596,13.7791,13.8335,13.865,13.903,13.9215,13.9367,13.9865,13.9941,13.9941,13.9941,13.9865,13.9562,13.9367,13.9443,13.9215,13.865,13.8271,13.7967,13.7663,13.7436,13.7132,13.6904,13.6904,13.698,13.8119,13.8607,13.903,13.9486,13.9638,13.9832,14.1123,14.1806,14.108,14.044,14.0516,14.0288,8.6772,8.674,8.672,8.672,8.674,8.6896,8.6948,8.7032,8.7188,8.7292,8.724,8.724,8.724,8.7325,8.724,8.75,8.7943,8.9459,8.9524,8.816,8.7929,8.9435,9.1726,9.3024,9.5389,9.8005,9.7902,9.9287,10.1645,10.1013,10.085,10.2496,10.3351,10.3484,10.3754,10.3451,10.2675,10.0567,9.9708,9.8347,9.6711,9.7325,9.5743,9.1976,9.3152,9.2771,8.9816,8.9181,8.9007,8.9007,8.8279,8.7656,8.7396,8.724,8.7448,8.7779,8.7831,8.8246,8.8903,8.9007,8.9196,8.9794,9.111,9.1859,9.2287,9.651,9.9883,10.2471,10.8279,11.4233,11.6543,12.1717,12.3164,11.8521,12.1711,12.4976,12.7627,12.9834,13.2573,13.5366,13.621,13.6925,13.7934,13.8379,13.8531,13.8954,13.9367,13.9367,13.9334,13.9486,13.9671,13.8987,13.9139,13.9215,13.9182,13.9106,13.8423,13.7815,13.7663,13.7403,13.7436,13.7511,13.7511,13.7891,13.8043,13.8347,13.8802,13.9106,13.9225,14.006,14.0364,14.0591,14.0786,14.0516,14.006,8.5597,8.5649,8.5513,8.5649,8.5753,8.6104,8.6344,8.6448,8.6948,8.7084,8.7032,8.7188,8.7084,8.7188,8.7084,8.7188,8.7136,8.698,8.6967,8.724,8.7292,8.7507,8.8076,9.0729,9.1358,8.9785,9.248,9.5999,9.8896,9.8609,9.8521,9.9113,9.9059,9.9039,9.9271,9.9083,9.916,9.8377,9.638,9.5144,9.4731,9.2708,9.1317,9.0651,9.0683,8.9761,8.7585,8.7448,8.75,8.7448,8.7344,8.7292,8.724,8.7136,8.7207,8.724,8.7292,8.7292,8.7396,8.75,8.7604,8.7905,8.9165,8.9877,8.9787,9.2475,9.5666,9.8305,10.1312,10.395,10.8437,11.3199,11.5851,11.6201,11.5548,11.844,12.2655,12.5571,12.8298,13.1676,13.3169,13.4495,13.6493,13.723,13.7479,13.7783,13.8271,13.8531,13.8086,13.8878,13.9334,13.9063,13.8911,13.8954,13.941,13.9713,13.8726,13.7967,13.7707,13.7403,13.7284,13.698,13.6948,13.7284,13.7392,13.7663,13.8195,13.8238,13.8466,13.8726,13.8086,13.8238,13.8618,13.8997,13.8954,8.513,8.5493,8.5545,8.5545,8.5513,8.5753,8.5773,8.5773,8.6013,8.6065,8.6065,8.6065,8.6065,8.6065,8.6097,8.6065,8.6065,8.5877,8.6084,8.6604,8.6604,8.6811,8.7403,8.8429,8.8436,8.8161,9.0773,9.2978,9.4285,9.3,9.2497,9.2906,9.3267,9.3394,9.3394,9.3394,9.3394,9.3327,9.2481,9.2041,9.1958,9.1043,9.0204,8.9459,8.8714,8.7967,8.7344,8.724,8.724,8.724,8.6844,8.6604,8.6552,8.624,8.622,8.6552,8.6604,8.6759,8.7188,8.724,8.724,8.7357,8.7906,8.8109,8.7957,8.9744,9.1466,9.3394,9.5998,9.9357,10.2133,10.2776,10.3149,10.4396,10.6481,10.9838,11.4658,11.7919,12.1033,12.4117,12.743,13.061,13.2765,13.4502,13.5942,13.7327,13.7631,13.7815,13.7479,13.7935,13.8086,13.7967,13.8162,13.8314,13.8314,13.8423,13.7663,13.7511,13.7327,13.6904,13.6524,13.6037,13.6037,13.6524,13.6828,13.7132,13.736,13.7436,13.7815,13.8379,13.7815,13.7284,13.7403,13.7403,13.7859,8.4558,8.487,8.487,8.487,8.4922,8.4922,8.4994,8.5182,8.5182,8.5306,8.5493,8.5545,8.5545,8.5461,8.5078,8.5026,8.5182,8.515,8.5461,8.598,8.6032,8.624,8.6668,8.6844,8.6948,8.7208,8.8928,9.0107,9.0306,8.9014,8.8473,8.8903,8.9233,8.9389,8.9389,8.9389,8.9389,8.9389,8.9389,8.9355,8.9404,8.9389,8.8836,8.7713,8.7207,8.674,8.6324,8.6565,8.6636,8.6668,8.624,8.6,8.6032,8.5721,8.5669,8.598,8.6,8.622,8.6584,8.6668,8.6668,8.6668,8.6668,8.672,8.7058,8.7794,8.8786,9.0113,9.2736,9.4378,9.5553,9.44,9.425,9.7111,9.9645,10.2778,10.7014,11.0777,11.3293,11.5452,12.1018,12.5971,12.8343,13.0905,13.2915,13.4083,13.5307,13.5789,13.5841,13.66,13.6872,13.6688,13.6991,13.7327,13.7132,13.698,13.7056,13.7056,13.698,13.66,13.6676,13.6492,13.5885,13.6373,13.6373,13.66,13.6156,13.6232,13.66,13.7132,13.7284,13.698,13.736,13.7403,13.7403,8.3779,8.3779,8.3811,8.3831,8.3779,8.3831,8.4059,8.4495,8.4495,8.4838,8.5337,8.5389,8.5441,8.5286,8.4299,8.4091,8.4443,8.4579,8.4838,8.5389,8.5441,8.5409,8.5513,8.6032,8.626,8.6376,8.7149,8.7378,8.7332,8.724,8.724,8.7344,8.7448,8.7396,8.7448,8.75,8.7344,8.75,8.75,8.7396,8.7344,8.724,8.6616,8.5669,8.5929,8.5669,8.4858,8.5234,8.5493,8.5493,8.5493,8.5441,8.5409,8.5441,8.5389,8.5409,8.5441,8.5409,8.5441,8.5441,8.5441,8.5441,8.5441,8.5701,8.6104,8.6285,8.716,8.8993,8.9191,8.914,8.8981,8.8864,9.0376,9.4299,9.5241,9.7325,10.1165,10.4612,10.5661,10.6934,11.288,11.869,12.3038,12.6284,12.7865,12.9423,13.1229,13.2938,13.2774,13.4296,13.5054,13.5118,13.5929,13.6872,13.6145,13.5461,13.5993,13.6145,13.5917,13.6568,13.7024,13.7099,13.6568,13.6188,13.6037,13.5733,13.517,13.5321,13.5961,13.6069,13.6297,13.6297,13.6568,13.7099,13.7175,8.3779,8.3779,8.3779,8.3779,8.3779,8.3779,8.3863,8.3987,8.3987,8.4091,8.4247,8.4247,8.4278,8.4226,8.3935,8.3863,8.3987,8.3956,8.4059,8.4247,8.4278,8.4506,8.4806,8.4962,8.5306,8.5669,8.5961,8.6045,8.6065,8.6344,8.6844,8.724,8.724,8.724,8.724,8.724,8.724,8.724,8.724,8.724,8.7032,8.5629,8.459,8.4299,8.4403,8.4558,8.4547,8.4703,8.4838,8.4806,8.4806,8.4631,8.4299,8.4247,8.4278,8.4278,8.4247,8.4247,8.4247,8.4247,8.4247,8.4247,8.4247,8.4506,8.491,8.5014,8.5549,8.6383,8.584,8.5558,8.5515,8.5619,8.6775,8.9247,9.0161,9.2116,9.6087,9.8682,10.0771,10.2495,10.5768,10.9082,11.3984,11.8966,12.3507,12.6053,12.6231,12.6335,13.0406,13.0482,13.0791,13.2837,13.3955,13.4,13.288,13.2513,13.3,13.3456,13.3411,13.3335,13.3791,13.3291,13.2835,13.4322,13.4942,13.5018,13.4746,13.5777,13.672,13.6221,13.5309,13.4746,13.5809,13.5126,13.5429,8.1732,8.1702,8.1732,8.1732,8.1732,8.1702,8.1961,8.2346,8.2377,8.2792,8.3291,8.22,8.1732,8.1763,8.1961,8.22,8.2377,8.2637,8.2844,8.3052,8.3104,8.3364,8.3883,8.3935,8.4351,8.5046,8.5182,8.5254,8.5545,8.5825,8.6032,8.6169,8.6169,8.6065,8.5889,8.5837,8.5805,8.5869,8.5837,8.6097,8.6324,8.5214,8.4403,8.4143,8.4111,8.4163,8.4215,8.4007,8.4007,8.4195,8.38,8.3384,8.3073,8.3052,8.2948,8.2771,8.2948,8.3052,8.3021,8.3021,8.3052,8.3021,8.3343,8.3603,8.3883,8.4143,8.4195,8.4059,8.3436,8.3312,8.3863,8.3935,8.4426,8.5697,8.6288,8.7794,9.1065,9.3338,9.5365,9.7499,10.0137,10.3287,10.6011,11.0945,11.6207,12.0182,12.0254,12.0502,12.4603,12.5925,12.6659,12.8447,12.8743,12.8337,12.7917,12.8304,12.9492,13.0177,13.0329,13.0298,13.0936,13.0709,13.1012,13.1969,13.2424,13.2956,13.3791,13.4246,13.4822,13.4335,13.338,13.4139,13.5278,13.5082,13.4322,7.8644,7.8592,7.8696,7.8592,7.8667,7.8719,7.926,8.0032,8.0135,8.1026,8.1836,7.9632,7.8563,7.8719,7.9209,7.975,8.0269,8.0767,8.1234,8.1619,8.1775,8.2117,8.2699,8.2802,8.3395,8.4319,8.4371,8.4682,8.5234,8.5306,8.5098,8.4599,8.4599,8.4527,8.4091,8.4039,8.3987,8.3967,8.3727,8.4143,8.5098,8.5234,8.4974,8.4339,8.4287,8.4111,8.3623,8.3135,8.3114,8.3447,8.245,8.1879,8.1775,8.1723,8.1494,8.1109,8.1411,8.1723,8.1723,8.1723,8.1723,8.1827,8.2304,8.2647,8.2854,8.3083,8.2844,8.2065,8.1775,8.2065,8.2647,8.2802,8.3093,8.3707,8.378,8.4302,8.6433,8.8562,9.0321,9.0987,9.5752,9.9398,9.9249,10.2915,10.7514,11.1873,11.2508,11.4115,11.7568,12.0184,12.2215,12.208,12.1933,12.1551,12.2861,12.439,12.6342,12.758,12.8172,12.8552,12.8855,12.9266,12.9752,12.9918,13.0101,13.0222,13.0405,13.0557,13.1285,13.171,13.2621,13.3759,13.5114,13.519,13.405,7.7368,7.7339,7.7339,7.7391,7.7391,7.7777,7.8111,7.8371,7.8845,7.8504,7.7563,7.694,7.7096,7.7933,7.8089,7.8504,7.903,7.9268,7.9342,7.9498,7.9884,8.0373,8.0892,8.1421,8.2252,8.3239,8.3343,8.3686,8.4122,8.4174,8.4299,8.4631,8.5046,8.5286,8.513,8.5162,8.5098,8.5026,8.3333,8.2554,8.2813,8.2813,8.2761,8.2606,8.2606,8.2554,8.2429,8.2294,8.2117,8.1836,8.11,8.0468,8.0113,7.9676,7.9394,7.9342,7.9394,7.9498,7.9446,7.9468,7.9624,8.001,8.0165,8.0663,8.1421,8.0589,7.9736,7.9602,7.9914,8.0291,8.084,8.1286,8.1806,8.2346,8.2429,8.2791,8.38,8.5191,8.6431,8.7282,8.9701,9.2583,9.4546,9.6861,9.9758,10.3081,10.5357,10.8524,11.2667,11.4259,11.453,11.4226,11.5676,11.8059,12.111,12.2567,12.4255,12.7156,12.7049,12.7079,12.7413,12.7231,12.7307,12.802,12.8476,12.8779,12.8977,12.9615,13.0025,13.0101,13.0754,13.1513,13.1544,13.1544,13.086,7.5337,7.5337,7.5365,7.5389,7.5389,7.57,7.596,7.6248,7.6069,7.5417,7.453,7.471,7.5205,7.5804,7.6116,7.6432,7.6773,7.6975,7.7206,7.7517,7.7748,7.8474,7.9542,7.9966,8.0827,8.2127,8.2231,8.2647,8.3374,8.3395,8.3707,8.4195,8.433,8.4195,8.3987,8.3935,8.3904,8.3904,8.2948,8.2481,8.2429,8.219,8.2035,8.2035,8.1775,8.165,8.1702,8.0923,8.0507,8.0455,7.9357,7.866,7.8378,7.8066,7.7835,7.7546,7.7754,7.7939,7.7939,7.791,7.8014,7.8296,7.8556,7.8734,7.8867,7.7985,7.765,7.7939,7.817,7.8556,7.9097,7.9438,7.9884,8.0425,8.0736,8.11,8.1741,8.2667,8.3795,8.4982,8.6295,8.7979,9.0356,9.2876,9.4924,9.5191,9.9297,10.3223,10.7044,10.7653,10.7252,10.7192,11.0517,11.4052,11.6217,11.8757,12.1234,12.3015,12.4306,12.5274,12.562,12.5894,12.5864,12.632,12.6623,12.7003,12.7003,12.7383,12.764,12.7822,12.8126,12.8202,12.7944,12.802,12.7792,7.3028,7.3,7.3028,7.3,7.3,7.3028,7.3339,7.3862,7.2823,7.2355,7.238,7.282,7.3052,7.3156,7.3706,7.4046,7.4254,7.4638,7.5153,7.5643,7.5823,7.6739,7.8199,7.8436,7.932,8.0663,8.0849,8.1472,8.2439,8.2564,8.2875,8.3312,8.3062,8.2668,8.219,8.2242,8.2138,8.1796,8.2325,8.2647,8.2616,8.2065,8.1723,8.1567,8.1182,8.0901,8.0611,7.9238,7.8637,7.8919,7.7495,7.6612,7.6612,7.6479,7.6191,7.5747,7.6139,7.6508,7.6536,7.6479,7.6508,7.6536,7.6998,7.6814,7.5747,7.5643,7.5851,7.6404,7.6588,7.6791,7.7206,7.7414,7.7673,7.8274,7.8712,7.9283,7.9876,8.0463,8.1385,8.2996,8.3968,8.5025,8.6583,8.9388,9.0693,8.9946,9.3426,9.7915,10.0021,10.0385,10.056,10.208,10.5886,10.901,11.102,11.4532,11.7291,11.7981,12.0959,12.2902,12.3053,12.3813,12.4574,12.462,12.4726,12.4801,12.4953,12.4801,12.5105,12.5409,12.5666,12.5561,12.5409,12.5362,12.5105,7.0795,7.0769,7.0795,7.0769,7.0795,7.0743,7.1081,7.1521,7.0899,0.0,0.0,7.0743,7.0977,7.1391,7.1521,7.212,7.2951,7.3107,7.3416,7.3959,7.4865,7.5516,7.5908,7.6819,7.7621,7.84,7.8897,7.9468,8.0143,8.0551,8.11,8.165,8.2065,8.2429,8.2823,8.3239,8.2502,8.0706,8.0706,8.0758,8.0758,8.0654,8.0217,7.9342,7.9624,7.9157,7.7835,7.7443,7.7102,7.6629,7.5549,7.4902,7.4878,7.4378,7.4039,7.3907,7.4039,7.4091,7.4118,7.4091,7.4091,7.4091,7.4638,7.4718,7.3987,7.3935,7.3987,7.4063,7.4614,7.4954,7.5006,7.5417,7.5879,7.6422,7.6549,7.7073,7.8059,7.8319,7.8778,7.9653,8.1094,8.2371,8.3189,8.5214,8.6433,8.6842,8.8726,9.0817,9.3057,9.3755,9.4656,9.7803,10.1377,10.4666,10.7014,11.029,11.3185,11.5226,11.7879,11.9591,11.9971,12.1461,12.27,12.2875,12.2875,12.3207,12.3844,12.3949,12.4224,12.4907,12.5455,12.5788,12.5029,12.354,12.243,7.0172,7.0172,7.0172,7.0172,0.0,7.0172,6.9989,6.9652,6.9418,6.9418,6.9704,7.0068,7.0328,7.0535,7.0561,7.0873,7.1419,7.1704,7.2066,7.261,7.352,7.4302,7.4874,7.5473,7.6064,7.6866,7.7206,7.7777,7.8578,7.889,7.9461,8.0351,8.0663,8.1078,8.1598,8.1848,8.1152,7.952,7.9149,7.8964,7.8994,7.8734,7.8163,7.7414,7.791,0.0,0.0,0.0,0.0,0.0,0.0,0.0,0.0,7.2948,0.0,7.186,7.1521,7.1156,7.095,7.1183,7.1598,7.217,7.285,7.2434,7.0691,7.212,7.282,7.2301,7.3287,7.399,7.3938,7.4143,7.4426,7.4686,7.5025,7.5417,7.5988,7.6502,7.6917,7.7137,7.8546,7.9579,7.9667,8.1531,8.3025,8.3707,8.5171,8.6933,8.8527,8.7987,8.8774,9.2743,9.6793,10.0548,10.3423,10.6368,10.9112,11.1786,11.5156,11.7273,11.7591,11.9522,12.1205,12.1205,12.1129,12.1461,12.2278,12.2097,12.2069,12.2886,12.3055,12.2828,12.2448,12.149,12.0731,6.986,6.9834,6.986,6.986,6.9782,6.96,6.895,6.8093,6.8068,6.8353,6.8769,6.9392,6.973,6.986,6.986,6.9886,6.9989,7.0431,7.0924,7.1468,7.2197,7.3055,7.3914,7.4146,7.4638,7.536,7.5592,7.6139,7.6917,7.7281,7.7904,7.8815,7.9075,7.9387,7.9742,0.0,0.0,0.0,7.7881,7.7592,7.7621,7.7021,7.6479,7.5776,7.6116,0.0,7.4818,7.4662,7.4402,7.4122,7.3495,0.0,0.0,0.0,0.0,0.0,0.0,0.0,0.0,0.0,0.0,0.0,7.0093,6.9652,6.7625,6.9989,7.1236,7.0015,7.165,7.2741,7.2533,7.2793,7.3052,7.3129,7.3731,7.4202,7.4278,7.4997,7.5384,7.4973,7.6219,7.6998,7.6854,7.837,7.9884,8.055,8.2099,8.3499,8.4279,8.2922,8.3348,8.6996,9.0791,9.4867,9.844,10.1146,10.369,10.6645,11.0744,11.322,11.3904,11.5863,11.7576,11.8479,11.8639,11.8923,12.0579,12.0228,12.0123,12.0835,12.0503,11.9791,11.9336,11.9516,11.9744,6.8638,6.8613,6.8613,6.8613,6.8561,6.7574,6.7029,6.6926,6.6926,6.6926,6.7004,6.7677,6.8223,6.8613,6.8638,6.8924,6.934,6.9366,6.9781,7.0405,7.1364,7.1935,7.2091,7.3077,7.3443,7.3211,7.4146,7.4378,7.4091,7.5488,7.6289,7.6525,7.7459,7.8007,7.7978,7.6606,7.6323,7.7183,7.7102,7.7079,7.705,7.6422,7.562,7.4666,7.417,7.3651,7.3055,7.2481,7.2456,7.2847,7.2298,7.1935,7.1831,7.1312,7.0093,0.0,6.7316,0.0,0.0,0.0,0.0,0.0,0.0,0.0,0.0,6.7417,6.7573,6.5811,6.869,7.0224,6.9106,7.0431,7.1443,7.1883,7.2508,7.3107,7.352,7.3727,7.3751,7.3727,7.4406,7.503,7.5389,7.5658,7.6401,7.7512,7.8473,7.8853,7.8538,7.8585,7.9446,8.1532,8.2913,8.5844,8.9612,9.3146,9.628,9.8688,10.1776,10.3684,10.6055,10.8344,11.0755,11.3134,11.3782,11.4969,11.8476,11.8852,11.9052,11.9687,11.9555,11.8712,11.7223,11.7582,11.886,6.742,6.7445,6.7445,6.7107,6.6458,6.6327,6.6199,6.6224,6.6224,6.6224,6.63,6.656,6.6976,6.7445,6.7782,6.8119,6.8379,6.8925,6.9366,6.9704,7.0483,7.1054,7.1339,7.1806,7.2273,7.2691,7.3238,7.3471,7.3547,7.4219,7.479,7.5157,7.5653,7.5261,7.4039,7.3544,7.37,7.4614,7.4246,7.4246,7.4614,7.4298,7.3963,7.3498,7.3495,7.3052,7.217,7.2249,7.2249,7.217,7.1856,7.1285,7.0352,6.9184,6.7783,0.0,0.0,0.0,0.0,0.0,0.0,0.0,0.0,0.0,0.0,0.0,6.4274,6.5393,6.8327,6.9184,6.6693,6.7965,6.9132,6.934,6.9106,6.9755,7.1885,7.1833,7.1885,7.2454,7.3312,7.3859,7.3859,7.4118,7.4558,7.5473,7.5012,7.4611,7.4716,7.5217,7.6162,7.7954,7.8743,8.0309,8.3542,8.7165,9.0728,9.4331,9.7033,9.933,10.1585,10.4004,10.621,10.7906,10.8268,10.9512,11.3185,11.317,11.342,11.5705,11.5193,11.3273,11.2545,11.4268,11.6175,6.6226,6.6174,6.5344,6.4641,6.3966,6.4433,6.4821,6.5053,6.5029,6.5157,6.5313,6.5417,6.5469,6.5472,6.5833,6.6221,6.6662,6.7574,6.8146,6.8458,6.934,6.9989,7.0379,7.0638,7.1185,7.186,7.2016,7.2276,7.2689,7.2948,7.3184,7.3394,7.3134,7.2172,7.0612,7.082,7.1443,7.2483,7.1858,7.191,7.2612,7.2691,7.2691,7.2691,7.282,7.2454,7.1598,7.1781,7.165,7.1156,7.0715,6.9807,6.825,6.6433,0.0,0.0,0.0,0.0,0.0,0.0,0.0,0.0,0.0,6.0244,5.6792,0.0,6.1133,0.0,6.6897,6.7573,6.5188,6.6097,0.0,0.0,6.6043,6.6535,6.9236,6.9548,6.9937,7.0845,7.2039,7.2741,7.2535,7.2793,7.3208,7.355,7.2301,7.165,7.2352,7.2689,7.3488,7.5047,7.5825,7.6924,7.9175,8.1866,8.5093,8.979,9.2193,9.4375,9.656,9.9014,10.1071,10.2181,10.2819,10.4724,10.8163,10.7436,10.7851,11.0495,10.8635,10.6227,10.7395,10.9939,11.2335,6.5035,6.4776,6.1705,6.0643,6.0984,6.1036,6.1682,6.264,6.2692,6.305,6.3618,6.4038,6.3466,6.2011,6.1445,0.0,6.3722,6.4298,6.5105,6.6248,6.7782,6.8587,6.869,6.973,6.9989,6.9522,7.0093,7.038,7.0483,7.1364,7.1391,7.0457,6.9418,6.908,6.9288,6.8924,6.9729,7.1779,7.1287,7.1573,7.2667,7.2691,7.2691,7.2664,7.1677,7.1106,7.0975,7.0015,6.9418,6.9392,6.7887,6.6537,6.5319,0.0,0.0,0.0,0.0,0.0,0.0,0.0,0.0,0.0,0.0,0.0,0.0,0.0,0.0,5.956,6.2213,0.0,6.4852,6.5032,0.0,0.0,0.0,6.4586,6.5319,6.6872,6.804,6.8613,0.0,0.0,7.1779,7.1831,7.1727,7.1314,7.0717,7.0665,7.1675,7.1416,7.1627,7.2803,7.309,7.3736,7.5719,7.6349,7.8293,8.2756,8.4189,8.621,8.8516,9.0757,9.3154,9.597,9.8045,10.0387,10.3537,10.3661,10.3489,10.2305,10.0957,10.0397,10.2485,10.526,10.7592,6.114,5.9138,5.7489,5.7103,5.761,5.7922,5.9115,6.0874,6.0897,6.0637,6.0199,6.0406,5.9412,5.7553,5.755,0.0,0.0,0.0,6.2328,6.3834,6.5209,6.6379,6.7393,6.8248,6.8638,6.8743,6.9314,6.9444,6.9158,7.0249,6.8639,6.4589,0.0,6.56,6.516,6.6639,6.799,6.9184,6.9392,6.9781,7.056,7.0977,7.134,7.1573,7.0508,6.9859,6.9885,6.9444,6.8717,6.7731,6.6718,6.5056,0.0,0.0,0.0,0.0,0.0,0.0,0.0,0.0,0.0,0.0,0.0,5.3862,5.1473,0.0,0.0,0.0,5.6324,5.7207,5.8684,6.0666,0.0,0.0,0.0,0.0,0.0,0.0,0.0,6.5206,6.7107,6.8717,6.9625,7.0015,7.0015,6.9496,6.9834,7.0171,7.0249,0.0,7.0665,7.1107,7.1444,7.2159,7.3498,7.3447,7.4543,7.8497,8.1124,8.3573,8.5823,8.8062,9.0076,9.1869,9.3947,9.6421,9.9391,9.6655,9.3936,9.3687,9.563,9.7644,9.8649,10.1258,10.3439,5.649,0.0,0.0,0.0,0.0,5.4548,5.5836,5.7653,5.7653,5.729,5.6645,5.6688,0.0,0.0,0.0,0.0,0.0,0.0,5.9709,6.1237,6.3211,6.4793,6.5939,6.656,6.7132,6.7703,6.8068,6.7939,6.7418,6.7132,6.4558,5.9842,0.0,0.0,0.0,0.0,6.6431,6.7365,6.8067,6.8717,6.9158,6.9652,7.0197,7.0717,6.9729,6.9158,6.8977,6.8276,6.7212,6.5548,6.417,0.0,0.0,0.0,0.0,0.0,0.0,0.0,0.0,0.0,0.0,0.0,0.0,0.0,0.0,0.0,0.0,0.0,0.0,0.0,5.4203,5.6782,5.8134,0.0,0.0,0.0,0.0,0.0,0.0,0.0,0.0,0.0,6.6431,6.7341,6.799,0.0,0.0,6.9184,6.9184,6.9366,6.9496,6.9652,6.9886,0.0,7.0852,7.0903,7.1768,7.4543,7.7328,7.9618,8.1248,8.4059,8.6219,8.6262,8.8541,9.125,9.3538,8.9648,8.6417,8.7464,9.027,9.2814,9.3621,9.6637,9.9257,0.0,0.0,0.0,0.0,5.0646,0.0,0.0,0.0,5.242,5.2699,0.0,5.3194,0.0,0.0,0.0,0.0,5.1752,5.4891,0.0,0.0,6.2196,6.4142,6.417,6.4717,6.5341,6.5937,6.5912,6.5576,6.4748,6.126,0.0,0.0,0.0,0.0,0.0,0.0,6.5053,6.6666,6.7859,6.8665,6.9184,6.9236,6.9522,7.012,6.9548,6.8951,6.8353,6.6226,6.4281,6.2564,5.9419,0.0,0.0,0.0,0.0,0.0,0.0,0.0,0.0,0.0,0.0,0.0,0.0,0.0,0.0,0.0,0.0,0.0,0.0,0.0,0.0,5.4223,0.0,0.0,0.0,0.0,0.0,0.0,0.0,0.0,0.0,6.3622,6.2063,6.3754,6.5704,6.7365,0.0,0.0,0.0,0.0,6.791,6.8405,6.8067,6.7598,6.7028,6.7833,6.8944,7.0251,0.0,0.0,7.2436,7.6823,8.003,7.8543,8.1651,8.4509,8.6516,8.3056,8.1212,8.3931,8.4168,8.4424,8.6152,9.0274,9.4371,0.0,0.0,0.0,0.0,0.0,0.0,0.0,0.0,0.0,4.9621,4.9154,4.9135,0.0,0.0,0.0,0.0,0.0,0.0,0.0,0.0,5.7216,5.89,5.8692,6.1007,6.1659,6.0851,6.0799,5.9761,0.0,0.0,0.0,0.0,0.0,0.0,0.0,0.0,6.3702,6.5029,6.6924,6.8171,6.8665,6.8717,6.8638,6.8508,6.8638,6.7341,6.4561,6.2956,6.1578,0.0,0.0,0.0,0.0,0.0,0.0,0.0,0.0,0.0,0.0,0.0,0.0,0.0,0.0,0.0,0.0,0.0,0.0,0.0,0.0,0.0,0.0,0.0,5.3486,0.0,0.0,0.0,0.0,0.0,0.0,0.0,0.0,0.0,5.8337,6.0874,6.3154,6.4118,6.5365,6.6379,6.6926,0.0,0.0,0.0,0.0,0.0,0.0,0.0,6.7429,6.9222,6.8998,6.9025,7.0523,7.4745,7.7745,7.7182,0.0,0.0,7.4867,7.3252,7.3543,7.5377,7.6623,7.773,7.8671,8.1167,8.3431,0.0,0.0,0.0,0.0,0.0,0.0,0.0,0.0,0.0,4.6036,4.5378,0.0,0.0,0.0,0.0,0.0,0.0,0.0,0.0,0.0,0.0,0.0,5.4849,5.7103,0.0,0.0,0.0,0.0,0.0,0.0,0.0,0.0,0.0,0.0,0.0,0.0,6.2224,6.3598,6.6065,6.7495,6.7834,6.7703,6.7391,6.7053,6.7391,6.5964,6.2507,0.0,0.0,0.0,0.0,0.0,0.0,0.0,0.0,0.0,0.0,0.0,0.0,0.0,0.0,0.0,0.0,0.0,0.0,0.0,0.0,0.0,0.0,0.0,0.0,0.0,5.1024,0.0,0.0,0.0,0.0,0.0,0.0,0.0,0.0,0.0,0.0,5.7653,6.0065,6.1416,6.3235,6.4662,6.5234,6.5182,6.5182,0.0,0.0,0.0,0.0,0.0,0.0,0.0,0.0,0.0,0.0,0.0,0.0,0.0,0.0,7.478,6.7806,6.6309,6.6608,6.836,0.0,0.0,0.0,0.0,0.0,0.0,0.0,0.0,0.0,0.0,0.0,0.0,0.0,0.0,0.0,4.1926,0.0,0.0,4.1712,0.0,0.0,0.0,0.0,0.0,0.0,0.0,0.0,0.0,0.0,0.0,0.0,0.0,0.0,0.0,0.0,0.0,0.0,0.0,0.0,0.0,0.0,6.0689,6.238,6.516,6.6639,6.6641,6.6172,6.5885,6.5885,6.5885,6.4769,6.238,0.0,0.0,0.0,0.0,0.0,0.0,0.0,0.0,0.0,0.0,0.0,0.0,0.0,0.0,0.0,0.0,0.0,0.0,0.0,0.0,0.0,0.0,0.0,0.0,0.0,0.0,4.7421,4.865,5.0051,0.0,0.0,0.0,0.0,0.0,0.0,0.0,0.0,0.0,5.9442,6.0867,6.2219,6.3882,6.3722,6.341,6.341,6.2843,6.2224,6.1803,6.2606,6.3126,0.0,0.0,0.0,0.0,0.0,0.0,0.0,0.0,0.0,0.0,0.0,0.0,0.0,0.0,0.0,0.0,0.0,0.0,0.0,0.0,0.0,0.0,0.0,0.0,0.0,0.0,0.0,0.0,0.0,0.0,0.0,0.0,0.0,0.0,0.0,0.0,0.0,0.0,0.0,0.0,0.0,0.0,0.0,0.0,0.0,0.0,0.0,0.0,0.0,0.0,0.0,0.0,0.0,0.0,5.9108,6.1185,6.3627,6.5056,6.5395,6.5264,6.5053,6.4714,6.5029,6.3914,0.0,0.0,0.0,0.0,0.0,0.0,0.0,0.0,0.0,0.0,0.0,0.0,0.0,0.0,0.0,0.0,0.0,0.0,0.0,0.0,0.0,0.0,0.0,0.0,0.0,0.0,0.0,0.0,4.9692,5.0212,5.0103,0.0,0.0,0.0,0.0,0.0,0.0,0.0,0.0,0.0,0.0,6.1289,6.2242,6.2583,6.2739,6.2663,6.2219,6.1803,6.1647,6.193,6.2086,6.1907,0.0,0.0,0.0,0.0,0.0,0.0,0.0,0.0,0.0,0.0,0.0,0.0,0.0,0.0,0.0,0.0,0.0,0.0,0.0,0.0,0.0,0.0,0.0,0.0,0.0,0.0,0.0,0.0,0.0,0.0,0.0,0.0,0.0,0.0,0.0,0.0,0.0,0.0,0.0,0.0,0.0,0.0,0.0,0.0,0.0,0.0,0.0,0.0,0.0,0.0,0.0,0.0,0.0,5.7757,6.0065,6.2715,6.4298,6.4613,6.443,6.3962,6.3206,6.3702,6.2305,0.0,0.0,0.0,0.0,0.0,0.0,0.0,0.0,0.0,0.0,0.0,0.0,0.0,0.0,0.0,0.0,0.0,0.0,0.0,0.0,0.0,0.0,0.0,0.0,0.0,0.0,0.0,0.0,4.7751,4.8548,4.8616,0.0,0.0,0.0,0.0,0.0,0.0,0.0,0.0,0.0,0.0,5.9345,6.0147,6.1133,0.0,0.0,6.1289,6.0971,6.0971,6.1104,6.103,6.0377,6.0065,0.0,0.0,0.0,0.0,0.0,0.0,0.0,0.0,0.0,0.0,0.0,0.0,0.0,0.0,0.0,0.0,0.0,0.0,0.0,0.0,0.0,0.0,0.0,0.0,0.0,0.0,0.0,0.0,0.0,0.0,0.0,0.0,0.0,0.0,0.0,0.0,0.0,0.0,0.0,0.0,0.0,0.0,0.0,0.0,0.0,0.0,0.0,0.0,0.0,0.0,0.0,0.0,5.6615,5.8914,6.2271,6.3934,6.3986,6.349,6.2734,6.167,6.204,6.0199,0.0,0.0,0.0,0.0,0.0,0.0,0.0,0.0,0.0,0.0,0.0,0.0,0.0,0.0,0.0,0.0,0.0,0.0,0.0,0.0,0.0,0.0,0.0,0.0,0.0,0.0,0.0,0.0,0.0,0.0,0.0,0.0,0.0,0.0,0.0,0.0,0.0,0.0,0.0,0.0,0.0,5.6737,5.8025,5.9479,6.0465,0.0,6.0043,5.9679,5.9627,6.0072,5.9871,5.8307,0.0,0.0,0.0,0.0,0.0,0.0,0.0,0.0,0.0,0.0,0.0,0.0,0.0,0.0,0.0,0.0,0.0,0.0,0.0,0.0,0.0,0.0,0.0,0.0,0.0,0.0,0.0,0.0,0.0,0.0,0.0,0.0,0.0,0.0,0.0,0.0,0.0,0.0,0.0,0.0,0.0,0.0,0.0,0.0,0.0,0.0,0.0,0.0,0.0,0.0,0.0,0.0,0.0,0.0,5.707,6.0458,6.2271,6.2242,6.2138,6.1953,6.1618,6.1266,0.0,0.0,0.0,0.0,0.0,0.0,0.0,0.0,0.0,0.0,0.0,0.0,0.0,0.0,0.0,0.0,0.0,0.0,0.0,0.0,0.0,0.0,0.0,0.0,0.0,0.0,0.0,4.0483,0.0,0.0,0.0,0.0,0.0,0.0,0.0,0.0,0.0,0.0,0.0,0.0,0.0,0.0,5.6542,5.8558,5.8796,5.8752,0.0,0.0,5.7809,5.7329,5.7736,5.7883,0.0,0.0,0.0,0.0,0.0,0.0,0.0,0.0,0.0,0.0,0.0,0.0,0.0,0.0,0.0,0.0,0.0,0.0,0.0,0.0,0.0,0.0,0.0,0.0,0.0,0.0,0.0,0.0,0.0,0.0,0.0,0.0,0.0,0.0,0.0,0.0,0.0,0.0,0.0,0.0,0.0,0.0,0.0,0.0,0.0,0.0,0.0,0.0,0.0,0.0,0.0,0.0,0.0,0.0,5.3328,5.5118,5.8384,6.0585,6.1566,6.1618,6.1387,6.0867,6.1,5.9241,0.0,0.0,0.0,0.0,0.0,0.0,0.0,0.0,0.0,0.0,0.0,0.0,0.0,0.0,0.0,0.0,0.0,0.0,0.0,0.0,0.0,0.0,0.0,0.0,0.0,0.0,0.0,0.0,0.0,0.0,0.0,0.0,0.0,0.0,0.0,0.0,0.0,0.0,0.0,0.0,0.0,0.0,5.7085,5.729,0.0,0.0,0.0,5.6168,5.6074,0.0,0.0,0.0,0.0,0.0,0.0,0.0,0.0,0.0,0.0,0.0,0.0,0.0,0.0,0.0,0.0,0.0,0.0,0.0,0.0,0.0,0.0,0.0,0.0,0.0,0.0,0.0,0.0,0.0,0.0,0.0,0.0,0.0,0.0,0.0,0.0,0.0,0.0,0.0,0.0,0.0,0.0,0.0,0.0,0.0,0.0,0.0,0.0,0.0,0.0,0.0,0.0,0.0,0.0,0.0,0.0,0.0,5.3305,5.6624,5.9338,6.1306,6.1462,6.0948,6.0013,6.0867,5.9018,0.0,0.0,0.0,0.0,0.0,0.0,0.0,0.0,0.0,0.0,0.0,0.0,0.0,0.0,0.0,0.0,0.0,0.0,0.0,0.0,0.0,0.0,0.0,0.0,0.0,0.0,0.0,0.0,0.0,0.0,0.0,0.0,0.0,0.0,0.0,0.0,0.0,0.0,0.0,0.0,0.0,5.4483,5.4671,5.5368,5.5534,0.0,0.0,5.4619,5.5088,5.516,0.0,0.0,0.0,0.0,0.0,0.0,0.0,0.0,0.0,0.0,0.0,0.0,0.0,0.0,0.0,0.0,0.0,0.0,0.0,0.0,0.0,0.0,0.0,0.0,0.0,0.0,0.0,0.0,0.0,0.0,0.0,0.0,0.0,0.0,0.0,0.0,0.0,0.0,0.0,0.0,0.0,0.0,0.0,0.0,0.0,0.0,0.0,0.0,0.0,0.0,0.0,0.0,0.0,0.0,0.0,0.0,5.2295,5.7088,5.9753,6.0147,6.0244,6.0302,6.0487,5.9932,5.8052,0.0,0.0,0.0,0.0,0.0,0.0,0.0,0.0,0.0,0.0,0.0,0.0,0.0,0.0,0.0,0.0,0.0,0.0,0.0,0.0,0.0,0.0,0.0,0.0,0.0,0.0,0.0,0.0,0.0,0.0,0.0,0.0,0.0,0.0,0.0,0.0,0.0,0.0,0.0,0.0,0.0,5.2518,5.381,5.3406,0.0,0.0,0.0,0.0,5.2751,5.244,0.0,0.0,0.0,0.0,0.0,0.0,0.0,0.0,0.0,0.0,0.0,0.0,0.0,0.0,0.0,0.0,0.0,0.0,0.0,0.0,0.0,0.0,0.0,0.0,0.0,0.0,0.0,0.0,0.0,0.0,0.0,0.0,0.0,0.0,0.0,0.0,0.0,0.0,0.0,0.0,0.0,0.0,0.0,0.0,0.0,0.0,0.0,0.0,0.0,0.0,0.0,0.0,0.0,0.0,0.0,0.0,5.2214,5.5909,5.8484,5.9783,5.9835,5.9887,5.9887,5.9598,5.7697,0.0,0.0,0.0,0.0,0.0,0.0,0.0,0.0,0.0,0.0,0.0,0.0,0.0,0.0,0.0,0.0,0.0,0.0,0.0,0.0,0.0,0.0,0.0,0.0,0.0,0.0,0.0,0.0,0.0,0.0,0.0,0.0,0.0,0.0,0.0,0.0,0.0,0.0,0.0,0.0,4.9779,5.1355,5.2479,0.0,0.0,0.0,0.0,0.0,0.0,5.059,5.0207,0.0,0.0,0.0,0.0,0.0,0.0,0.0,0.0,0.0,0.0,0.0,0.0,0.0,0.0,0.0,0.0,0.0,0.0,0.0,0.0,0.0,0.0,0.0,0.0,0.0,0.0,0.0,0.0,0.0,0.0,0.0,0.0,0.0,0.0,0.0,0.0,0.0,0.0,0.0,0.0,0.0,0.0,0.0,0.0,0.0,0.0,0.0,0.0,0.0,0.0,0.0,0.0,0.0,0.0,0.0,5.1564,5.3676,5.6327,5.9367,5.9442,5.936,5.9122,5.939,5.7415,5.2934,0.0,0.0,0.0,0.0,0.0,0.0,0.0,0.0,0.0,0.0,0.0,0.0,0.0,0.0,0.0,0.0,0.0,0.0,0.0,0.0,0.0,0.0,0.0,0.0,0.0,0.0,0.0,0.0,0.0,0.0,0.0,0.0,0.0,0.0,0.0,0.0,0.0,0.0,0.0,4.8102,5.0126,0.0,0.0,0.0,0.0,0.0,0.0,0.0,0.0,4.8854,0.0,0.0,0.0,0.0,0.0,0.0,0.0,0.0,0.0,0.0,0.0,0.0,0.0,0.0,0.0,0.0,0.0,0.0,0.0,0.0,0.0,0.0,0.0,0.0,0.0,0.0,0.0,0.0,0.0,0.0,0.0,0.0,0.0,0.0,0.0,0.0,0.0,0.0,0.0,0.0,0.0,0.0,0.0,0.0,0.0,0.0,0.0,0.0,0.0,0.0,0.0,0.0,0.0,0.0,0.0,0.0,5.0209,5.3367,5.7537,5.7727,5.8164,5.907,5.8662,5.6064,5.1114,0.0,0.0,0.0,0.0,0.0,0.0,0.0,0.0,0.0,0.0,0.0,0.0,0.0,0.0,0.0,0.0,0.0,0.0,0.0,0.0,0.0,0.0,0.0,0.0,0.0,0.0,0.0,0.0,0.0,0.0,0.0,0.0,0.0,0.0,0.0,0.0,0.0,0.0,4.0853,4.4731,0.0,0.0,0.0,0.0,0.0,0.0,0.0,0.0,4.8616,0.0,0.0,0.0,0.0,0.0,0.0,0.0,0.0,0.0,0.0,0.0,0.0,0.0,0.0,0.0,0.0,0.0,0.0,0.0,0.0,0.0,0.0,0.0,0.0,0.0,0.0,0.0,0.0,0.0,0.0,0.0,0.0,0.0,0.0,0.0,0.0,0.0,0.0,0.0,0.0,0.0,0.0,0.0,0.0,0.0,0.0,0.0,0.0,0.0,0.0,0.0,0.0,0.0,0.0,0.0,0.0,0.0,0.0,5.2885,5.7567,5.7779,5.7861,5.8039,5.5637,5.3115,0.0,0.0,0.0,0.0,0.0,0.0,0.0,0.0,0.0,0.0,0.0,0.0,0.0,0.0,0.0,0.0,0.0,0.0,0.0,0.0,0.0,0.0,0.0,0.0,0.0,0.0,0.0,0.0,0.0,0.0,0.0,0.0,0.0,0.0,0.0,0.0,0.0,0.0,0.0,0.0,0.0,0.0,0.0,0.0,0.0,0.0,0.0,0.0,0.0,0.0,0.0,0.0,0.0,0.0,0.0,0.0,0.0,0.0,0.0,0.0,0.0,0.0,0.0,0.0,0.0,0.0,0.0,0.0,0.0,0.0,0.0,0.0,0.0,0.0,0.0,0.0,0.0,0.0,0.0,0.0,0.0,0.0,0.0,0.0,0.0,0.0,0.0,0.0,0.0,0.0,0.0,0.0,0.0,0.0,0.0,0.0,0.0,0.0,0.0,0.0,0.0,0.0,0.0,0.0,0.0,0.0,0.0,0.0,5.1692,5.7006,5.7195,5.7082,5.6813,5.3015,5.0747,0.0,0.0,0.0,0.0,0.0,0.0,0.0,0.0,0.0,0.0,0.0,0.0,0.0,0.0,0.0,0.0,0.0,0.0,0.0,0.0,0.0,0.0,0.0,0.0,0.0,0.0,0.0,0.0,0.0,0.0,0.0,0.0,0.0,0.0,0.0,0.0,0.0,0.0,0.0,0.0,0.0,0.0,0.0,0.0,0.0,0.0,0.0,0.0,4.6348,0.0,0.0,0.0,0.0,0.0,0.0,0.0,0.0,0.0,0.0,0.0,0.0,0.0,0.0,0.0,0.0,0.0,0.0,0.0,0.0,0.0,0.0,0.0,0.0,0.0,0.0,0.0,0.0,0.0,0.0,0.0,0.0,0.0,0.0,0.0,0.0,0.0,0.0,0.0,0.0,0.0,0.0,0.0,0.0,0.0,0.0,0.0,0.0,0.0,0.0,0.0,0.0,0.0,0.0,0.0,0.0,0.0,0.0,0.0,4.7412,5.4124,5.4277,5.4506,5.5003,5.264,5.0599,0.0,0.0,0.0,0.0,0.0,0.0,0.0,0.0,0.0,0.0,0.0,0.0,0.0,0.0,0.0,0.0,0.0,0.0,0.0,0.0,0.0,0.0,0.0,0.0,0.0,0.0,0.0,0.0,0.0,0.0,0.0,0.0,0.0,0.0,0.0,0.0,0.0,0.0,0.0,0.0,0.0,0.0,0.0,0.0,0.0,0.0,0.0,0.0,0.0,0.0,0.0,0.0,0.0,0.0,0.0,0.0,0.0,0.0,0.0,0.0,0.0,0.0,0.0,0.0,0.0,0.0,0.0,0.0,0.0,0.0,0.0,0.0,0.0,0.0,0.0,0.0,0.0,0.0,0.0,0.0,0.0,0.0,0.0,0.0,0.0,0.0,0.0,0.0,0.0,0.0,0.0,0.0,0.0,0.0,0.0,0.0,0.0,0.0,0.0,0.0,0.0,0.0,0.0,0.0,0.0,0.0,0.0,0.0,4.5531,5.1991,5.3252,5.2338,4.9244,4.7433,4.5926,0.0,0.0,0.0,0.0,0.0,0.0,0.0,0.0,0.0,0.0,0.0,0.0,0.0,0.0,0.0,0.0,0.0,0.0,0.0,0.0,0.0,0.0,0.0,0.0,0.0,0.0,0.0,0.0,0.0,0.0,0.0,0.0,0.0,0.0,0.0,0.0,0.0,0.0,0.0,0.0,0.0,0.0,0.0,0.0,0.0,0.0,0.0,0.0,0.0,0.0,0.0,0.0,0.0,0.0,0.0,0.0,0.0,0.0,0.0,0.0,0.0,0.0,0.0,0.0,0.0,0.0,0.0,0.0,0.0,0.0,0.0,0.0,0.0,0.0,0.0,0.0,0.0,0.0,0.0,0.0,0.0,0.0,0.0,0.0,0.0,0.0,0.0,0.0,0.0,0.0,0.0,0.0,0.0,0.0,0.0,0.0,0.0,0.0,0.0,0.0,0.0,0.0,0.0,0.0,0.0,0.0,0.0,0.0,0.0,4.8599,5.098,5.002,4.5695,4.3947,4.2519,0.0,0.0,0.0,0.0,0.0,0.0,0.0,0.0,0.0,0.0,0.0,0.0,0.0,0.0,0.0,0.0,0.0,0.0,0.0,0.0,0.0,0.0,0.0,0.0,0.0,0.0,0.0,0.0,0.0,0.0,0.0,0.0,0.0,0.0,0.0,0.0,0.0,0.0,0.0,0.0,0.0,0.0,0.0,0.0,0.0,0.0,0.0,0.0,0.0,0.0,0.0,0.0,0.0,0.0,0.0,0.0,0.0,0.0,0.0,0.0,0.0,0.0,0.0,0.0,0.0,0.0,0.0,0.0,0.0,0.0,0.0,0.0,0.0,0.0,0.0,0.0,0.0,0.0,0.0,0.0,0.0,0.0,0.0,0.0,0.0,0.0,0.0,0.0,0.0,0.0,0.0,0.0,0.0,0.0,0.0,0.0,0.0,0.0,0.0,0.0,0.0,0.0,0.0,0.0,0.0,0.0,0.0,0.0,0.0,4.3182,4.609,4.718,4.6382,4.4405,4.2396,0.0,0.0,0.0,0.0,0.0,0.0,0.0,0.0,0.0,0.0,0.0,0.0,0.0,0.0,0.0,0.0,0.0,0.0,0.0,0.0,0.0,0.0,0.0,0.0,0.0,0.0,0.0,0.0,0.0,0.0,0.0,0.0,0.0,0.0,0.0,0.0,0.0,0.0,0.0,0.0,0.0,0.0,0.0,0.0,0.0,0.0,0.0,0.0,0.0,0.0,0.0,0.0,0.0,0.0,0.0,0.0,0.0,0.0,0.0,0.0,0.0,0.0,0.0,0.0,0.0,0.0,0.0,0.0,0.0,0.0,0.0,0.0,0.0,0.0,0.0,0.0,0.0,0.0,0.0,0.0,0.0,0.0,0.0,0.0,0.0,0.0,0.0,0.0,0.0,0.0,0.0,0.0,0.0,0.0,0.0,0.0,0.0,0.0,0.0,0.0,0.0,0.0,0.0,0.0,0.0,0.0,0.0,0.0,0.0,3.3552,3.7549,3.9286,3.8226,3.7235,3.6444,3.5801,0.0,0.0,0.0,0.0,0.0,0.0,0.0,0.0,0.0,0.0,0.0,0.0,0.0,0.0,0.0,0.0,0.0,0.0,0.0,0.0,0.0,0.0,0.0,0.0,0.0,0.0,0.0,0.0,0.0,0.0,0.0,0.0,0.0,0.0,0.0,0.0,0.0,0.0,0.0,0.0,0.0,0.0,0.0,0.0,0.0,0.0,0.0,0.0,0.0,0.0,0.0,0.0,0.0,0.0,0.0,0.0,0.0,0.0,0.0,0.0,0.0,0.0,0.0,0.0,0.0,0.0,0.0,0.0,0.0,0.0,0.0,0.0,0.0,0.0,0.0,0.0,0.0,0.0,0.0,0.0,0.0,0.0,0.0,0.0,0.0,0.0,0.0,0.0,0.0,0.0,0.0,0.0,0.0,0.0,0.0,0.0,0.0,0.0,0.0,0.0,0.0,0.0,0.0,0.0,0.0,0.0,0.0,0.0,2.8866,3.3271,3.4976,3.3789,3.3307,3.2882,0.0,0.0,0.0,0.0,0.0,0.0,0.0,0.0,0.0,0.0,0.0,0.0,0.0,0.0,0.0,0.0,0.0,0.0,0.0,0.0,0.0,0.0,0.0,0.0,0.0,0.0,0.0,0.0,0.0,0.0,0.0,0.0,0.0,0.0,0.0,0.0,0.0,0.0,0.0,0.0,0.0,0.0,0.0,0.0,0.0,0.0,0.0,0.0,0.0,0.0,0.0,0.0,0.0,0.0,0.0,0.0,0.0,0.0,0.0,0.0,0.0,0.0,0.0,0.0,0.0,0.0,0.0,0.0,0.0,0.0,0.0,0.0,0.0,0.0,0.0,0.0,0.0,0.0,0.0,0.0,0.0,0.0,0.0,0.0,0.0,0.0,0.0,0.0,0.0,0.0,0.0,0.0,0.0,0.0,0.0,0.0,0.0,0.0,0.0,0.0,0.0,0.0,0.0,0.0,0.0,0.0,0.0,0.0,2.4502,3.0896,3.4237,3.5304,3.4745,3.4077,3.2745,0.0,0.0,0.0,0.0,0.0,0.0,0.0,0.0,0.0,0.0,0.0,0.0,0.0,0.0,0.0,0.0,0.0,0.0,0.0,0.0,0.0,0.0,0.0,0.0,0.0,0.0,0.0,0.0,0.0,0.0,0.0,0.0,0.0,0.0,0.0,0.0,0.0,0.0,0.0,0.0,0.0,0.0,0.0,0.0,0.0,0.0,0.0,0.0,0.0,0.0,0.0,0.0,0.0,0.0,0.0,0.0,0.0,0.0,0.0,0.0,0.0,0.0,0.0,0.0,0.0,0.0,0.0,0.0,0.0,0.0,0.0,0.0,0.0,0.0,0.0,0.0,0.0,0.0,0.0,0.0,0.0,0.0,0.0,0.0,0.0,0.0,0.0,0.0,0.0,0.0,0.0,0.0,0.0,0.0,0.0,0.0,0.0,0.0,0.0,0.0,0.0,0.0,0.0,0.0,0.0,0.0,0.0,0.0,0.0,2.612,0.0,3.013,0.0,3.0631,3.0267,0.0,0.0,0.0,0.0,0.0,0.0,0.0,0.0,0.0,0.0,0.0,0.0,0.0,0.0,0.0,0.0,0.0,0.0,0.0,0.0,0.0,0.0,0.0,0.0,0.0,0.0,0.0,0.0,0.0,0.0,0.0,0.0,0.0,0.0,0.0,0.0,0.0,0.0,0.0,0.0,0.0,0.0,0.0,0.0,0.0,0.0,0.0,0.0,0.0,0.0,0.0,0.0,0.0,0.0,0.0,0.0,0.0,0.0,0.0,0.0,0.0,0.0,0.0,0.0,0.0,0.0,0.0,0.0,0.0,0.0,0.0,0.0,0.0,0.0,0.0,0.0,0.0,0.0,0.0,0.0,0.0,0.0,0.0,0.0,0.0,0.0,0.0,0.0,0.0,0.0,0.0,0.0,0.0,0.0,0.0,0.0,0.0,0.0,0.0,0.0,0.0,0.0,0.0,0.0,0.0,0.0,0.0,0.0,0.0,2.4174,2.5274,2.6879,2.9003,2.8189,2.8212,0.0,0.0,0.0,0.0,0.0,0.0,0.0,0.0,0.0,0.0,0.0,0.0,0.0,0.0,0.0,0.0,0.0,0.0,0.0,0.0,0.0,0.0,0.0,0.0,0.0,0.0,0.0,0.0,0.0,0.0,0.0,0.0,0.0,0.0,0.0,0.0,0.0,0.0,0.0,0.0,0.0,0.0,0.0,0.0,0.0,0.0,0.0,0.0,0.0,0.0,0.0,0.0,0.0,0.0,0.0,0.0,0.0,0.0,0.0,0.0,0.0,0.0,0.0,0.0,0.0,0.0,0.0,0.0,0.0,0.0,0.0,0.0,0.0,0.0,0.0,0.0,0.0,0.0,0.0,0.0,0.0,0.0,0.0,0.0,0.0,0.0,0.0,0.0,0.0,0.0,0.0,0.0,0.0,0.0,0.0,0.0,0.0,0.0,0.0,0.0,0.0,0.0,0.0,0.0,0.0,0.0,0.0,0.0,0.0,0.0,2.5225,2.5853,2.7007,2.7076,2.6855,0.0,0.0,0.0,0.0,0.0,0.0,0.0,0.0,0.0,0.0,0.0,0.0,0.0,0.0,0.0,0.0,0.0,0.0,0.0,0.0,0.0,0.0,0.0,0.0,0.0,0.0,0.0,0.0,0.0,0.0,0.0,0.0,0.0,0.0,0.0,0.0,0.0,0.0,0.0,0.0,0.0,0.0,0.0,0.0,0.0,0.0,0.0,0.0,0.0,0.0,0.0,0.0,0.0,0.0,0.0,0.0,0.0,0.0,0.0,0.0,0.0,0.0,0.0,0.0,0.0,0.0,0.0,0.0,0.0,0.0,0.0,0.0,0.0,0.0,0.0,0.0,0.0,0.0,0.0,0.0,0.0,0.0,0.0,0.0,0.0,0.0,0.0,0.0,0.0,0.0,0.0,0.0,0.0,0.0,0.0,0.0,0.0,0.0,0.0,0.0,0.0,0.0,0.0,0.0,0.0,0.0,0.0,0.0,0.0,0.0,2.3761,0.0,2.6753,2.7342,2.7884,2.8478,0.0,0.0,0.0,0.0,0.0,0.0,0.0,0.0,0.0,0.0,0.0,0.0,0.0,0.0,0.0,0.0,0.0,0.0,0.0,0.0,0.0,0.0,0.0,0.0,0.0,0.0,0.0,0.0,0.0,0.0,0.0,0.0,0.0,0.0,0.0,0.0,0.0,0.0,0.0,0.0,0.0,0.0,0.0,0.0,0.0,0.0,0.0,0.0,0.0,0.0,0.0,0.0,0.0,0.0,0.0,0.0,0.0,0.0,0.0,0.0,0.0,0.0,0.0,0.0,0.0,0.0,0.0,0.0,0.0,0.0,0.0,0.0,0.0,0.0,0.0,0.0,0.0,0.0,0.0,0.0,0.0,0.0,0.0,0.0,0.0,0.0,0.0,0.0,0.0,0.0,0.0,0.0,0.0,0.0,0.0,0.0,0.0,0.0,0.0,0.0,0.0,0.0,0.0,0.0,0.0,0.0,0.0,0.0,0.0,0.0,0.0,2.5186,2.5615,2.6032,0.0,0.0,0.0,0.0,0.0,0.0,0.0,0.0,0.0,0.0,0.0,0.0,0.0,0.0,0.0,0.0,0.0,0.0,0.0,0.0,0.0,0.0,0.0,0.0,0.0,0.0,0.0,0.0,0.0,0.0,0.0,0.0,0.0,0.0,0.0,0.0,0.0,0.0,0.0,0.0,0.0,0.0,0.0,0.0,0.0,0.0,0.0,0.0,0.0,0.0,0.0,0.0,0.0,0.0,0.0,0.0,0.0,0.0,0.0,0.0,0.0,0.0,0.0,0.0,0.0,0.0,0.0,0.0,0.0,0.0,0.0,0.0,0.0,0.0,0.0,0.0,0.0,0.0,0.0,0.0,0.0,0.0,0.0,0.0,0.0,0.0,0.0,0.0,0.0,0.0,0.0,0.0,0.0,0.0,0.0,0.0,0.0,0.0,0.0,0.0,0.0,0.0,0.0,0.0,0.0,0.0,0.0,0.0,0.0,0.0,0.0,2.1814,2.2827,2.3089,0.0,2.2502,0.0,0.0,0.0,0.0,0.0,0.0,0.0,0.0,0.0,0.0,0.0,0.0,0.0,0.0,0.0,0.0,0.0,0.0,0.0,0.0,0.0,0.0,0.0,0.0,0.0,0.0,0.0,0.0,0.0,0.0,0.0,0.0,0.0,0.0,0.0,0.0,0.0,0.0,0.0,0.0,0.0,0.0,0.0,0.0,0.0,0.0,0.0,0.0,0.0,0.0,0.0,0.0,0.0,0.0,0.0,0.0,0.0,0.0,0.0,0.0,0.0,0.0,0.0,0.0,0.0,0.0,0.0,0.0,0.0,0.0,0.0,0.0,0.0,0.0,0.0,0.0,0.0,0.0,0.0,0.0,0.0,0.0,0.0,0.0,0.0,0.0,0.0,0.0,0.0,0.0,0.0,0.0,0.0,0.0,0.0,0.0,0.0,0.0,0.0,0.0,0.0,0.0,0.0,0.0,0.0,0.0,0.0,0.0,0.0,0.0,0.0,0.0,2.3939,2.3987,2.2234,0.0,0.0,0.0,0.0,0.0,0.0,0.0,0.0,0.0,0.0,0.0,0.0,0.0,0.0,0.0,0.0,0.0,0.0,0.0,0.0,0.0,0.0,0.0,0.0,0.0,0.0,0.0,0.0,0.0,0.0,0.0,0.0,0.0,0.0,0.0,0.0,0.0,0.0,0.0,0.0,0.0,0.0,0.0,0.0,0.0,0.0,0.0,0.0,0.0,0.0,0.0,0.0,0.0,0.0,0.0,0.0,0.0,0.0,0.0,0.0,0.0,0.0,0.0,0.0,0.0,0.0,0.0,0.0,0.0,0.0,0.0,0.0,0.0,0.0,0.0,0.0,0.0,0.0,0.0,0.0,0.0,0.0,0.0,0.0,0.0,0.0,0.0,0.0,0.0,0.0,0.0,0.0,0.0,0.0,0.0,0.0,0.0,0.0,0.0,0.0,0.0,0.0,0.0,0.0,0.0,0.0,0.0,0.0,0.0,0.0,2.1599,2.1311,2.3193,2.346,2.1892,0.0,0.0,0.0,0.0,0.0,0.0,0.0,0.0,0.0,0.0,0.0,0.0,0.0,0.0,0.0,0.0,0.0,0.0,0.0,0.0,0.0,0.0,0.0,0.0,0.0,0.0,0.0,0.0,0.0,0.0,0.0,0.0,0.0,0.0,0.0,0.0,0.0,0.0,0.0,0.0,0.0,0.0,0.0,0.0,0.0,0.0,0.0,0.0,0.0,0.0,0.0,0.0,0.0,0.0,0.0,0.0,0.0,0.0,0.0,0.0,0.0,0.0,0.0,0.0,0.0,0.0,0.0,0.0,0.0,0.0,0.0,0.0,0.0,0.0,0.0,0.0,0.0,0.0,0.0,0.0,0.0,0.0,0.0,0.0,0.0,0.0,0.0,0.0,0.0,0.0,0.0,0.0,0.0,0.0,0.0,0.0,0.0,0.0,0.0,0.0,0.0,0.0,0.0,0.0,0.0,0.0,0.0,0.0,0.0,0.0,0.0,0.0,0.0,0.0,2.1555,0.0,0.0,0.0,0.0,0.0,0.0,0.0,0.0,0.0,0.0,0.0,0.0,0.0,0.0,0.0,0.0,0.0,0.0,0.0,0.0,0.0,0.0,0.0,0.0,0.0,0.0,0.0,0.0,0.0,0.0,0.0,0.0,0.0,0.0,0.0,0.0,0.0,0.0,0.0,0.0,0.0,0.0,0.0,0.0,0.0,0.0,0.0,0.0,0.0,0.0,0.0,0.0,0.0,0.0,0.0,0.0,0.0,0.0,0.0,0.0,0.0,0.0,0.0,0.0,0.0,0.0,0.0,0.0,0.0,0.0,0.0,0.0,0.0,0.0,0.0,0.0,0.0,0.0,0.0,0.0,0.0,0.0,0.0,0.0,0.0,0.0,0.0,0.0,0.0,0.0,0.0,0.0,0.0,0.0,0.0,0.0,0.0,0.0,0.0,0.0,0.0,0.0,0.0,0.0,0.0,0.0,0.0,0.0,0.0,0.0,0.0,0.0,0.0,0.0,0.0,0.0,0.0,0.0,0.0,0.0,0.0,0.0,0.0,0.0,0.0,0.0,0.0,0.0,0.0,0.0,0.0,0.0,0.0,0.0,0.0,0.0,0.0,0.0,0.0,0.0,0.0,0.0,0.0,0.0,0.0,0.0,0.0,0.0,0.0,0.0,0.0,0.0,0.0,0.0,0.0,0.0,0.0,0.0,0.0,0.0,0.0,0.0,0.0,0.0,0.0,0.0,0.0,0.0,0.0,0.0,0.0,0.0,0.0,0.0,0.0,0.0,0.0,0.0,0.0,0.0,0.0,0.0,0.0,0.0,0.0,0.0,0.0,0.0,0.0,0.0,0.0,0.0,0.0,0.0,0.0,0.0,0.0,0.0,0.0,0.0,0.0,0.0,0.0,0.0,0.0,0.0,0.0,0.0,0.0,0.0,0.0,0.0,0.0,0.0,0.0,0.0,0.0,0.0,0.0,0.0,0.0,0.0,0.0,0.0,0.0,0.0,0.0,0.0,0.0,0.0,0.0,0.0,0.0,0.0,0.0,0.0,0.0,0.0,0.0,0.0,0.0,0.0,0.0,0.0,0.0,0.0,0.0,0.0,0.0,0.0,0.0,0.0,0.0,0.0,0.0,0.0,0.0,0.0,0.0,0.0,0.0,0.0,0.0,0.0,0.0,0.0,0.0,0.0,0.0,0.0,0.0,0.0,0.0,0.0,0.0,0.0,0.0,0.0,0.0,0.0,0.0,0.0,0.0,0.0,0.0,0.0,0.0,0.0,0.0,0.0,0.0,0.0,0.0,0.0,0.0,0.0,0.0,0.0,0.0,0.0,0.0,0.0,0.0,0.0,0.0,0.0,0.0,0.0,0.0,0.0,0.0,0.0,0.0,0.0,0.0,0.0,0.0,0.0,0.0,0.0,0.0,0.0,0.0,0.0,0.0,0.0,0.0,0.0,0.0,0.0,0.0,0.0,0.0,0.0,0.0,0.0,0.0,0.0,0.0,0.0,0.0,0.0,0.0,0.0,0.0,0.0,0.0,0.0,0.0,0.0,0.0,0.0,0.0,0.0,0.0,0.0,0.0,0.0,0.0,0.0,0.0,0.0,0.0,0.0,0.0,0.0,0.0,0.0,0.0,0.0,0.0,0.0,0.0,0.0,0.0,0.0,0.0,0.0,0.0,0.0,0.0,0.0,0.0,0.0,0.0,0.0,0.0,0.0,0.0,0.0,0.0,0.0,0.0,0.0,0.0,0.0,0.0,0.0,0.0,0.0,0.0,0.0,0.0,0.0,0.0,0.0,0.0,0.0,0.0,0.0,0.0,0.0,0.0,0.0,0.0,0.0,0.0,0.0,0.0,0.0,0.0,0.0,0.0,0.0,0.0,0.0,0.0,0.0,0.0,0.0,0.0,0.0,0.0,0.0,0.0,0.0,0.0,0.0,0.0,0.0,0.0,0.0,0.0,0.0,0.0,0.0,0.0,0.0,0.0,0.0,0.0,0.0,0.0,0.0,0.0,0.0,0.0,0.0,0.0,0.0,0.0,0.0,0.0,0.0,0.0,0.0,0.0,0.0,0.0,0.0,0.0,0.0,0.0,0.0,0.0,0.0,0.0,0.0,0.0,0.0,0.0,0.0,0.0,0.0,0.0,0.0,0.0,0.0,0.0,0.0,0.0,0.0,0.0,0.0,0.0,0.0,0.0,0.0,0.0,0.0,0.0,0.0,0.0,0.0,0.0,0.0,0.0,0.0,0.0,0.0,0.0,0.0,0.0,0.0,0.0,0.0,0.0,0.0,0.0,0.0,0.0,0.0,0.0,0.0,0.0,0.0,0.0,0.0,0.0,0.0,0.0,0.0,0.0,0.0,0.0,0.0,0.0,0.0,0.0,0.0,0.0,0.0,0.0,0.0,0.0,0.0,0.0,0.0,0.0,0.0,0.0,0.0,0.0,0.0,0.0,0.0,0.0,0.0,0.0,0.0,0.0,0.0,0.0,0.0,0.0,0.0,0.0,0.0,0.0,0.0,0.0,0.0,0.0,0.0,0.0,0.0,0.0,0.0,0.0,0.0,0.0,0.0,0.0,0.0,0.0,0.0,0.0,0.0,0.0,0.0,0.0,0.0,0.0,0.0,0.0,0.0,0.0,0.0,0.0,0.0,0.0,0.0,0.0,0.0,0.0,0.0,0.0,0.0,0.0,0.0,0.0,0.0,0.0,0.0,0.0,0.0,0.0,0.0,0.0,0.0,0.0,0.0,0.0,0.0,0.0,0.0,0.0,0.0,0.0,0.0,0.0,0.0,0.0,0.0,0.0,0.0,0.0,0.0,0.0,0.0,0.0,0.0,0.0,0.0,0.0,0.0,0.0,0.0,0.0,0.0,0.0,0.0,0.0,0.0,0.0,0.0,0.0,0.0,0.0,0.0,0.0,0.0,0.0,0.0,0.0,0.0,0.0,0.0,0.0,0.0,0.0,0.0,0.0,0.0,0.0,0.0,0.0,0.0,0.0,0.0,0.0,0.0,0.0,0.0,0.0,0.0,0.0,0.0,0.0,0.0,0.0,0.0,0.0,0.0,0.0,0.0,0.0,0.0,0.0,0.0,0.0,0.0,0.0,0.0,0.0,0.0,0.0,0.0,0.0,0.0,0.0,0.0,0.0,0.0,0.0,0.0,0.0,0.0,0.0,0.0,0.0,0.0,0.0,0.0,0.0,0.0,0.0,0.0,0.0,0.0,0.0,0.0,0.0,0.0,0.0,0.0,0.0,0.0,0.0,0.0,0.0,0.0,0.0,0.0,0.0,0.0,0.0,0.0,0.0,0.0,0.0,0.0,0.0,0.0,0.0,0.0,0.0,0.0,0.0,0.0,0.0,0.0,0.0,0.0,0.0,0.0,0.0,0.0,0.0,0.0,0.0,0.0,0.0,0.0,0.0,0.0,0.0,0.0,0.0,0.0,0.0,0.0,0.0,0.0,0.0,0.0,0.0,0.0,0.0,0.0,0.0,0.0,0.0,0.0,0.0,0.0,0.0,0.0,0.0,0.0,0.0,0.0,0.0,0.0,0.0,0.0,0.0,0.0,0.0,0.0,0.0,0.0,0.0,0.0,0.0,0.0,0.0,0.0,0.0,0.0,0.0,0.0,0.0,0.0,0.0,0.0,0.0,0.0,0.0,0.0,0.0,0.0,0.0,0.0,0.0,0.0,0.0,0.0,0.0,0.0,0.0,0.0,0.0,0.0,0.0,0.0,0.0,0.0,0.0,0.0,0.0,0.0,0.0,0.0,0.0,0.0,0.0,0.0,0.0,0.0,0.0,0.0,0.0,0.0,0.0,0.0,0.0,0.0,0.0,0.0,0.0,0.0,0.0,0.0,0.0,0.0,0.0,0.0,0.0,0.0,0.0,0.0,0.0,0.0,0.0,0.0,0.0,0.0,0.0,0.0,0.0,0.0,0.0,0.0,0.0,0.0,0.0,0.0,0.0,0.0,0.0,0.0,0.0,0.0,0.0,0.0,0.0,0.0,0.0,0.0,0.0,0.0,0.0,0.0,0.0,0.0,0.0,0.0,0.0,0.0,0.0,0.0,0.0,0.0,0.0,0.0,0.0,0.0,0.0,0.0,0.0,0.0,0.0,0.0,0.0,0.0,0.0,0.0,0.0,0.0,0.0,0.0,0.0,0.0,0.0,0.0,0.0,0.0,0.0,0.0,0.0,0.0,0.0,0.0,0.0,0.0,0.0,0.0,0.0,0.0,0.0,0.0,0.0,0.0,0.0,0.0,0.0,0.0,0.0,0.0,0.0,0.0,0.0,0.0,0.0,0.0,0.0,0.0,0.0,0.0,0.0,0.0,0.0,0.0,0.0,0.0,0.0,0.0]}]]]